GFSGL_500_temp_000.txt.gz
Temp
-9 -10 -10 -10 -11 -11 -11 -11 -11 -11 -11 -11 -11 -11 -11 -12 -13 -12 -13 -13 -13 -13 -14 -14 -13 -14 -15 -16 -17 -17 -17 -17 -16 -16 -16 -16 -16 -16 -16 -16 -17 -17 -17
-11 -11 -11 -11 -11 -11 -11 -11 -11 -11 -12 -12 -12 -12 -13 -13 -13 -14 -13 -13 -13 -13 -13 -13 -14 -15 -14 -15 -16 -17 -17 -17 -16 -16 -17 -17 -16 -16 -16 -16 -17 -17 -17
-11 -11 -11 -12 -12 -12 -12 -12 -12 -12 -12 -12 -13 -13 -13 -13 -13 -14 -15 -15 -15 -14 -13 -13 -14 -15 -15 -16 -16 -17 -18 -18 -17 -17 -17 -17 -16 -17 -17 -16 -16 -17 -17
-11 -12 -12 -12 -12 -13 -13 -13 -14 -14 -14 -14 -14 -14 -14 -14 -14 -15 -15 -16 -15 -15 -16 -16 -17 -17 -17 -17 -18 -17 -18 -18 -17 -17 -17 -16 -17 -17 -17 -16 -17 -17 -17
-12 -13 -13 -13 -13 -14 -14 -14 -14 -14 -14 -14 -14 -14 -15 -15 -15 -16 -16 -15 -15 -16 -17 -17 -18 -18 -18 -18 -18 -18 -18 -18 -18 -17 -17 -17 -16 -17 -17 -17 -17 -17 -17
-12 -12 -13 -13 -14 -15 -15 -15 -15 -15 -15 -15 -15 -15 -15 -15 -16 -16 -17 -16 -17 -17 -17 -17 -18 -18 -18 -19 -19 -20 -19 -18 -18 -17 -16 -16 -16 -16 -17 -17 -17 -17 -17
-13 -14 -15 -15 -15 -16 -16 -16 -16 -16 -16 -16 -16 -16 -16 -17 -17 -18 -18 -18 -17 -17 -18 -18 -18 -18 -19 -19 -20 -20 -20 -19 -18 -18 -18 -17 -17 -17 -17 -17 -17 -17 -17
-15 -16 -16 -17 -17 -17 -17 -17 -17 -17 -17 -17 -17 -17 -18 -18 -18 -18 -18 -18 -18 -18 -19 -18 -18 -18 -19 -20 -20 -20 -19 -19 -19 -19 -18 -18 -17 -17 -16 -17 -17 -17 -17
-17 -18 -18 -19 -19 -18 -19 -19 -19 -19 -19 -18 -19 -19 -19 -19 -19 -20 -20 -19 -19 -19 -19 -19 -20 -19 -20 -20 -20 -20 -20 -19 -19 -20 -18 -17 -17 -17 -17 -17 -17 -17 -17
-19 -20 -19 -20 -20 -19 -19 -20 -20 -20 -20 -20 -20 -20 -20 -20 -20 -20 -20 -19 -19 -19 -20 -20 -20 -21 -21 -21 -20 -20 -19 -19 -19 -19 -18 -17 -17 -17 -17 -17 -17 -17 -17
-20 -20 -20 -20 -21 -21 -21 -22 -22 -22 -22 -21 -21 -21 -20 -20 -20 -20 -20 -20 -21 -21 -21 -21 -21 -22 -22 -21 -21 -20 -19 -19 -18 -18 -18 -18 -17 -17 -17 -16 -16 -17 -17
-21 -22 -22 -22 -22 -22 -22 -22 -22 -22 -21 -21 -21 -20 -20 -20 -19 -20 -22 -23 -23 -24 -24 -23 -23 -23 -23 -22 -22 -20 -20 -19 -19 -18 -18 -18 -17 -17 -17 -17 -17 -17 -17
-23 -23 -23 -23 -23 -24 -24 -23 -22 -22 -21 -21 -21 -21 -21 -21 -22 -22 -23 -23 -24 -25 -25 -25 -24 -23 -23 -22 -21 -20 -20 -19 -19 -18 -18 -17 -17 -17 -17 -17 -17 -17 -17
-23 -24 -24 -24 -24 -24 -24 -24 -24 -23 -23 -22 -22 -22 -22 -22 -22 -22 -23 -23 -24 -25 -26 -25 -24 -23 -23 -22 -21 -20 -20 -19 -19 -18 -18 -17 -17 -17 -17 -17 -17 -18 -18
-24 -24 -25 -25 -25 -25 -25 -25 -24 -24 -24 -23 -23 -23 -22 -22 -23 -23 -23 -23 -24 -25 -25 -25 -24 -24 -23 -22 -21 -20 -20 -19 -18 -18 -18 -17 -17 -17 -18 -18 -18 -18 -18
-24 -25 -25 -25 -25 -25 -25 -25 -25 -25 -25 -26 -26 -25 -24 -25 -24 -24 -24 -24 -24 -25 -25 -25 -24 -24 -23 -22 -21 -20 -19 -19 -18 -18 -18 -17 -18 -17 -18 -18 -18 -18 -19
-25 -25 -25 -25 -26 -26 -26 -25 -25 -26 -28 -28 -28 -27 -27 -26 -26 -26 -25 -25 -25 -25 -25 -25 -24 -23 -23 -22 -20 -19 -19 -19 -18 -18 -18 -17 -17 -18 -18 -18 -18 -19 -19
-25 -25 -26 -26 -26 -26 -26 -27 -27 -28 -28 -28 -28 -28 -28 -28 -27 -26 -25 -25 -25 -25 -25 -25 -24 -23 -23 -22 -20 -19 -19 -19 -18 -18 -18 -18 -18 -18 -18 -19 -19 -19 -19
-26 -26 -26 -27 -27 -28 -28 -29 -29 -29 -28 -28 -28 -28 -28 -28 -27 -27 -26 -26 -25 -25 -25 -25 -23 -23 -22 -21 -20 -19 -19 -18 -18 -18 -18 -18 -18 -18 -19 -19 -19 -19 -19
-27 -27 -28 -28 -29 -30 -30 -29 -29 -29 -28 -28 -28 -28 -28 -27 -28 -27 -27 -26 -25 -25 -25 -24 -23 -23 -23 -21 -20 -19 -19 -19 -19 -18 -18 -18 -18 -19 -19 -19 -19 -19 -19
-28 -29 -30 -30 -30 -30 -30 -29 -29 -29 -28 -28 -28 -28 -28 -27 -27 -28 -27 -26 -26 -25 -25 -24 -23 -23 -22 -21 -20 -19 -19 -19 -18 -18 -18 -18 -19 -19 -19 -19 -19 -19 -19
-31 -31 -31 -31 -31 -30 -30 -30 -29 -29 -29 -29 -29 -29 -29 -28 -28 -27 -27 -26 -26 -25 -25 -25 -24 -23 -22 -21 -20 -19 -19 -19 -19 -19 -18 -19 -19 -19 -19 -19 -19 -20 -20
-31 -31 -31 -30 -30 -30 -30 -30 -30 -29 -29 -29 -30 -30 -30 -29 -29 -28 -27 -27 -26 -26 -25 -25 -24 -22 -22 -21 -20 -19 -19 -19 -19 -19 -19 -19 -19 -19 -19 -19 -20 -20 -20
-31 -31 -30 -30 -30 -30 -30 -30 -30 -30 -29 -29 -29 -30 -30 -30 -29 -29 -27 -27 -26 -26 -26 -25 -23 -22 -21 -21 -20 -20 -19 -19 -19 -19 -19 -19 -19 -20 -20 -20 -20 -20 -21
-30 -30 -30 -30 -30 -30 -30 -30 -30 -29 -29 -29 -29 -29 -30 -30 -30 -29 -28 -27 -26 -26 -26 -25 -23 -22 -22 -20 -20 -20 -20 -19 -19 -19 -19 -20 -20 -20 -20 -20 -20 -21 -22
-30 -30 -30 -30 -30 -30 -30 -30 -29 -29 -28 -29 -29 -29 -30 -30 -30 -29 -28 -27 -26 -26 -25 -25 -23 -23 -22 -21 -20 -20 -20 -20 -20 -20 -20 -20 -20 -20 -20 -20 -21 -22 -22

GFSGL_500_temp_003.txt.gz
Temp
-10 -10 -10 -10 -11 -11 -11 -11 -11 -12 -12 -12 -12 -13 -13 -13 -14 -14 -14 -14 -14 -14 -14 -14 -14 -15 -15 -16 -16 -16 -15 -16 -16 -14 -16 -16 -16 -17 -17 -17 -17 -17 -17
-10 -10 -10 -10 -11 -11 -11 -11 -12 -12 -13 -13 -13 -13 -13 -14 -14 -15 -15 -15 -15 -15 -15 -15 -16 -16 -16 -17 -17 -17 -16 -16 -17 -16 -16 -16 -16 -16 -17 -17 -17 -17 -17
-10 -10 -10 -10 -11 -11 -12 -12 -12 -13 -13 -14 -15 -15 -15 -15 -16 -16 -16 -16 -16 -16 -16 -17 -17 -17 -17 -18 -18 -18 -18 -17 -17 -16 -16 -16 -17 -16 -16 -17 -17 -17 -17
-10 -11 -11 -11 -12 -12 -12 -13 -13 -14 -14 -15 -16 -16 -16 -16 -16 -17 -17 -17 -17 -17 -17 -17 -18 -18 -17 -18 -18 -18 -18 -18 -18 -18 -17 -17 -17 -16 -16 -17 -17 -18 -17
-11 -11 -11 -11 -12 -12 -13 -14 -14 -15 -16 -16 -17 -17 -17 -18 -18 -18 -18 -18 -18 -17 -17 -17 -17 -18 -18 -18 -18 -18 -18 -19 -19 -18 -18 -17 -17 -17 -17 -15 -17 -17 -17
-11 -12 -12 -12 -13 -14 -14 -15 -15 -16 -18 -18 -19 -19 -19 -18 -19 -19 -19 -18 -19 -19 -19 -19 -19 -19 -19 -19 -19 -19 -19 -19 -19 -19 -18 -18 -18 -17 -16 -17 -17 -17 -16
-12 -12 -13 -14 -14 -15 -16 -17 -18 -19 -20 -19 -19 -19 -19 -19 -19 -19 -19 -19 -19 -20 -20 -20 -20 -20 -20 -20 -20 -19 -19 -19 -19 -19 -19 -19 -18 -18 -19 -18 -18 -17 -17
-14 -14 -16 -16 -18 -19 -20 -20 -21 -21 -21 -21 -21 -21 -21 -20 -21 -21 -21 -21 -21 -21 -21 -21 -20 -20 -20 -20 -20 -19 -19 -19 -19 -20 -20 -19 -19 -19 -19 -19 -18 -17 -17
-16 -17 -19 -20 -21 -21 -21 -22 -22 -22 -21 -21 -22 -22 -22 -22 -22 -22 -21 -21 -21 -21 -21 -21 -21 -21 -20 -20 -20 -20 -19 -19 -20 -20 -20 -20 -21 -20 -19 -18 -18 -18 -17
-18 -20 -21 -22 -22 -22 -22 -22 -23 -23 -22 -22 -22 -22 -22 -22 -22 -22 -22 -22 -21 -21 -21 -21 -21 -21 -21 -21 -21 -21 -21 -20 -20 -20 -20 -21 -20 -20 -19 -19 -18 -18 -17
-21 -22 -22 -22 -23 -23 -23 -23 -23 -23 -23 -23 -23 -23 -23 -22 -22 -22 -22 -22 -21 -21 -21 -21 -21 -22 -23 -23 -24 -23 -22 -22 -21 -20 -21 -20 -19 -19 -19 -19 -18 -17 -17
-22 -22 -23 -23 -23 -23 -23 -23 -24 -24 -24 -24 -24 -24 -24 -24 -24 -23 -23 -23 -22 -22 -22 -22 -22 -23 -24 -24 -24 -24 -24 -24 -23 -22 -21 -20 -19 -19 -19 -18 -18 -17 -17
-23 -23 -23 -23 -23 -23 -24 -24 -24 -25 -25 -25 -25 -25 -24 -24 -24 -23 -23 -23 -23 -23 -22 -22 -23 -24 -24 -25 -24 -25 -25 -24 -23 -23 -21 -20 -19 -18 -18 -18 -17 -17 -17
-23 -23 -24 -24 -24 -24 -24 -25 -25 -25 -25 -25 -25 -25 -24 -24 -25 -24 -25 -25 -25 -24 -24 -24 -24 -24 -25 -25 -25 -25 -24 -23 -22 -22 -20 -20 -19 -18 -18 -18 -17 -17 -17
-24 -24 -24 -24 -24 -24 -25 -25 -26 -26 -26 -26 -26 -25 -25 -25 -26 -26 -26 -26 -26 -26 -25 -25 -24 -25 -25 -26 -26 -25 -24 -23 -21 -21 -20 -19 -19 -18 -18 -18 -18 -18 -18
-24 -25 -25 -25 -25 -25 -25 -26 -26 -27 -27 -27 -28 -28 -28 -28 -28 -28 -27 -27 -26 -26 -26 -25 -25 -26 -26 -26 -25 -24 -24 -22 -21 -20 -20 -19 -18 -18 -18 -18 -18 -18 -18
-25 -25 -25 -25 -26 -26 -26 -26 -26 -27 -29 -30 -30 -30 -29 -29 -29 -28 -27 -27 -27 -27 -26 -26 -26 -26 -26 -25 -24 -24 -23 -22 -21 -20 -19 -19 -18 -18 -18 -18 -18 -19 -18
-25 -25 -26 -26 -27 -27 -28 -29 -29 -29 -29 -30 -31 -30 -30 -30 -29 -29 -27 -27 -27 -27 -26 -26 -26 -26 -25 -25 -24 -23 -22 -21 -20 -19 -19 -18 -18 -18 -18 -18 -18 -19 -19
-25 -26 -27 -28 -28 -29 -30 -31 -31 -31 -31 -30 -30 -30 -30 -30 -29 -28 -27 -27 -27 -27 -27 -26 -26 -26 -25 -25 -24 -23 -21 -20 -20 -19 -19 -19 -18 -18 -18 -19 -19 -19 -19
-26 -28 -28 -29 -30 -31 -31 -31 -31 -30 -30 -30 -30 -30 -30 -29 -30 -29 -28 -27 -27 -26 -27 -26 -26 -25 -25 -25 -24 -23 -21 -20 -20 -19 -19 -19 -19 -18 -19 -19 -19 -19 -19
-28 -28 -29 -30 -30 -30 -30 -30 -30 -30 -30 -30 -30 -30 -30 -29 -29 -29 -29 -28 -27 -26 -27 -26 -26 -25 -25 -24 -23 -22 -20 -20 -20 -19 -19 -19 -19 -19 -19 -19 -19 -19 -19
-29 -29 -29 -30 -30 -30 -30 -30 -30 -30 -29 -29 -29 -29 -30 -30 -30 -29 -29 -28 -27 -26 -26 -26 -26 -25 -24 -24 -23 -21 -20 -20 -20 -19 -19 -19 -19 -19 -19 -19 -19 -19 -19
-29 -29 -29 -29 -29 -29 -29 -30 -30 -30 -29 -29 -29 -29 -30 -30 -29 -29 -29 -28 -27 -27 -26 -26 -25 -25 -24 -23 -22 -21 -20 -20 -19 -19 -19 -19 -19 -19 -19 -20 -19 -19 -20
-29 -29 -29 -29 -29 -29 -30 -30 -30 -29 -29 -29 -29 -29 -29 -29 -29 -29 -29 -28 -27 -27 -26 -26 -25 -24 -23 -22 -21 -21 -20 -20 -20 -20 -19 -19 -19 -20 -20 -19 -19 -21 -22
-29 -29 -29 -29 -29 -30 -30 -30 -30 -30 -29 -29 -28 -28 -29 -29 -28 -28 -29 -29 -27 -26 -26 -25 -25 -23 -23 -22 -21 -20 -20 -20 -20 -20 -19 -19 -20 -20 -19 -20 -22 -22 -22
-29 -29 -29 -30 -30 -30 -30 -30 -29 -29 -29 -28 -28 -28 -28 -28 -28 -28 -29 -28 -27 -26 -26 -25 -24 -23 -22 -22 -21 -21 -21 -20 -20 -20 -20 -20 -20 -19 -21 -22 -22 -22 -22

GFSGL_500_temp_006.txt.gz
Temp
-10 -10 -10 -10 -10 -10 -9 -10 -10 -10 -10 -11 -11 -11 -11 -11 -12 -13 -14 -14 -14 -15 -16 -16 -16 -17 -17 -17 -17 -17 -17 -17 -17 -15 -16 -16 -16 -16 -16 -16 -17 -17 -17
-10 -10 -10 -10 -10 -10 -10 -10 -10 -10 -11 -11 -12 -12 -12 -13 -13 -14 -15 -16 -16 -17 -17 -17 -18 -18 -18 -17 -17 -17 -17 -17 -18 -18 -17 -17 -17 -17 -17 -16 -17 -17 -17
-10 -10 -10 -10 -10 -10 -10 -11 -11 -11 -12 -12 -13 -13 -14 -14 -15 -16 -17 -18 -18 -18 -19 -19 -19 -18 -19 -19 -19 -19 -19 -19 -19 -19 -18 -19 -18 -18 -18 -17 -17 -17 -17
-10 -10 -10 -10 -10 -11 -11 -11 -12 -12 -13 -14 -15 -15 -16 -18 -19 -19 -19 -19 -19 -20 -20 -20 -20 -20 -20 -20 -20 -20 -20 -20 -20 -20 -20 -19 -19 -19 -18 -18 -18 -17 -17
-11 -11 -11 -11 -11 -11 -12 -12 -13 -13 -14 -15 -16 -17 -19 -20 -21 -22 -22 -21 -21 -21 -21 -21 -22 -22 -21 -21 -21 -20 -20 -20 -20 -20 -20 -20 -20 -19 -19 -19 -19 -18 -17
-11 -12 -12 -12 -12 -12 -13 -13 -14 -15 -16 -17 -19 -20 -21 -22 -22 -22 -22 -22 -22 -22 -22 -22 -22 -23 -22 -22 -22 -21 -22 -21 -21 -21 -20 -20 -20 -20 -20 -19 -19 -19 -18
-12 -12 -12 -12 -13 -13 -15 -16 -17 -18 -20 -21 -21 -22 -22 -22 -22 -22 -22 -22 -22 -22 -22 -22 -22 -22 -22 -22 -22 -22 -22 -22 -21 -21 -21 -21 -20 -20 -20 -20 -20 -20 -19
-12 -13 -13 -14 -15 -17 -18 -20 -20 -21 -21 -21 -22 -22 -22 -23 -23 -23 -23 -23 -22 -22 -22 -22 -22 -22 -22 -22 -22 -22 -22 -21 -21 -21 -21 -21 -20 -20 -20 -20 -20 -20 -19
-13 -14 -15 -17 -19 -20 -21 -21 -22 -22 -22 -22 -22 -23 -23 -23 -23 -23 -23 -23 -23 -23 -23 -22 -22 -22 -22 -22 -22 -21 -21 -21 -21 -21 -21 -21 -21 -21 -21 -21 -21 -21 -20
-15 -17 -19 -21 -21 -22 -22 -22 -22 -22 -22 -23 -23 -23 -23 -23 -24 -24 -24 -24 -24 -24 -23 -23 -23 -23 -23 -23 -23 -22 -22 -22 -22 -22 -23 -23 -23 -22 -22 -22 -22 -21 -20
-19 -21 -21 -22 -22 -23 -23 -23 -23 -23 -23 -23 -24 -24 -24 -24 -24 -25 -25 -25 -24 -24 -23 -23 -23 -23 -23 -23 -23 -23 -23 -23 -23 -23 -23 -24 -24 -24 -23 -22 -21 -20 -20
-21 -22 -22 -23 -23 -23 -24 -24 -24 -24 -24 -24 -24 -24 -25 -25 -25 -25 -25 -25 -25 -25 -24 -24 -24 -24 -24 -24 -24 -24 -24 -24 -24 -24 -24 -25 -24 -24 -22 -21 -20 -19 -20
-22 -23 -23 -24 -24 -24 -24 -24 -24 -24 -24 -25 -25 -25 -25 -26 -26 -26 -26 -26 -27 -27 -27 -26 -25 -25 -25 -25 -25 -25 -24 -24 -24 -25 -25 -24 -23 -23 -21 -20 -19 -19 -19
-23 -24 -24 -24 -24 -24 -24 -24 -25 -25 -25 -25 -26 -26 -26 -27 -28 -28 -28 -28 -29 -28 -28 -28 -27 -26 -26 -26 -26 -25 -25 -25 -25 -25 -24 -23 -22 -21 -21 -20 -20 -19 -18
-24 -25 -25 -25 -24 -24 -25 -25 -25 -26 -26 -27 -28 -28 -29 -29 -30 -30 -30 -29 -28 -28 -27 -28 -27 -27 -26 -26 -26 -26 -26 -26 -25 -24 -23 -23 -22 -21 -20 -20 -19 -19 -18
-25 -25 -24 -24 -24 -25 -25 -25 -26 -27 -28 -29 -31 -31 -31 -31 -31 -30 -29 -28 -28 -28 -28 -27 -27 -27 -27 -27 -27 -26 -26 -25 -24 -23 -23 -22 -21 -21 -20 -19 -19 -18 -18
-25 -24 -24 -25 -25 -25 -26 -27 -27 -27 -29 -30 -30 -30 -31 -30 -30 -30 -29 -28 -29 -28 -28 -28 -27 -27 -27 -27 -26 -26 -26 -25 -24 -23 -22 -21 -21 -20 -19 -19 -19 -19 -18
-25 -25 -25 -25 -26 -27 -28 -28 -28 -28 -27 -29 -30 -30 -30 -30 -30 -29 -28 -28 -28 -28 -27 -27 -28 -27 -27 -27 -26 -25 -24 -24 -22 -21 -21 -20 -20 -19 -19 -19 -18 -19 -19
-25 -25 -25 -26 -27 -28 -28 -28 -29 -28 -28 -28 -29 -30 -30 -30 -30 -29 -29 -28 -28 -28 -28 -28 -27 -27 -27 -26 -25 -24 -24 -22 -21 -21 -20 -20 -19 -19 -19 -19 -19 -19 -19
-25 -26 -27 -28 -28 -28 -28 -29 -28 -28 -28 -29 -29 -29 -29 -30 -30 -29 -29 -29 -29 -28 -28 -28 -27 -27 -26 -25 -25 -25 -24 -21 -21 -20 -20 -19 -19 -19 -19 -19 -19 -19 -19
-26 -27 -27 -27 -28 -28 -28 -29 -29 -28 -28 -28 -29 -29 -28 -29 -29 -29 -29 -29 -29 -28 -28 -27 -27 -26 -26 -25 -25 -24 -22 -21 -21 -20 -20 -20 -19 -19 -19 -19 -19 -19 -20
-26 -27 -27 -28 -28 -28 -29 -29 -29 -28 -29 -28 -29 -29 -29 -29 -28 -29 -29 -29 -29 -28 -28 -27 -26 -26 -25 -25 -24 -23 -21 -20 -20 -20 -20 -20 -20 -20 -19 -20 -20 -20 -20
-27 -28 -28 -28 -28 -29 -29 -29 -29 -29 -29 -29 -29 -29 -29 -29 -28 -28 -28 -29 -29 -28 -27 -26 -26 -25 -25 -24 -23 -22 -21 -20 -20 -20 -21 -20 -20 -20 -20 -20 -20 -21 -22
-28 -28 -28 -29 -29 -29 -29 -29 -29 -29 -29 -29 -28 -28 -28 -28 -28 -28 -28 -28 -28 -27 -27 -26 -26 -25 -24 -23 -22 -21 -21 -20 -20 -21 -20 -20 -20 -20 -20 -21 -21 -22 -22
-28 -28 -28 -29 -29 -29 -30 -30 -30 -30 -29 -28 -28 -28 -28 -27 -27 -27 -28 -28 -28 -27 -26 -26 -25 -24 -24 -23 -21 -21 -21 -21 -21 -21 -21 -20 -21 -21 -22 -22 -22 -22 -22
-29 -29 -29 -29 -29 -30 -30 -29 -29 -29 -28 -28 -28 -28 -28 -28 -27 -27 -27 -28 -27 -26 -26 -25 -24 -24 -23 -22 -22 -22 -21 -21 -21 -21 -21 -22 -22 -22 -22 -22 -22 -23 -23

GFSGL_500_temp_009.txt.gz
Temp
-10 -10 -10 -10 -10 -10 -10 -11 -10 -10 -10 -10 -10 -10 -10 -10 -11 -11 -12 -12 -13 -14 -15 -17 -17 -18 -18 -19 -20 -19 -19 -20 -19 -19 -19 -19 -19 -18 -18 -18 -18 -18 -17
-10 -10 -10 -10 -11 -11 -11 -11 -11 -11 -11 -11 -11 -11 -11 -12 -12 -12 -13 -14 -15 -17 -18 -19 -20 -20 -21 -21 -21 -21 -21 -21 -20 -20 -20 -19 -19 -19 -19 -19 -19 -19 -18
-10 -10 -11 -11 -11 -11 -11 -11 -11 -11 -11 -11 -12 -12 -12 -13 -14 -15 -17 -18 -19 -21 -21 -22 -22 -22 -22 -22 -22 -22 -22 -22 -22 -22 -21 -20 -20 -20 -20 -19 -20 -19 -19
-11 -11 -11 -11 -11 -12 -12 -12 -12 -12 -12 -12 -13 -13 -15 -16 -18 -19 -20 -21 -21 -22 -22 -23 -23 -24 -24 -24 -24 -24 -23 -23 -22 -22 -22 -21 -21 -21 -21 -21 -21 -20 -19
-11 -12 -12 -12 -12 -12 -12 -12 -12 -12 -12 -13 -15 -16 -18 -19 -21 -21 -21 -22 -22 -23 -23 -23 -23 -24 -24 -24 -23 -23 -23 -23 -23 -23 -23 -22 -22 -22 -22 -22 -22 -21 -20
-12 -13 -13 -13 -12 -12 -12 -12 -12 -13 -15 -17 -19 -20 -21 -21 -22 -22 -22 -22 -22 -23 -23 -23 -23 -23 -23 -23 -23 -24 -24 -23 -23 -22 -22 -22 -22 -22 -22 -22 -22 -21 -21
-13 -13 -13 -13 -13 -13 -13 -13 -15 -17 -19 -20 -21 -22 -22 -22 -23 -22 -23 -23 -23 -23 -23 -23 -23 -23 -23 -24 -24 -24 -23 -24 -23 -23 -22 -22 -22 -22 -22 -22 -21 -21 -21
-13 -13 -13 -13 -13 -13 -14 -16 -18 -20 -21 -22 -23 -23 -23 -23 -23 -23 -23 -23 -23 -23 -23 -24 -24 -24 -24 -24 -23 -23 -23 -23 -24 -24 -23 -22 -22 -22 -22 -22 -21 -21 -21
-14 -14 -14 -14 -14 -16 -18 -20 -22 -22 -23 -23 -23 -23 -23 -23 -23 -23 -23 -23 -23 -23 -24 -24 -24 -24 -24 -24 -23 -23 -23 -23 -23 -23 -23 -23 -23 -23 -23 -22 -22 -21 -20
-14 -14 -14 -15 -17 -19 -21 -23 -23 -24 -24 -24 -24 -24 -24 -23 -23 -23 -23 -24 -24 -24 -24 -25 -25 -26 -25 -25 -24 -23 -23 -23 -23 -24 -24 -24 -24 -24 -24 -24 -23 -22 -22
-14 -15 -16 -18 -21 -22 -23 -24 -24 -24 -24 -24 -24 -24 -24 -24 -24 -25 -25 -26 -26 -26 -27 -27 -27 -27 -27 -27 -26 -25 -24 -24 -23 -24 -24 -25 -25 -25 -25 -25 -25 -23 -23
-16 -17 -19 -21 -23 -24 -24 -24 -24 -24 -24 -24 -24 -24 -25 -25 -26 -27 -27 -28 -29 -30 -29 -30 -29 -29 -29 -28 -27 -27 -26 -25 -25 -25 -25 -25 -25 -25 -25 -25 -25 -23 -22
-18 -20 -22 -23 -24 -24 -24 -24 -24 -24 -24 -24 -25 -25 -26 -27 -27 -27 -28 -29 -30 -31 -31 -31 -30 -30 -30 -28 -27 -27 -27 -26 -26 -25 -25 -25 -26 -26 -25 -25 -24 -23 -22
-20 -22 -23 -24 -24 -24 -24 -24 -24 -24 -25 -26 -26 -26 -27 -27 -27 -27 -28 -28 -29 -30 -30 -31 -30 -30 -29 -28 -27 -28 -27 -27 -26 -25 -26 -26 -26 -25 -24 -24 -23 -22 -21
-22 -23 -24 -24 -24 -24 -24 -24 -24 -25 -26 -27 -27 -27 -27 -27 -27 -27 -27 -28 -29 -29 -29 -29 -29 -29 -29 -28 -28 -28 -27 -27 -26 -26 -25 -25 -25 -24 -23 -22 -21 -21 -21
-23 -24 -24 -24 -24 -24 -24 -24 -25 -26 -27 -27 -28 -28 -27 -28 -27 -27 -28 -28 -29 -28 -29 -28 -28 -28 -28 -28 -28 -28 -27 -27 -26 -26 -25 -24 -24 -23 -22 -21 -21 -20 -20
-24 -25 -25 -25 -25 -24 -24 -24 -25 -26 -26 -27 -27 -28 -28 -28 -28 -28 -28 -28 -29 -29 -29 -28 -28 -28 -28 -28 -28 -27 -27 -26 -26 -26 -24 -23 -23 -22 -21 -20 -20 -20 -20
-25 -25 -25 -25 -25 -25 -25 -25 -26 -26 -26 -27 -28 -28 -28 -28 -28 -28 -28 -28 -28 -29 -29 -28 -28 -28 -28 -28 -27 -27 -26 -26 -26 -25 -23 -21 -21 -21 -20 -20 -20 -20 -20
-26 -26 -25 -25 -25 -25 -25 -26 -27 -27 -27 -27 -28 -28 -28 -28 -29 -29 -29 -28 -29 -29 -29 -28 -27 -28 -27 -27 -27 -26 -26 -25 -24 -22 -21 -21 -20 -20 -20 -19 -20 -20 -20
-26 -26 -26 -26 -25 -25 -26 -27 -27 -27 -27 -27 -28 -28 -28 -28 -29 -29 -29 -28 -29 -29 -28 -28 -27 -27 -27 -27 -26 -26 -25 -24 -23 -21 -21 -20 -20 -20 -20 -20 -21 -20 -20
-26 -26 -26 -26 -26 -26 -27 -28 -27 -28 -28 -28 -28 -29 -29 -29 -29 -29 -28 -28 -28 -28 -28 -27 -27 -26 -27 -26 -25 -25 -24 -23 -22 -21 -21 -21 -21 -21 -21 -20 -20 -20 -20
-26 -26 -26 -26 -26 -27 -28 -28 -28 -28 -28 -28 -29 -29 -29 -29 -29 -28 -28 -28 -28 -28 -27 -27 -26 -26 -26 -25 -25 -24 -23 -22 -21 -22 -21 -21 -21 -21 -21 -21 -21 -21 -22
-27 -27 -27 -27 -27 -28 -28 -28 -28 -28 -28 -29 -29 -29 -29 -28 -28 -27 -28 -28 -28 -27 -27 -26 -26 -26 -25 -25 -24 -23 -22 -21 -22 -22 -22 -22 -21 -21 -21 -22 -22 -22 -23
-27 -27 -27 -27 -27 -28 -28 -29 -29 -28 -28 -28 -28 -28 -28 -28 -27 -27 -27 -27 -27 -27 -26 -26 -25 -25 -25 -24 -23 -22 -22 -22 -22 -22 -22 -22 -21 -22 -22 -23 -23 -23 -23
-28 -27 -27 -27 -28 -29 -29 -29 -29 -29 -28 -28 -28 -28 -28 -28 -28 -27 -27 -27 -27 -26 -26 -25 -24 -25 -25 -24 -23 -23 -23 -22 -22 -22 -21 -22 -23 -23 -23 -23 -24 -24 -25
-28 -28 -28 -28 -29 -29 -29 -29 -29 -29 -29 -29 -29 -28 -28 -28 -27 -27 -27 -27 -26 -26 -25 -25 -25 -25 -24 -23 -23 -23 -22 -22 -22 -23 -23 -23 -23 -23 -23 -24 -25 -25 -26

GFSGL_500_temp_012.txt.gz
Temp
-11 -11 -11 -10 -10 -10 -10 -10 -11 -11 -11 -11 -11 -11 -11 -12 -12 -12 -12 -12 -12 -13 -14 -15 -17 -19 -20 -21 -22 -22 -23 -23 -23 -22 -23 -22 -22 -22 -21 -21 -20 -20 -19
-11 -11 -11 -11 -11 -11 -11 -11 -11 -12 -12 -12 -12 -12 -12 -12 -12 -12 -12 -13 -14 -16 -18 -20 -21 -21 -22 -22 -23 -23 -23 -23 -23 -23 -23 -23 -23 -23 -23 -22 -21 -21 -20
-11 -11 -11 -11 -11 -12 -12 -12 -12 -13 -13 -12 -12 -12 -12 -12 -13 -14 -15 -17 -19 -21 -22 -22 -22 -23 -23 -23 -23 -23 -23 -23 -24 -24 -23 -23 -23 -23 -23 -23 -22 -22 -21
-11 -11 -12 -12 -12 -12 -12 -13 -13 -13 -12 -13 -13 -13 -13 -14 -16 -18 -20 -22 -22 -23 -23 -23 -24 -24 -24 -23 -23 -24 -24 -24 -24 -24 -23 -23 -24 -23 -23 -23 -22 -22 -22
-12 -12 -12 -12 -13 -13 -13 -13 -13 -13 -13 -13 -13 -13 -15 -18 -21 -22 -23 -23 -23 -24 -24 -24 -24 -23 -23 -23 -24 -23 -23 -23 -23 -23 -24 -24 -24 -24 -23 -23 -23 -22 -22
-13 -13 -13 -13 -13 -13 -13 -13 -13 -13 -14 -14 -15 -17 -20 -22 -23 -23 -24 -24 -24 -24 -23 -23 -23 -23 -23 -23 -23 -23 -23 -23 -23 -24 -23 -23 -23 -23 -23 -23 -23 -22 -22
-14 -13 -13 -13 -14 -14 -14 -14 -14 -14 -14 -16 -18 -21 -23 -23 -24 -23 -23 -23 -23 -23 -23 -24 -23 -24 -24 -24 -23 -24 -24 -24 -25 -24 -23 -23 -23 -23 -23 -23 -23 -22 -22
-14 -14 -14 -14 -14 -14 -14 -14 -14 -15 -17 -19 -22 -23 -24 -23 -23 -23 -23 -23 -23 -24 -25 -26 -26 -26 -26 -26 -26 -25 -25 -26 -26 -25 -24 -24 -24 -23 -23 -23 -23 -23 -23
-14 -14 -14 -15 -15 -15 -15 -15 -16 -18 -20 -23 -24 -24 -23 -23 -23 -23 -24 -24 -25 -26 -26 -27 -27 -28 -29 -30 -30 -29 -28 -28 -28 -27 -26 -24 -24 -25 -24 -23 -23 -23 -23
-15 -15 -15 -15 -15 -15 -16 -17 -19 -21 -23 -24 -24 -24 -24 -23 -24 -25 -26 -26 -26 -26 -27 -27 -28 -28 -29 -30 -31 -30 -30 -29 -28 -28 -27 -26 -25 -25 -25 -24 -24 -24 -23
-15 -15 -16 -16 -16 -17 -18 -20 -22 -24 -24 -24 -24 -24 -23 -24 -25 -26 -27 -26 -27 -27 -27 -27 -28 -28 -29 -29 -30 -30 -29 -29 -28 -28 -27 -27 -26 -26 -26 -25 -25 -24 -24
-16 -16 -16 -17 -17 -19 -20 -22 -24 -25 -25 -24 -24 -24 -24 -25 -26 -26 -26 -27 -27 -27 -28 -28 -28 -28 -29 -29 -29 -29 -29 -29 -28 -28 -27 -27 -27 -27 -27 -26 -26 -25 -24
-17 -17 -17 -18 -19 -21 -23 -24 -25 -25 -25 -25 -24 -24 -24 -26 -26 -26 -27 -27 -28 -28 -28 -29 -29 -29 -28 -28 -29 -28 -29 -28 -28 -28 -28 -28 -27 -27 -27 -27 -27 -26 -25
-17 -17 -18 -19 -21 -23 -25 -25 -25 -25 -25 -24 -24 -24 -25 -26 -26 -27 -27 -27 -27 -27 -28 -28 -28 -28 -28 -28 -28 -28 -28 -28 -28 -28 -27 -27 -27 -27 -26 -26 -26 -25 -24
-17 -18 -19 -21 -23 -24 -25 -25 -25 -25 -25 -25 -25 -25 -26 -27 -27 -27 -27 -27 -27 -27 -27 -28 -28 -29 -29 -28 -29 -28 -28 -28 -28 -27 -27 -26 -26 -26 -26 -24 -24 -23 -22
-18 -19 -21 -23 -24 -25 -25 -25 -26 -25 -25 -25 -26 -27 -27 -27 -27 -27 -27 -27 -28 -27 -27 -28 -28 -29 -28 -28 -28 -28 -28 -28 -27 -27 -26 -25 -25 -24 -24 -23 -22 -22 -21
-20 -21 -22 -24 -25 -25 -26 -26 -26 -26 -26 -26 -27 -27 -27 -28 -27 -28 -27 -28 -28 -28 -28 -28 -28 -28 -28 -28 -28 -27 -27 -27 -27 -26 -26 -25 -23 -22 -22 -22 -21 -21 -21
-21 -23 -24 -25 -26 -26 -26 -26 -26 -26 -25 -25 -27 -28 -28 -28 -28 -29 -28 -28 -28 -29 -28 -28 -28 -28 -28 -27 -27 -27 -27 -27 -26 -26 -24 -22 -22 -22 -21 -21 -21 -21 -21
-23 -25 -26 -26 -26 -27 -27 -27 -26 -26 -26 -26 -27 -28 -28 -28 -29 -29 -29 -28 -28 -28 -28 -28 -28 -27 -27 -27 -26 -26 -27 -26 -25 -24 -22 -21 -21 -21 -21 -21 -21 -21 -21
-25 -26 -26 -27 -27 -27 -27 -27 -27 -26 -26 -27 -28 -28 -28 -28 -29 -28 -28 -28 -28 -28 -28 -28 -27 -27 -26 -26 -26 -26 -26 -25 -24 -23 -22 -22 -21 -21 -21 -21 -22 -22 -22
-26 -27 -27 -27 -27 -27 -27 -27 -27 -27 -27 -28 -28 -28 -28 -28 -28 -28 -28 -27 -27 -28 -28 -27 -27 -26 -26 -26 -26 -25 -25 -24 -23 -23 -23 -22 -22 -22 -22 -22 -22 -22 -21
-27 -27 -27 -27 -27 -27 -28 -28 -27 -27 -28 -28 -28 -28 -28 -28 -27 -28 -27 -27 -27 -28 -28 -27 -26 -25 -25 -26 -25 -25 -24 -24 -23 -23 -23 -23 -23 -22 -22 -22 -21 -21 -22
-27 -28 -28 -28 -28 -28 -28 -28 -27 -28 -29 -29 -28 -28 -28 -28 -27 -27 -27 -27 -27 -28 -27 -26 -25 -25 -25 -25 -24 -24 -24 -23 -23 -23 -23 -22 -22 -23 -23 -23 -23 -23 -23
-28 -28 -28 -28 -28 -28 -28 -28 -28 -29 -29 -29 -29 -28 -28 -28 -27 -27 -27 -27 -27 -27 -26 -25 -25 -25 -25 -24 -24 -24 -23 -23 -23 -23 -23 -23 -24 -24 -24 -24 -24 -25 -25
-28 -28 -28 -28 -28 -28 -28 -29 -30 -30 -29 -29 -29 -29 -28 -28 -27 -27 -27 -27 -27 -26 -25 -25 -25 -25 -24 -24 -24 -23 -23 -24 -23 -23 -23 -23 -24 -24 -25 -26 -26 -26 -26
-28 -28 -29 -29 -29 -29 -29 -30 -30 -30 -30 -30 -29 -29 -29 -28 -27 -27 -27 -27 -26 -25 -25 -25 -25 -24 -24 -23 -23 -23 -23 -23 -23 -23 -24 -25 -25 -26 -26 -26 -26 -26 -27

GFSGL_500_temp_015.txt.gz
Temp
-11 -12 -11 -11 -11 -11 -11 -11 -11 -11 -11 -11 -12 -13 -13 -13 -13 -13 -13 -13 -13 -13 -13 -14 -15 -17 -20 -21 -22 -23 -23 -24 -24 -23 -23 -23 -23 -23 -23 -23 -23 -23 -23
-12 -12 -11 -11 -11 -11 -11 -11 -11 -12 -12 -13 -13 -13 -13 -13 -13 -13 -13 -13 -13 -14 -15 -17 -20 -22 -23 -24 -24 -24 -24 -24 -24 -24 -23 -23 -23 -23 -23 -23 -23 -23 -23
-12 -12 -11 -11 -11 -11 -12 -12 -12 -13 -13 -13 -13 -13 -14 -14 -14 -14 -14 -14 -15 -16 -19 -22 -23 -23 -23 -23 -24 -24 -24 -24 -24 -24 -24 -24 -24 -23 -23 -23 -23 -23 -23
-12 -12 -12 -12 -12 -13 -13 -13 -13 -13 -13 -14 -14 -14 -14 -14 -14 -15 -15 -16 -18 -21 -23 -23 -23 -23 -23 -23 -23 -23 -23 -24 -24 -24 -24 -24 -23 -23 -23 -23 -23 -23 -23
-12 -12 -13 -13 -13 -13 -14 -14 -14 -14 -14 -14 -15 -15 -15 -15 -15 -16 -18 -20 -23 -23 -23 -23 -23 -23 -24 -24 -25 -24 -25 -25 -25 -25 -25 -25 -24 -24 -23 -23 -23 -23 -23
-13 -13 -14 -14 -14 -14 -14 -14 -14 -15 -15 -15 -15 -15 -16 -17 -18 -20 -22 -23 -23 -23 -23 -23 -24 -25 -25 -25 -25 -25 -26 -27 -27 -28 -27 -26 -25 -26 -25 -24 -23 -23 -23
-14 -14 -14 -14 -15 -15 -15 -15 -15 -15 -16 -16 -16 -16 -17 -20 -22 -23 -24 -24 -24 -23 -23 -24 -25 -25 -26 -25 -25 -25 -26 -28 -29 -29 -29 -29 -29 -28 -27 -26 -24 -23 -22
-14 -14 -15 -15 -15 -15 -15 -16 -16 -16 -16 -16 -16 -18 -21 -23 -24 -24 -24 -24 -24 -24 -25 -25 -25 -26 -26 -26 -26 -26 -27 -28 -29 -30 -31 -31 -30 -30 -28 -27 -25 -23 -23
-15 -15 -15 -15 -15 -16 -16 -16 -16 -16 -17 -17 -19 -21 -23 -24 -25 -25 -24 -24 -24 -25 -25 -26 -26 -27 -27 -27 -27 -26 -27 -28 -29 -30 -30 -30 -30 -30 -29 -27 -26 -25 -24
-15 -16 -16 -16 -16 -17 -17 -17 -17 -17 -18 -19 -21 -23 -25 -25 -25 -25 -24 -24 -25 -26 -26 -26 -27 -27 -27 -27 -28 -27 -27 -27 -28 -29 -30 -30 -30 -29 -28 -27 -27 -26 -25
-16 -16 -16 -17 -17 -17 -17 -17 -18 -18 -19 -21 -23 -24 -25 -25 -25 -25 -25 -25 -26 -26 -26 -26 -27 -27 -28 -28 -28 -28 -27 -27 -28 -28 -29 -29 -29 -29 -29 -28 -28 -27 -26
-17 -17 -17 -17 -18 -18 -18 -18 -19 -20 -21 -23 -25 -25 -26 -26 -25 -25 -25 -27 -27 -26 -27 -27 -27 -28 -28 -28 -28 -28 -27 -27 -28 -29 -29 -29 -29 -30 -29 -29 -29 -27 -26
-17 -18 -18 -18 -18 -18 -18 -19 -20 -22 -24 -25 -26 -26 -26 -25 -25 -25 -26 -27 -27 -27 -27 -27 -28 -28 -28 -28 -28 -28 -27 -27 -28 -29 -29 -30 -30 -29 -29 -28 -28 -28 -26
-18 -18 -18 -18 -19 -19 -19 -20 -22 -24 -26 -26 -26 -26 -26 -26 -25 -25 -27 -27 -27 -27 -27 -27 -28 -28 -28 -28 -28 -28 -28 -28 -28 -29 -29 -29 -28 -27 -27 -27 -27 -26 -25
-18 -18 -18 -19 -19 -20 -21 -22 -24 -26 -26 -27 -26 -26 -26 -26 -26 -26 -27 -27 -27 -27 -27 -28 -28 -28 -28 -28 -28 -28 -27 -28 -28 -27 -27 -27 -26 -26 -26 -26 -25 -24 -24
-18 -19 -19 -19 -20 -20 -22 -24 -26 -27 -27 -27 -27 -27 -26 -26 -26 -27 -28 -28 -28 -28 -28 -28 -28 -28 -28 -27 -28 -27 -27 -27 -27 -27 -26 -26 -25 -25 -24 -24 -23 -23 -23
-19 -19 -20 -20 -21 -22 -24 -26 -27 -27 -27 -27 -27 -27 -27 -26 -27 -28 -27 -28 -28 -28 -28 -28 -28 -28 -27 -27 -27 -27 -27 -27 -26 -26 -25 -24 -24 -23 -23 -22 -22 -22 -22
-19 -20 -20 -21 -23 -25 -26 -27 -27 -27 -27 -27 -27 -27 -27 -27 -28 -28 -28 -27 -28 -28 -28 -28 -28 -27 -27 -27 -26 -26 -26 -26 -26 -24 -23 -23 -22 -22 -22 -22 -22 -22 -22
-20 -21 -22 -23 -25 -26 -27 -27 -28 -28 -28 -27 -27 -27 -27 -28 -28 -28 -28 -28 -27 -27 -27 -27 -27 -27 -27 -26 -26 -26 -26 -25 -25 -24 -23 -22 -22 -22 -22 -22 -22 -22 -22
-21 -23 -24 -26 -27 -27 -28 -28 -28 -28 -28 -28 -28 -27 -28 -28 -28 -28 -28 -27 -27 -27 -27 -27 -27 -27 -26 -26 -25 -25 -25 -25 -24 -24 -23 -23 -23 -23 -23 -23 -23 -23 -23
-23 -25 -26 -27 -28 -28 -28 -28 -28 -28 -28 -28 -28 -28 -29 -28 -28 -28 -28 -27 -27 -27 -27 -27 -27 -26 -25 -25 -25 -25 -24 -24 -24 -23 -23 -24 -24 -23 -23 -23 -23 -23 -23
-25 -27 -28 -28 -28 -28 -28 -28 -28 -28 -28 -28 -29 -30 -29 -29 -28 -28 -28 -27 -27 -27 -26 -26 -26 -25 -25 -25 -25 -24 -24 -24 -24 -25 -24 -24 -23 -23 -23 -23 -23 -23 -23
-27 -28 -28 -28 -28 -28 -28 -29 -29 -29 -29 -29 -30 -30 -29 -29 -28 -28 -28 -27 -27 -26 -26 -26 -25 -25 -25 -24 -24 -24 -24 -25 -25 -24 -24 -24 -24 -24 -24 -24 -24 -24 -24
-28 -28 -29 -28 -28 -28 -29 -29 -29 -29 -30 -30 -30 -30 -29 -29 -29 -28 -27 -27 -27 -26 -25 -25 -25 -25 -25 -24 -24 -24 -25 -24 -24 -25 -25 -25 -25 -25 -25 -25 -26 -26 -26
-29 -29 -28 -28 -29 -29 -29 -29 -30 -30 -30 -30 -30 -30 -29 -29 -29 -28 -27 -27 -26 -25 -25 -25 -25 -24 -24 -24 -24 -24 -24 -25 -25 -25 -26 -26 -26 -26 -26 -26 -26 -26 -27
-29 -28 -28 -29 -29 -29 -29 -30 -30 -30 -30 -30 -30 -30 -29 -29 -28 -28 -27 -26 -26 -25 -25 -24 -24 -24 -24 -24 -24 -24 -24 -25 -25 -26 -26 -27 -27 -27 -27 -27 -27 -27 -27

GFSGL_500_temp_018.txt.gz
Temp
-12 -12 -12 -12 -12 -12 -12 -12 -12 -12 -12 -12 -12 -13 -13 -13 -13 -13 -14 -14 -14 -14 -14 -15 -15 -15 -16 -17 -19 -21 -22 -22 -22 -21 -22 -22 -22 -23 -23 -24 -24 -24 -23
-12 -12 -12 -12 -12 -12 -12 -12 -12 -12 -12 -13 -13 -13 -14 -14 -14 -14 -14 -14 -15 -15 -15 -15 -16 -17 -19 -21 -22 -22 -22 -22 -23 -23 -22 -23 -23 -24 -24 -24 -24 -24 -24
-12 -12 -12 -12 -12 -12 -12 -13 -13 -13 -13 -14 -14 -14 -14 -14 -15 -15 -15 -15 -15 -15 -16 -17 -18 -20 -22 -23 -23 -23 -22 -23 -24 -25 -24 -25 -24 -24 -24 -25 -25 -25 -25
-13 -13 -13 -13 -13 -13 -13 -13 -13 -14 -14 -15 -15 -15 -15 -16 -16 -16 -16 -16 -16 -16 -18 -20 -21 -23 -24 -23 -23 -23 -24 -24 -25 -25 -25 -25 -25 -25 -26 -26 -26 -26 -25
-13 -13 -13 -13 -13 -13 -14 -14 -14 -15 -15 -15 -15 -16 -16 -16 -16 -16 -16 -17 -17 -18 -20 -22 -24 -24 -24 -23 -24 -25 -25 -25 -26 -26 -25 -26 -26 -27 -27 -28 -29 -28 -27
-14 -14 -14 -14 -14 -14 -14 -15 -15 -16 -16 -16 -16 -17 -17 -17 -17 -17 -17 -18 -19 -21 -23 -24 -24 -24 -24 -25 -25 -26 -26 -26 -26 -27 -26 -27 -27 -28 -28 -29 -29 -30 -29
-14 -14 -14 -14 -14 -15 -15 -16 -16 -16 -17 -17 -17 -17 -17 -18 -18 -18 -19 -20 -22 -24 -24 -25 -24 -24 -25 -26 -26 -26 -26 -26 -27 -28 -27 -27 -27 -28 -28 -28 -29 -30 -30
-14 -14 -14 -15 -15 -16 -16 -16 -17 -17 -17 -17 -17 -18 -18 -18 -19 -20 -22 -23 -24 -25 -25 -25 -25 -25 -26 -26 -26 -26 -26 -27 -27 -28 -28 -28 -28 -28 -29 -28 -29 -29 -29
-15 -15 -15 -15 -16 -16 -17 -17 -17 -17 -18 -18 -18 -18 -19 -20 -21 -23 -24 -25 -25 -25 -25 -25 -26 -26 -27 -27 -26 -26 -26 -27 -28 -29 -29 -29 -28 -29 -29 -28 -29 -29 -29
-15 -15 -16 -16 -16 -17 -17 -17 -18 -18 -18 -18 -19 -19 -20 -21 -23 -25 -25 -25 -25 -26 -25 -26 -27 -27 -27 -27 -27 -26 -26 -27 -28 -28 -29 -29 -29 -29 -29 -29 -29 -29 -29
-15 -16 -16 -16 -17 -17 -18 -18 -18 -18 -19 -19 -20 -21 -22 -23 -25 -26 -26 -26 -26 -26 -26 -26 -27 -27 -28 -28 -28 -27 -27 -28 -28 -28 -28 -29 -29 -30 -30 -30 -30 -29 -28
-16 -16 -17 -17 -17 -18 -18 -18 -19 -19 -19 -20 -21 -22 -24 -25 -26 -26 -27 -26 -26 -26 -26 -27 -28 -28 -29 -29 -28 -28 -28 -28 -28 -29 -29 -29 -30 -30 -30 -30 -29 -28 -28
-17 -17 -17 -18 -18 -18 -19 -19 -19 -20 -21 -21 -23 -24 -26 -26 -26 -27 -27 -27 -27 -26 -27 -27 -28 -28 -28 -28 -28 -28 -28 -28 -28 -28 -28 -29 -29 -28 -28 -28 -27 -27 -27
-17 -17 -18 -18 -18 -19 -19 -20 -21 -21 -22 -23 -25 -26 -27 -27 -27 -27 -27 -27 -26 -27 -27 -27 -28 -28 -28 -28 -28 -28 -28 -27 -27 -27 -27 -27 -27 -27 -27 -27 -27 -26 -26
-17 -18 -18 -19 -19 -19 -20 -21 -22 -23 -24 -25 -27 -27 -27 -27 -27 -27 -27 -27 -27 -27 -27 -27 -27 -28 -28 -28 -28 -27 -27 -27 -27 -26 -26 -26 -25 -25 -25 -25 -25 -25 -24
-18 -18 -19 -19 -19 -20 -21 -22 -23 -24 -26 -27 -27 -28 -28 -27 -27 -27 -27 -27 -28 -28 -27 -27 -27 -28 -28 -28 -27 -27 -27 -27 -27 -27 -25 -24 -24 -24 -24 -24 -23 -23 -23
-18 -19 -19 -19 -20 -21 -22 -23 -24 -26 -27 -28 -28 -28 -28 -28 -28 -28 -27 -28 -28 -28 -28 -27 -27 -28 -27 -27 -27 -27 -26 -26 -26 -25 -24 -23 -23 -23 -23 -23 -23 -23 -23
-19 -19 -20 -20 -21 -22 -24 -25 -26 -27 -27 -28 -28 -28 -28 -28 -28 -28 -29 -29 -28 -28 -28 -27 -27 -27 -27 -27 -26 -26 -26 -26 -26 -25 -25 -23 -23 -23 -23 -23 -23 -23 -23
-20 -20 -20 -21 -22 -24 -26 -27 -28 -28 -28 -28 -28 -28 -28 -28 -29 -30 -29 -28 -28 -28 -27 -27 -27 -26 -26 -26 -26 -26 -26 -26 -26 -25 -25 -24 -24 -24 -24 -23 -23 -23 -23
-20 -20 -21 -22 -24 -26 -27 -28 -28 -28 -28 -28 -28 -28 -28 -29 -30 -29 -29 -28 -28 -27 -27 -27 -26 -26 -26 -26 -25 -26 -26 -25 -25 -25 -24 -24 -24 -24 -24 -24 -24 -23 -23
-20 -21 -22 -24 -27 -28 -28 -28 -28 -28 -28 -28 -28 -29 -30 -30 -29 -29 -28 -28 -27 -27 -27 -26 -26 -26 -25 -25 -26 -25 -25 -25 -26 -26 -26 -26 -25 -25 -25 -24 -24 -24 -23
-21 -22 -25 -27 -28 -28 -28 -28 -28 -28 -28 -28 -29 -30 -30 -29 -29 -29 -28 -28 -27 -27 -27 -26 -26 -26 -25 -26 -26 -26 -26 -26 -26 -26 -26 -25 -25 -25 -25 -25 -25 -25 -25
-23 -25 -27 -28 -29 -29 -28 -28 -28 -28 -29 -30 -30 -30 -29 -29 -29 -29 -28 -28 -27 -27 -26 -26 -25 -25 -25 -26 -26 -26 -26 -26 -26 -26 -26 -26 -25 -25 -25 -25 -25 -25 -25
-26 -27 -28 -29 -29 -28 -28 -28 -28 -29 -30 -30 -30 -29 -29 -29 -29 -28 -28 -27 -27 -26 -26 -25 -25 -25 -26 -26 -26 -26 -27 -27 -27 -27 -27 -27 -27 -27 -26 -26 -26 -27 -27
-28 -29 -29 -29 -29 -28 -29 -29 -30 -30 -30 -30 -29 -29 -29 -29 -28 -28 -27 -27 -26 -26 -25 -25 -25 -25 -26 -26 -26 -26 -26 -27 -27 -27 -27 -27 -27 -27 -27 -27 -27 -28 -28
-29 -29 -29 -29 -29 -29 -29 -30 -30 -29 -29 -29 -29 -29 -29 -28 -28 -28 -27 -26 -26 -25 -25 -25 -25 -25 -25 -25 -26 -26 -26 -27 -27 -27 -27 -27 -27 -27 -27 -27 -27 -27 -28

GFSGL_500_temp_021.txt.gz
Temp
-12 -12 -13 -13 -13 -12 -12 -12 -13 -13 -13 -13 -13 -13 -13 -13 -13 -14 -14 -15 -15 -15 -15 -16 -16 -16 -16 -16 -16 -17 -18 -20 -21 -20 -21 -21 -21 -22 -22 -23 -24 -25 -25
-13 -13 -13 -13 -13 -13 -13 -13 -13 -13 -13 -13 -13 -13 -14 -14 -15 -15 -15 -15 -16 -16 -16 -16 -16 -16 -16 -17 -18 -20 -21 -22 -23 -23 -22 -22 -23 -24 -24 -24 -25 -25 -24
-13 -13 -13 -13 -13 -13 -13 -13 -13 -13 -13 -13 -14 -14 -15 -15 -16 -16 -16 -16 -17 -17 -17 -17 -17 -17 -18 -20 -21 -22 -24 -24 -24 -23 -23 -24 -25 -25 -25 -25 -25 -25 -25
-13 -13 -13 -13 -14 -13 -13 -13 -14 -14 -14 -14 -15 -15 -15 -16 -16 -17 -17 -17 -17 -17 -17 -18 -19 -20 -21 -22 -24 -25 -24 -24 -24 -25 -25 -25 -25 -26 -26 -26 -26 -26 -26
-14 -14 -14 -14 -14 -14 -14 -14 -14 -14 -14 -15 -16 -16 -17 -17 -17 -17 -18 -18 -18 -18 -19 -20 -21 -22 -23 -25 -25 -25 -24 -24 -25 -26 -26 -26 -26 -26 -27 -27 -27 -26 -26
-14 -14 -14 -14 -14 -14 -14 -14 -15 -15 -16 -16 -17 -17 -17 -17 -18 -18 -18 -18 -19 -20 -20 -21 -23 -25 -26 -26 -25 -25 -25 -26 -26 -26 -26 -26 -26 -28 -27 -27 -27 -26 -26
-14 -14 -14 -15 -15 -14 -15 -15 -15 -16 -17 -17 -17 -17 -17 -18 -18 -18 -19 -20 -20 -22 -22 -24 -26 -26 -26 -26 -25 -25 -26 -27 -27 -28 -27 -27 -27 -28 -28 -27 -27 -28 -28
-14 -15 -15 -15 -15 -15 -15 -16 -16 -17 -17 -17 -17 -18 -18 -18 -19 -19 -20 -21 -22 -23 -25 -26 -26 -26 -26 -26 -25 -26 -26 -27 -28 -28 -28 -28 -28 -28 -28 -27 -28 -28 -29
-15 -15 -15 -15 -15 -16 -16 -17 -17 -17 -17 -18 -18 -18 -19 -19 -20 -21 -22 -23 -24 -26 -27 -27 -27 -26 -26 -26 -27 -27 -27 -28 -28 -28 -29 -29 -29 -28 -28 -28 -29 -29 -30
-15 -16 -16 -16 -16 -16 -17 -17 -17 -18 -18 -18 -18 -19 -19 -20 -21 -23 -24 -25 -26 -27 -27 -27 -27 -27 -26 -28 -27 -27 -27 -27 -28 -28 -29 -29 -28 -29 -29 -29 -29 -29 -30
-16 -16 -16 -16 -17 -17 -17 -17 -18 -18 -18 -19 -19 -20 -21 -22 -23 -25 -26 -27 -27 -27 -27 -27 -27 -27 -27 -27 -27 -27 -28 -28 -28 -28 -28 -28 -28 -29 -29 -29 -28 -28 -28
-16 -16 -17 -17 -17 -17 -18 -18 -18 -18 -19 -19 -20 -20 -22 -24 -26 -27 -27 -27 -28 -27 -27 -27 -27 -27 -27 -27 -27 -27 -27 -28 -28 -28 -28 -28 -28 -28 -28 -28 -27 -27 -27
-16 -17 -17 -17 -18 -18 -18 -18 -19 -19 -20 -20 -21 -22 -24 -26 -27 -28 -28 -28 -27 -27 -27 -27 -28 -28 -27 -27 -27 -27 -27 -27 -27 -28 -28 -27 -27 -27 -27 -27 -27 -26 -26
-17 -17 -17 -18 -18 -18 -19 -19 -19 -20 -20 -21 -23 -25 -26 -28 -28 -28 -28 -27 -27 -27 -27 -28 -28 -28 -27 -27 -27 -27 -27 -27 -27 -27 -27 -26 -26 -25 -25 -25 -25 -25 -25
-17 -17 -18 -18 -18 -19 -19 -19 -20 -21 -21 -24 -26 -27 -28 -28 -28 -28 -27 -27 -27 -28 -28 -28 -28 -27 -27 -27 -27 -27 -27 -27 -27 -27 -26 -26 -25 -24 -24 -24 -24 -24 -24
-17 -18 -18 -18 -19 -19 -19 -20 -21 -22 -24 -26 -27 -28 -28 -28 -28 -28 -27 -28 -29 -29 -29 -28 -28 -27 -27 -27 -27 -27 -27 -27 -27 -26 -25 -24 -24 -24 -24 -24 -24 -24 -24
-18 -18 -18 -19 -19 -19 -20 -21 -22 -23 -26 -27 -28 -28 -28 -28 -28 -28 -28 -29 -29 -29 -28 -28 -28 -27 -27 -27 -27 -27 -27 -27 -26 -26 -26 -25 -25 -24 -24 -25 -24 -24 -24
-18 -18 -19 -19 -20 -20 -21 -22 -23 -25 -27 -28 -28 -28 -28 -28 -28 -29 -29 -29 -28 -28 -28 -28 -28 -27 -27 -27 -27 -26 -26 -26 -26 -26 -26 -26 -25 -25 -25 -25 -24 -24 -24
-19 -19 -19 -20 -21 -21 -22 -23 -26 -27 -28 -28 -28 -28 -28 -29 -30 -30 -29 -28 -28 -28 -28 -28 -27 -27 -27 -27 -26 -26 -26 -26 -26 -26 -26 -25 -25 -25 -24 -24 -24 -24 -24
-19 -19 -20 -21 -21 -22 -23 -25 -27 -28 -28 -28 -28 -28 -29 -30 -30 -29 -29 -28 -28 -28 -27 -27 -27 -27 -27 -26 -26 -26 -27 -26 -26 -26 -26 -26 -26 -26 -25 -25 -25 -25 -25
-19 -20 -21 -22 -22 -24 -25 -27 -28 -28 -28 -28 -29 -30 -30 -30 -29 -29 -29 -28 -28 -27 -27 -27 -27 -27 -26 -26 -26 -27 -26 -26 -27 -26 -26 -26 -26 -26 -25 -25 -25 -25 -25
-20 -21 -22 -22 -24 -25 -27 -28 -28 -28 -28 -29 -29 -29 -30 -29 -29 -29 -28 -28 -27 -27 -27 -27 -27 -26 -27 -27 -26 -26 -27 -27 -27 -27 -27 -26 -26 -26 -26 -26 -25 -25 -25
-21 -22 -23 -24 -25 -27 -28 -29 -28 -29 -29 -29 -29 -29 -29 -29 -28 -28 -28 -27 -27 -27 -27 -26 -26 -26 -26 -26 -27 -27 -27 -27 -27 -27 -27 -27 -27 -27 -27 -27 -27 -27 -26
-22 -23 -24 -25 -27 -28 -29 -28 -29 -29 -29 -29 -29 -29 -29 -28 -28 -28 -27 -27 -27 -27 -26 -26 -26 -26 -26 -26 -27 -27 -27 -27 -27 -27 -27 -27 -27 -27 -27 -27 -28 -28 -28
-23 -24 -25 -27 -28 -29 -29 -29 -29 -29 -29 -29 -29 -29 -28 -28 -28 -27 -27 -27 -26 -26 -26 -26 -26 -26 -26 -26 -27 -27 -27 -27 -27 -27 -27 -27 -27 -27 -28 -28 -28 -29 -29
-25 -26 -28 -29 -29 -29 -29 -29 -29 -29 -30 -29 -29 -28 -28 -28 -27 -26 -26 -26 -26 -25 -26 -26 -26 -26 -26 -26 -27 -27 -27 -27 -28 -28 -28 -27 -28 -28 -28 -28 -28 -28 -29

GFSGL_500_temp_024.txt.gz
Temp
-13 -13 -13 -13 -13 -13 -13 -13 -13 -13 -13 -13 -13 -13 -13 -13 -14 -14 -14 -15 -15 -16 -16 -16 -16 -16 -16 -16 -17 -17 -18 -20 -20 -19 -20 -21 -21 -22 -23 -24 -23 -24 -24
-13 -13 -13 -13 -13 -13 -14 -14 -14 -14 -14 -14 -14 -14 -14 -14 -15 -15 -15 -16 -16 -17 -17 -16 -16 -17 -17 -17 -18 -19 -20 -22 -23 -23 -22 -23 -24 -24 -24 -23 -24 -25 -25
-13 -13 -14 -14 -14 -14 -14 -14 -14 -14 -14 -14 -14 -14 -15 -15 -15 -16 -16 -17 -17 -17 -17 -17 -17 -18 -18 -19 -20 -22 -23 -24 -25 -25 -25 -25 -25 -24 -24 -25 -25 -25 -26
-14 -14 -14 -14 -14 -14 -14 -14 -14 -14 -15 -15 -15 -15 -16 -16 -17 -17 -17 -17 -17 -17 -17 -18 -18 -19 -20 -22 -23 -24 -25 -25 -26 -26 -25 -25 -25 -26 -26 -26 -26 -26 -26
-14 -14 -14 -15 -14 -14 -14 -14 -15 -15 -15 -15 -16 -16 -17 -17 -17 -17 -17 -17 -17 -18 -18 -19 -20 -21 -23 -24 -25 -26 -26 -26 -26 -26 -25 -25 -26 -27 -27 -27 -26 -26 -26
-15 -15 -15 -15 -14 -15 -15 -15 -15 -15 -16 -16 -16 -17 -17 -17 -17 -17 -18 -18 -18 -19 -19 -20 -22 -24 -25 -26 -27 -27 -27 -26 -26 -26 -26 -27 -27 -27 -27 -28 -27 -27 -27
-15 -15 -15 -15 -15 -15 -15 -15 -15 -16 -16 -17 -17 -17 -17 -17 -18 -18 -19 -19 -20 -20 -21 -23 -24 -26 -27 -27 -27 -27 -26 -26 -27 -28 -27 -28 -27 -28 -27 -28 -28 -28 -28
-15 -15 -15 -15 -15 -16 -16 -16 -16 -17 -17 -17 -17 -17 -17 -18 -19 -19 -19 -20 -21 -22 -24 -25 -27 -27 -27 -27 -26 -26 -26 -27 -27 -27 -28 -28 -28 -28 -28 -27 -28 -29 -30
-15 -15 -15 -16 -16 -16 -16 -17 -17 -17 -17 -17 -17 -18 -18 -18 -19 -20 -20 -21 -22 -24 -26 -27 -27 -27 -27 -27 -27 -26 -26 -27 -27 -28 -28 -28 -28 -28 -28 -27 -28 -28 -30
-16 -16 -16 -16 -16 -16 -17 -17 -17 -17 -17 -18 -18 -18 -19 -19 -20 -21 -22 -23 -25 -26 -27 -27 -27 -27 -27 -27 -27 -27 -27 -27 -27 -28 -28 -28 -28 -28 -28 -27 -27 -27 -28
-16 -16 -16 -16 -16 -17 -17 -17 -17 -17 -18 -18 -19 -19 -19 -20 -21 -22 -24 -26 -27 -27 -27 -27 -27 -27 -28 -28 -29 -28 -27 -27 -27 -27 -27 -28 -28 -28 -28 -27 -27 -27 -27
-16 -16 -16 -16 -17 -17 -17 -17 -18 -18 -18 -19 -19 -19 -20 -21 -22 -24 -26 -27 -28 -27 -27 -27 -28 -29 -29 -29 -28 -28 -27 -27 -27 -27 -27 -27 -27 -27 -27 -26 -26 -26 -26
-16 -17 -17 -17 -17 -17 -18 -18 -18 -19 -19 -20 -20 -20 -21 -22 -25 -27 -27 -27 -27 -27 -28 -29 -29 -29 -29 -28 -28 -27 -27 -26 -27 -27 -27 -27 -26 -25 -25 -25 -25 -25 -25
-17 -17 -17 -17 -17 -18 -18 -18 -19 -19 -20 -20 -20 -21 -22 -24 -26 -27 -27 -27 -27 -28 -29 -29 -29 -28 -28 -28 -28 -27 -27 -27 -27 -27 -26 -25 -25 -25 -25 -24 -24 -24 -25
-17 -17 -17 -18 -18 -18 -18 -19 -19 -20 -20 -21 -21 -22 -24 -26 -27 -27 -27 -28 -29 -29 -29 -28 -28 -28 -28 -28 -27 -27 -27 -27 -27 -27 -26 -26 -25 -25 -25 -25 -25 -25 -25
-17 -17 -18 -18 -18 -18 -19 -19 -20 -21 -21 -22 -23 -25 -27 -27 -28 -28 -29 -29 -29 -29 -28 -28 -28 -28 -27 -27 -27 -27 -27 -27 -27 -27 -26 -26 -26 -26 -25 -25 -25 -25 -25
-18 -18 -18 -18 -18 -19 -19 -19 -20 -21 -22 -23 -25 -27 -27 -28 -28 -29 -29 -29 -29 -28 -28 -28 -27 -27 -27 -27 -27 -27 -27 -27 -26 -26 -26 -26 -26 -25 -25 -25 -25 -25 -24
-18 -18 -18 -18 -19 -19 -20 -20 -21 -22 -23 -24 -26 -27 -28 -28 -29 -29 -29 -29 -29 -29 -28 -27 -27 -27 -27 -27 -27 -27 -27 -27 -27 -26 -26 -26 -26 -25 -25 -25 -25 -24 -24
-18 -18 -19 -19 -19 -20 -20 -21 -22 -23 -24 -26 -27 -28 -28 -29 -29 -29 -29 -29 -28 -28 -28 -27 -27 -27 -27 -27 -27 -27 -27 -27 -27 -26 -26 -26 -26 -26 -25 -25 -25 -24 -24
-18 -18 -19 -19 -20 -21 -22 -23 -24 -24 -26 -27 -28 -28 -28 -28 -29 -29 -28 -28 -28 -28 -27 -27 -27 -27 -27 -27 -27 -27 -27 -27 -27 -27 -26 -26 -26 -26 -26 -26 -25 -25 -25
-19 -19 -19 -20 -21 -22 -23 -24 -25 -26 -28 -28 -28 -28 -28 -28 -28 -28 -28 -28 -28 -27 -27 -27 -27 -27 -27 -27 -27 -27 -27 -27 -27 -27 -27 -27 -27 -26 -26 -26 -26 -25 -25
-19 -19 -20 -21 -22 -23 -24 -25 -26 -28 -28 -28 -28 -28 -28 -28 -28 -28 -27 -27 -27 -27 -27 -27 -27 -27 -27 -27 -27 -27 -28 -28 -28 -27 -27 -27 -27 -27 -27 -27 -27 -27 -26
-20 -20 -21 -22 -23 -24 -25 -27 -28 -28 -28 -28 -28 -28 -28 -28 -28 -27 -27 -27 -27 -26 -27 -27 -27 -27 -27 -27 -27 -28 -28 -28 -28 -27 -27 -27 -27 -27 -28 -28 -28 -28 -27
-20 -21 -22 -23 -24 -25 -27 -28 -28 -28 -28 -29 -29 -29 -28 -28 -27 -27 -27 -26 -26 -26 -26 -26 -26 -26 -27 -27 -28 -28 -28 -28 -28 -28 -28 -28 -27 -28 -28 -28 -29 -29 -29
-21 -22 -24 -24 -25 -27 -28 -28 -28 -28 -29 -29 -29 -29 -28 -27 -27 -26 -26 -26 -26 -26 -26 -26 -26 -26 -27 -27 -27 -27 -27 -27 -28 -28 -28 -28 -28 -28 -28 -29 -29 -29 -29
-23 -24 -25 -26 -27 -28 -28 -28 -28 -29 -29 -29 -29 -28 -28 -27 -26 -26 -26 -26 -26 -25 -25 -25 -25 -26 -26 -27 -27 -27 -27 -27 -27 -28 -28 -28 -28 -28 -28 -28 -29 -29 -28

GFSGL_500_temp_027.txt.gz
Temp
-12 -12 -13 -13 -14 -14 -14 -14 -14 -14 -14 -14 -14 -14 -14 -14 -14 -14 -14 -15 -16 -16 -16 -16 -16 -16 -16 -16 -16 -17 -17 -18 -18 -17 -19 -19 -20 -21 -23 -24 -25 -25 -25
-13 -13 -14 -14 -14 -14 -14 -14 -14 -15 -15 -14 -14 -14 -14 -14 -15 -15 -15 -16 -16 -16 -17 -16 -16 -16 -16 -17 -17 -17 -19 -20 -21 -21 -21 -22 -23 -24 -25 -25 -25 -25 -25
-13 -13 -14 -14 -14 -15 -15 -15 -15 -15 -15 -15 -14 -15 -15 -15 -16 -16 -16 -16 -17 -17 -16 -16 -16 -17 -17 -18 -18 -19 -21 -22 -24 -25 -24 -25 -25 -25 -25 -25 -25 -26 -27
-13 -14 -15 -15 -15 -15 -15 -15 -15 -15 -15 -15 -15 -15 -16 -16 -16 -17 -17 -17 -17 -17 -17 -17 -18 -18 -18 -19 -20 -22 -24 -25 -26 -26 -26 -26 -26 -26 -25 -26 -26 -27 -27
-15 -15 -15 -16 -15 -15 -15 -15 -15 -15 -15 -15 -16 -16 -16 -17 -17 -17 -17 -17 -17 -17 -18 -18 -19 -19 -20 -22 -24 -25 -26 -27 -27 -27 -26 -26 -26 -26 -26 -26 -27 -27 -28
-15 -15 -16 -16 -16 -16 -15 -16 -15 -16 -16 -16 -16 -17 -17 -17 -17 -17 -17 -17 -18 -18 -19 -19 -20 -21 -23 -25 -26 -27 -27 -27 -27 -27 -26 -26 -27 -27 -27 -27 -27 -28 -28
-15 -16 -16 -16 -16 -16 -16 -16 -16 -16 -16 -17 -17 -17 -17 -17 -17 -18 -18 -18 -19 -19 -20 -21 -22 -24 -25 -26 -27 -27 -27 -27 -27 -27 -28 -28 -27 -27 -27 -27 -27 -28 -29
-16 -16 -16 -16 -16 -16 -16 -16 -16 -17 -17 -17 -17 -17 -17 -18 -18 -18 -18 -19 -19 -20 -21 -22 -24 -25 -26 -27 -27 -27 -27 -28 -29 -29 -28 -27 -27 -27 -27 -26 -27 -27 -27
-16 -16 -16 -16 -16 -16 -16 -16 -17 -17 -17 -17 -17 -18 -18 -18 -18 -19 -19 -19 -20 -22 -23 -25 -26 -26 -26 -27 -27 -28 -28 -29 -28 -29 -28 -28 -27 -27 -27 -27 -27 -26 -27
-16 -16 -16 -16 -16 -17 -17 -17 -17 -17 -17 -17 -18 -18 -18 -18 -19 -20 -20 -21 -22 -23 -26 -26 -26 -27 -28 -29 -29 -28 -28 -28 -28 -28 -28 -28 -28 -28 -27 -27 -26 -26 -26
-16 -16 -16 -17 -17 -17 -17 -17 -17 -17 -18 -18 -18 -18 -19 -19 -20 -20 -22 -23 -25 -26 -26 -27 -28 -29 -29 -29 -28 -28 -28 -28 -28 -28 -27 -27 -27 -27 -27 -26 -26 -25 -25
-16 -16 -17 -17 -17 -17 -17 -17 -17 -18 -18 -18 -18 -19 -19 -20 -21 -22 -23 -25 -27 -27 -28 -29 -29 -28 -28 -28 -28 -28 -27 -27 -27 -27 -27 -27 -27 -26 -26 -25 -25 -25 -25
-17 -17 -17 -17 -17 -17 -17 -17 -18 -18 -18 -18 -18 -19 -20 -21 -22 -23 -25 -27 -27 -28 -28 -29 -28 -28 -27 -28 -27 -27 -27 -27 -27 -27 -27 -27 -26 -26 -26 -26 -26 -26 -25
-17 -17 -17 -17 -17 -17 -18 -18 -18 -18 -18 -19 -19 -20 -20 -22 -23 -24 -27 -26 -27 -28 -28 -28 -28 -27 -27 -27 -27 -27 -27 -27 -27 -27 -27 -27 -26 -26 -26 -26 -25 -26 -26
-17 -17 -17 -17 -18 -18 -18 -18 -18 -19 -19 -19 -20 -21 -22 -23 -24 -26 -27 -27 -28 -28 -28 -28 -27 -27 -27 -27 -27 -27 -27 -27 -27 -27 -27 -27 -26 -26 -26 -25 -25 -25 -25
-18 -18 -18 -18 -18 -18 -18 -19 -19 -19 -20 -21 -22 -23 -23 -25 -27 -27 -27 -28 -28 -28 -28 -28 -27 -27 -27 -27 -27 -27 -27 -27 -27 -27 -26 -26 -26 -26 -26 -25 -25 -25 -25
-18 -18 -18 -18 -19 -19 -19 -19 -19 -20 -21 -22 -23 -23 -25 -27 -27 -27 -28 -28 -28 -28 -28 -27 -27 -27 -27 -27 -27 -27 -27 -27 -27 -26 -26 -26 -26 -26 -26 -25 -25 -25 -25
-18 -18 -18 -19 -19 -19 -19 -19 -20 -20 -21 -23 -24 -25 -27 -27 -28 -28 -28 -28 -28 -28 -27 -27 -27 -27 -27 -27 -27 -27 -27 -27 -27 -27 -26 -26 -26 -26 -26 -25 -25 -25 -25
-18 -19 -19 -19 -19 -19 -19 -20 -20 -21 -23 -24 -25 -27 -27 -28 -28 -28 -28 -27 -27 -27 -27 -27 -27 -27 -27 -27 -27 -27 -27 -27 -27 -27 -27 -27 -26 -26 -26 -26 -26 -25 -25
-19 -19 -19 -19 -19 -19 -20 -21 -21 -23 -24 -25 -26 -27 -27 -27 -28 -28 -28 -27 -27 -26 -27 -27 -27 -27 -27 -27 -27 -27 -27 -28 -27 -27 -27 -27 -27 -26 -26 -26 -26 -26 -25
-19 -19 -19 -19 -19 -20 -21 -21 -23 -24 -25 -26 -27 -27 -28 -28 -28 -28 -27 -27 -27 -27 -27 -27 -27 -27 -27 -27 -27 -27 -27 -27 -27 -27 -27 -27 -27 -27 -27 -27 -27 -26 -26
-19 -19 -19 -19 -20 -21 -22 -23 -23 -25 -26 -27 -27 -28 -28 -28 -28 -27 -27 -26 -26 -26 -27 -27 -27 -27 -27 -27 -27 -28 -28 -28 -28 -28 -28 -28 -27 -27 -28 -28 -28 -27 -27
-19 -19 -19 -20 -21 -22 -23 -24 -25 -26 -27 -27 -28 -28 -28 -28 -27 -27 -26 -26 -26 -26 -26 -26 -26 -27 -27 -27 -27 -27 -27 -28 -28 -28 -28 -28 -28 -28 -29 -29 -29 -28 -28
-19 -19 -20 -21 -22 -23 -24 -25 -27 -27 -27 -28 -28 -29 -28 -28 -27 -26 -26 -26 -26 -26 -26 -26 -26 -27 -27 -27 -28 -28 -28 -28 -28 -29 -28 -28 -28 -28 -29 -29 -29 -29 -29
-20 -21 -21 -22 -23 -24 -26 -27 -27 -27 -28 -28 -28 -28 -28 -27 -26 -26 -26 -26 -25 -25 -25 -26 -26 -27 -27 -27 -27 -27 -27 -28 -28 -29 -28 -28 -28 -29 -29 -29 -28 -28 -28
-21 -21 -22 -23 -24 -26 -27 -27 -27 -27 -28 -28 -28 -27 -27 -27 -26 -26 -26 -25 -25 -25 -26 -26 -26 -26 -25 -26 -26 -27 -28 -28 -28 -28 -28 -28 -28 -28 -28 -28 -28 -28 -28

GFSGL_500_temp_030.txt.gz
Temp
-12 -12 -12 -12 -13 -13 -14 -14 -14 -14 -15 -15 -15 -15 -15 -15 -15 -15 -15 -15 -16 -16 -16 -16 -16 -17 -17 -17 -17 -17 -17 -17 -17 -17 -17 -18 -18 -19 -21 -22 -23 -25 -25
-12 -12 -12 -13 -13 -14 -15 -15 -15 -15 -15 -15 -15 -16 -15 -16 -15 -15 -15 -16 -16 -16 -17 -17 -17 -17 -17 -17 -17 -17 -18 -18 -19 -19 -19 -21 -22 -24 -25 -25 -26 -26 -26
-13 -13 -13 -14 -14 -15 -15 -15 -15 -15 -16 -16 -16 -16 -16 -15 -15 -16 -16 -16 -17 -17 -17 -18 -18 -17 -17 -18 -18 -19 -19 -20 -21 -23 -24 -25 -25 -26 -25 -26 -26 -25 -25
-13 -13 -14 -14 -15 -15 -15 -15 -16 -16 -16 -16 -16 -16 -16 -16 -16 -16 -16 -17 -17 -18 -18 -18 -18 -18 -18 -19 -19 -20 -21 -23 -25 -26 -26 -26 -26 -26 -25 -25 -25 -26 -27
-14 -14 -14 -15 -15 -15 -16 -16 -16 -16 -16 -16 -16 -16 -16 -17 -17 -17 -17 -17 -17 -18 -18 -18 -18 -19 -19 -20 -21 -23 -25 -25 -26 -26 -26 -27 -27 -27 -28 -27 -27 -27 -27
-14 -15 -15 -15 -16 -16 -16 -16 -16 -16 -17 -16 -16 -16 -17 -17 -17 -17 -17 -17 -18 -18 -18 -18 -19 -20 -21 -21 -24 -25 -26 -27 -28 -28 -28 -28 -28 -28 -27 -27 -27 -27 -27
-15 -15 -16 -16 -16 -16 -16 -17 -17 -17 -16 -17 -17 -17 -17 -17 -18 -17 -18 -18 -18 -18 -19 -20 -20 -21 -22 -24 -25 -26 -27 -29 -29 -29 -28 -28 -27 -27 -27 -27 -27 -27 -27
-15 -16 -16 -16 -16 -17 -17 -16 -16 -17 -17 -17 -17 -17 -18 -18 -17 -18 -18 -18 -19 -19 -20 -21 -22 -23 -25 -26 -27 -27 -28 -28 -28 -28 -28 -27 -27 -27 -27 -27 -26 -26 -26
-16 -16 -16 -16 -16 -16 -16 -16 -17 -17 -17 -17 -18 -18 -18 -18 -18 -18 -18 -19 -19 -20 -21 -22 -25 -25 -26 -27 -27 -27 -28 -28 -28 -28 -27 -27 -28 -28 -27 -26 -26 -25 -26
-16 -16 -16 -16 -16 -16 -17 -17 -17 -17 -18 -18 -18 -18 -18 -18 -18 -18 -19 -19 -21 -21 -23 -25 -26 -27 -28 -28 -27 -27 -27 -27 -27 -28 -28 -28 -28 -27 -26 -26 -25 -25 -25
-16 -16 -16 -16 -17 -17 -17 -17 -18 -18 -18 -18 -18 -18 -18 -18 -19 -19 -20 -21 -22 -23 -25 -26 -27 -27 -28 -27 -27 -27 -27 -27 -27 -27 -27 -27 -27 -27 -27 -27 -26 -26 -26
-16 -16 -17 -17 -17 -17 -18 -18 -18 -18 -18 -18 -18 -18 -19 -19 -20 -20 -22 -22 -24 -25 -26 -27 -27 -27 -27 -27 -27 -27 -27 -27 -27 -27 -27 -27 -27 -27 -27 -27 -26 -26 -26
-17 -17 -17 -17 -18 -18 -18 -18 -18 -18 -18 -18 -18 -18 -19 -20 -20 -21 -22 -24 -25 -26 -27 -28 -27 -27 -27 -27 -27 -27 -27 -27 -27 -27 -27 -27 -27 -27 -27 -27 -27 -26 -26
-17 -17 -17 -18 -18 -18 -18 -18 -18 -18 -18 -18 -19 -19 -19 -21 -21 -22 -23 -25 -26 -26 -27 -27 -27 -27 -26 -26 -26 -26 -26 -26 -27 -27 -27 -27 -26 -26 -26 -26 -26 -26 -26
-18 -18 -18 -18 -18 -18 -18 -18 -18 -19 -19 -19 -19 -19 -21 -21 -22 -23 -25 -26 -26 -27 -27 -27 -27 -27 -27 -27 -26 -27 -27 -27 -27 -27 -27 -26 -26 -26 -26 -26 -26 -26 -26
-18 -18 -18 -19 -18 -18 -18 -19 -19 -19 -19 -19 -20 -21 -22 -23 -24 -25 -26 -26 -27 -27 -27 -27 -27 -26 -26 -27 -27 -27 -27 -27 -27 -27 -27 -26 -26 -26 -26 -26 -25 -26 -26
-19 -19 -19 -18 -18 -18 -19 -19 -18 -19 -20 -21 -22 -22 -23 -25 -26 -26 -26 -27 -27 -27 -27 -26 -26 -26 -27 -27 -27 -27 -27 -27 -27 -27 -27 -27 -26 -26 -25 -26 -25 -26 -26
-19 -19 -18 -18 -18 -19 -19 -19 -19 -19 -20 -21 -22 -23 -24 -26 -27 -26 -27 -27 -27 -27 -26 -26 -26 -26 -27 -27 -27 -27 -28 -28 -28 -28 -27 -27 -27 -26 -26 -25 -25 -26 -26
-19 -19 -18 -19 -19 -19 -19 -19 -19 -20 -21 -22 -23 -25 -26 -27 -27 -27 -27 -27 -27 -27 -26 -26 -26 -27 -27 -27 -27 -27 -28 -28 -28 -28 -27 -27 -27 -27 -26 -26 -26 -26 -26
-19 -19 -19 -19 -19 -19 -19 -20 -21 -21 -23 -23 -25 -26 -26 -27 -27 -28 -27 -27 -27 -26 -26 -26 -27 -27 -27 -27 -27 -28 -28 -28 -28 -28 -28 -28 -27 -27 -27 -28 -27 -26 -26
-19 -19 -19 -19 -19 -19 -20 -21 -22 -23 -24 -25 -26 -27 -26 -27 -27 -27 -27 -26 -26 -26 -26 -26 -27 -27 -27 -28 -28 -28 -28 -28 -28 -28 -28 -28 -28 -28 -28 -28 -28 -27 -27
-19 -19 -19 -19 -19 -20 -21 -22 -22 -24 -25 -26 -27 -27 -27 -27 -27 -27 -26 -26 -26 -26 -26 -26 -26 -27 -27 -28 -28 -28 -28 -28 -28 -29 -28 -28 -28 -29 -29 -29 -29 -28 -28
-19 -19 -19 -20 -20 -21 -22 -22 -24 -25 -26 -27 -27 -27 -27 -27 -27 -26 -26 -26 -26 -26 -26 -26 -27 -27 -27 -27 -27 -27 -28 -28 -29 -29 -28 -29 -29 -29 -29 -29 -29 -29 -28
-19 -20 -20 -20 -21 -22 -22 -24 -25 -26 -27 -27 -27 -27 -27 -27 -26 -26 -26 -25 -26 -26 -26 -26 -25 -26 -26 -27 -27 -28 -28 -28 -29 -29 -29 -29 -28 -29 -29 -29 -29 -29 -29
-20 -20 -21 -21 -22 -22 -24 -25 -26 -27 -27 -27 -27 -27 -27 -26 -26 -26 -25 -25 -25 -25 -25 -25 -25 -25 -26 -27 -27 -28 -28 -28 -28 -28 -28 -28 -28 -29 -29 -29 -29 -29 -29
-20 -21 -22 -22 -23 -24 -25 -26 -27 -27 -27 -27 -27 -27 -27 -26 -26 -25 -26 -25 -25 -25 -25 -25 -25 -25 -26 -26 -27 -28 -29 -28 -28 -28 -28 -28 -28 -29 -29 -29 -29 -29 -29

GFSGL_500_temp_033.txt.gz
Temp
-12 -12 -12 -12 -12 -12 -13 -13 -13 -14 -14 -15 -15 -15 -15 -16 -16 -16 -16 -16 -16 -16 -16 -16 -17 -17 -17 -17 -17 -17 -17 -18 -17 -17 -17 -18 -19 -20 -21 -22 -23 -24 -24
-12 -12 -13 -13 -13 -13 -13 -14 -14 -14 -15 -15 -15 -16 -16 -16 -16 -16 -16 -16 -16 -16 -17 -17 -17 -17 -17 -17 -18 -18 -18 -18 -19 -19 -20 -21 -23 -23 -23 -24 -25 -26 -26
-13 -13 -13 -13 -14 -14 -14 -14 -15 -15 -15 -16 -16 -16 -16 -16 -16 -16 -16 -17 -17 -17 -17 -17 -18 -17 -18 -18 -17 -18 -18 -19 -20 -22 -23 -24 -24 -26 -26 -27 -27 -28 -28
-13 -13 -13 -14 -14 -14 -14 -15 -15 -16 -16 -16 -16 -17 -16 -16 -17 -17 -17 -17 -17 -18 -18 -18 -18 -18 -18 -18 -18 -19 -19 -21 -23 -25 -25 -25 -27 -27 -27 -27 -27 -28 -28
-13 -13 -14 -14 -14 -15 -15 -16 -16 -16 -16 -16 -17 -17 -17 -17 -17 -17 -17 -18 -18 -18 -18 -18 -18 -18 -18 -19 -19 -20 -22 -24 -25 -26 -27 -27 -27 -27 -27 -27 -27 -27 -27
-13 -14 -15 -15 -15 -15 -16 -16 -16 -16 -16 -16 -17 -17 -17 -17 -17 -18 -18 -18 -18 -18 -18 -18 -18 -19 -19 -19 -21 -23 -25 -26 -27 -27 -27 -26 -26 -26 -27 -27 -27 -27 -27
-14 -15 -15 -15 -16 -16 -16 -16 -17 -16 -17 -17 -17 -17 -17 -18 -18 -18 -18 -18 -18 -18 -18 -19 -19 -20 -20 -22 -24 -25 -26 -27 -27 -26 -26 -26 -26 -27 -27 -27 -26 -26 -26
-15 -15 -15 -16 -16 -16 -16 -17 -17 -17 -17 -17 -17 -18 -18 -18 -18 -18 -18 -18 -18 -18 -19 -20 -20 -21 -23 -24 -25 -26 -27 -27 -27 -27 -27 -27 -26 -27 -26 -26 -26 -26 -27
-15 -16 -16 -16 -16 -16 -17 -17 -17 -17 -17 -18 -18 -18 -18 -18 -18 -18 -18 -18 -18 -19 -20 -21 -21 -23 -24 -25 -26 -26 -26 -27 -27 -27 -27 -27 -27 -27 -26 -26 -26 -26 -27
-16 -16 -16 -17 -16 -17 -17 -17 -17 -18 -18 -18 -18 -18 -18 -18 -18 -18 -18 -19 -19 -20 -21 -22 -24 -25 -26 -26 -26 -26 -26 -26 -27 -27 -27 -27 -27 -27 -26 -26 -26 -26 -26
-16 -16 -16 -17 -17 -17 -17 -17 -18 -18 -18 -18 -18 -19 -18 -18 -18 -19 -19 -20 -20 -21 -22 -24 -25 -26 -26 -27 -26 -26 -26 -26 -27 -27 -27 -27 -27 -27 -27 -27 -26 -26 -26
-16 -16 -17 -17 -17 -17 -18 -18 -18 -18 -18 -18 -18 -18 -18 -18 -19 -19 -20 -21 -22 -23 -24 -25 -26 -26 -26 -26 -26 -26 -26 -26 -26 -27 -26 -26 -27 -27 -27 -26 -26 -27 -26
-17 -17 -17 -17 -17 -18 -18 -18 -18 -18 -19 -18 -18 -18 -18 -19 -20 -20 -21 -22 -23 -25 -25 -26 -26 -26 -26 -26 -26 -26 -26 -26 -26 -27 -27 -27 -26 -26 -26 -26 -26 -26 -26
-17 -17 -17 -18 -18 -18 -19 -19 -19 -19 -19 -18 -18 -18 -19 -19 -20 -20 -22 -23 -24 -25 -26 -26 -26 -26 -26 -26 -26 -26 -26 -26 -26 -26 -26 -26 -26 -26 -25 -25 -26 -26 -26
-17 -18 -18 -18 -18 -19 -19 -19 -19 -19 -18 -18 -18 -19 -19 -20 -20 -21 -23 -25 -25 -26 -26 -27 -26 -26 -26 -26 -26 -26 -26 -26 -27 -27 -27 -27 -27 -26 -26 -25 -26 -26 -26
-18 -18 -18 -19 -19 -19 -19 -19 -19 -19 -19 -19 -19 -19 -20 -21 -22 -23 -25 -26 -26 -26 -27 -26 -26 -26 -26 -26 -27 -27 -27 -27 -27 -27 -27 -27 -27 -27 -26 -26 -26 -26 -26
-18 -18 -19 -19 -19 -19 -19 -19 -19 -19 -19 -19 -20 -21 -21 -22 -24 -25 -26 -26 -26 -27 -26 -26 -26 -26 -27 -27 -27 -27 -27 -27 -28 -28 -28 -27 -27 -27 -26 -26 -26 -26 -26
-19 -19 -19 -19 -19 -19 -19 -19 -19 -19 -19 -20 -21 -21 -22 -24 -26 -26 -26 -27 -27 -26 -26 -26 -26 -27 -26 -27 -27 -27 -28 -28 -28 -28 -28 -28 -28 -27 -27 -27 -27 -26 -26
-19 -19 -19 -19 -19 -19 -19 -19 -19 -19 -20 -21 -21 -22 -24 -26 -26 -26 -27 -27 -26 -26 -26 -26 -26 -26 -26 -27 -27 -27 -27 -28 -28 -28 -28 -28 -28 -28 -28 -27 -27 -27 -27
-19 -19 -19 -19 -19 -19 -19 -19 -20 -20 -21 -21 -22 -24 -25 -26 -27 -27 -27 -26 -26 -26 -26 -26 -26 -26 -27 -27 -27 -28 -28 -28 -28 -28 -29 -29 -28 -29 -29 -29 -29 -28 -27
-20 -19 -19 -19 -19 -19 -19 -20 -20 -21 -21 -22 -24 -26 -26 -26 -27 -27 -27 -26 -26 -26 -26 -26 -26 -27 -27 -27 -28 -28 -28 -28 -29 -29 -29 -29 -29 -29 -29 -29 -29 -29 -28
-20 -19 -19 -19 -19 -20 -20 -21 -21 -21 -22 -24 -26 -26 -26 -27 -27 -26 -26 -26 -26 -26 -26 -26 -26 -26 -26 -27 -28 -28 -28 -29 -29 -29 -29 -29 -29 -29 -29 -29 -29 -29 -28
-20 -19 -20 -20 -20 -20 -21 -22 -22 -23 -24 -26 -26 -26 -26 -27 -27 -26 -26 -26 -25 -25 -25 -25 -26 -26 -26 -28 -28 -29 -29 -29 -29 -29 -29 -29 -29 -29 -29 -29 -28 -29 -29
-20 -20 -20 -20 -21 -21 -22 -22 -23 -24 -26 -26 -27 -27 -27 -27 -26 -26 -26 -25 -25 -25 -25 -25 -26 -26 -27 -28 -28 -29 -29 -29 -28 -29 -29 -29 -29 -29 -29 -29 -29 -29 -29
-20 -20 -20 -21 -22 -22 -22 -23 -25 -26 -27 -27 -27 -27 -27 -26 -26 -26 -26 -25 -25 -25 -25 -25 -26 -26 -27 -27 -28 -28 -28 -28 -28 -28 -29 -29 -29 -29 -29 -29 -29 -29 -29
-20 -20 -21 -22 -22 -22 -23 -25 -26 -27 -27 -28 -28 -27 -27 -26 -26 -26 -26 -25 -25 -25 -25 -26 -26 -26 -27 -27 -28 -28 -28 -28 -28 -29 -29 -29 -29 -29 -29 -29 -30 -30 -30

GFSGL_500_temp_036.txt.gz
Temp
-13 -13 -13 -12 -12 -12 -12 -13 -13 -14 -14 -14 -14 -15 -15 -15 -16 -16 -16 -16 -16 -17 -17 -17 -17 -17 -17 -17 -17 -18 -18 -17 -17 -16 -16 -16 -16 -17 -19 -21 -22 -23 -24
-13 -13 -13 -12 -12 -13 -13 -13 -14 -14 -15 -15 -15 -15 -16 -16 -16 -16 -16 -17 -17 -17 -17 -17 -17 -18 -18 -18 -18 -18 -17 -17 -18 -17 -16 -17 -19 -22 -23 -23 -25 -26 -26
-13 -13 -13 -13 -13 -13 -14 -14 -15 -15 -15 -15 -16 -16 -16 -16 -16 -16 -17 -17 -17 -17 -18 -18 -18 -18 -18 -18 -17 -17 -17 -17 -18 -18 -18 -21 -23 -24 -25 -26 -26 -26 -26
-13 -13 -13 -13 -13 -14 -15 -15 -15 -16 -16 -16 -16 -16 -16 -16 -17 -17 -17 -17 -18 -18 -18 -18 -18 -18 -18 -17 -17 -17 -17 -17 -19 -21 -23 -24 -25 -25 -26 -25 -26 -26 -26
-13 -13 -13 -14 -14 -15 -15 -15 -16 -16 -16 -16 -17 -16 -16 -17 -17 -17 -17 -18 -18 -18 -18 -18 -18 -18 -18 -17 -17 -17 -18 -21 -22 -24 -25 -25 -25 -25 -26 -26 -25 -25 -27
-13 -14 -14 -15 -15 -15 -15 -16 -16 -16 -16 -17 -16 -17 -17 -17 -17 -18 -18 -18 -18 -18 -18 -18 -18 -18 -18 -18 -18 -19 -23 -24 -25 -25 -25 -25 -25 -26 -25 -25 -25 -26 -26
-14 -14 -14 -15 -15 -16 -16 -16 -17 -17 -17 -17 -17 -17 -17 -18 -18 -18 -18 -18 -18 -18 -19 -19 -18 -18 -18 -18 -20 -23 -25 -26 -26 -25 -25 -25 -25 -25 -25 -26 -26 -26 -26
-14 -15 -15 -15 -16 -16 -16 -17 -17 -17 -17 -17 -17 -17 -18 -18 -18 -18 -19 -19 -19 -18 -18 -18 -19 -19 -19 -21 -23 -24 -26 -26 -26 -26 -25 -25 -25 -25 -25 -25 -25 -26 -26
-15 -15 -15 -16 -16 -17 -17 -17 -17 -17 -17 -17 -18 -18 -18 -18 -19 -19 -19 -19 -18 -18 -18 -19 -19 -19 -21 -23 -24 -25 -26 -26 -26 -26 -25 -25 -26 -26 -25 -25 -25 -25 -26
-15 -16 -16 -16 -17 -17 -17 -17 -17 -17 -18 -18 -18 -18 -19 -19 -19 -19 -19 -18 -18 -18 -19 -20 -20 -22 -24 -25 -25 -25 -26 -26 -26 -26 -26 -26 -26 -26 -25 -25 -25 -26 -25
-16 -16 -16 -16 -17 -17 -17 -17 -17 -18 -18 -18 -19 -19 -19 -19 -19 -19 -18 -18 -19 -19 -20 -21 -22 -25 -25 -26 -26 -26 -26 -26 -26 -26 -26 -26 -26 -26 -26 -26 -25 -25 -25
-16 -16 -17 -17 -17 -17 -17 -18 -18 -18 -19 -19 -19 -19 -19 -19 -19 -19 -19 -19 -19 -20 -21 -23 -25 -25 -26 -26 -26 -26 -26 -26 -26 -26 -26 -26 -26 -26 -26 -26 -25 -26 -25
-16 -17 -17 -17 -17 -17 -18 -18 -18 -19 -19 -19 -19 -19 -19 -19 -19 -19 -19 -19 -20 -21 -24 -25 -26 -26 -26 -26 -26 -26 -26 -26 -26 -26 -26 -26 -26 -26 -27 -27 -26 -26 -26
-17 -17 -17 -17 -18 -18 -18 -19 -19 -19 -19 -19 -19 -19 -19 -19 -19 -19 -19 -20 -21 -23 -25 -26 -26 -26 -26 -26 -26 -26 -26 -26 -26 -26 -27 -27 -27 -27 -27 -27 -26 -26 -26
-17 -17 -18 -18 -18 -18 -19 -19 -19 -19 -19 -19 -19 -19 -19 -19 -19 -20 -20 -21 -23 -25 -26 -26 -26 -26 -26 -26 -26 -26 -26 -26 -27 -27 -27 -27 -27 -27 -27 -27 -26 -26 -26
-18 -18 -18 -18 -19 -19 -19 -19 -19 -19 -19 -19 -19 -19 -19 -20 -20 -21 -22 -24 -25 -26 -26 -26 -26 -26 -26 -26 -27 -27 -26 -27 -27 -28 -28 -28 -27 -27 -28 -27 -27 -26 -27
-18 -18 -19 -19 -19 -19 -19 -20 -20 -20 -19 -19 -19 -20 -20 -21 -21 -22 -24 -26 -26 -26 -26 -26 -26 -26 -26 -26 -27 -27 -27 -28 -28 -28 -28 -28 -28 -28 -28 -27 -27 -27 -27
-18 -19 -19 -19 -19 -20 -20 -20 -20 -19 -19 -20 -20 -21 -21 -22 -23 -24 -25 -26 -26 -26 -26 -26 -26 -26 -26 -27 -27 -27 -27 -28 -28 -28 -28 -28 -29 -28 -28 -28 -28 -28 -27
-19 -19 -19 -20 -20 -20 -20 -20 -19 -19 -20 -20 -20 -21 -22 -23 -25 -25 -26 -26 -26 -26 -26 -26 -26 -26 -26 -26 -27 -27 -27 -28 -28 -28 -29 -29 -29 -29 -29 -29 -29 -28 -28
-19 -20 -20 -20 -20 -20 -20 -19 -19 -20 -20 -21 -21 -22 -23 -24 -25 -26 -26 -26 -26 -25 -25 -25 -26 -26 -26 -26 -27 -28 -28 -28 -28 -29 -29 -29 -29 -29 -29 -29 -29 -29 -28
-20 -20 -20 -20 -20 -20 -19 -19 -20 -20 -21 -21 -22 -23 -25 -25 -26 -26 -26 -26 -25 -25 -25 -25 -26 -26 -26 -27 -28 -28 -29 -29 -29 -29 -29 -29 -29 -29 -29 -29 -29 -29 -29
-20 -20 -20 -20 -20 -19 -19 -20 -21 -21 -21 -22 -23 -25 -26 -26 -26 -26 -26 -25 -25 -25 -25 -26 -26 -26 -27 -28 -28 -28 -29 -29 -29 -29 -29 -29 -29 -29 -29 -29 -29 -29 -29
-20 -20 -20 -20 -20 -20 -20 -21 -21 -22 -22 -24 -25 -26 -27 -27 -27 -26 -26 -25 -25 -25 -26 -26 -26 -26 -27 -27 -28 -28 -29 -29 -29 -29 -29 -29 -29 -29 -29 -29 -29 -29 -29
-20 -20 -20 -20 -20 -21 -21 -22 -22 -22 -24 -26 -26 -27 -27 -27 -26 -26 -26 -25 -25 -25 -26 -26 -26 -27 -27 -28 -28 -28 -29 -29 -29 -29 -29 -29 -30 -29 -29 -29 -29 -29 -29
-20 -20 -20 -20 -21 -21 -22 -22 -22 -24 -26 -27 -27 -28 -27 -27 -26 -26 -25 -25 -25 -26 -26 -26 -26 -27 -27 -28 -28 -28 -29 -29 -29 -30 -30 -30 -30 -30 -30 -30 -30 -30 -30
-20 -20 -21 -21 -21 -22 -22 -22 -24 -26 -27 -27 -27 -27 -27 -26 -26 -26 -25 -25 -25 -25 -26 -26 -26 -27 -27 -27 -27 -28 -28 -29 -29 -29 -30 -30 -30 -30 -31 -31 -31 -31 -31

GFSGL_500_temp_039.txt.gz
Temp
-14 -14 -14 -14 -14 -14 -13 -13 -13 -14 -14 -14 -15 -14 -15 -15 -15 -15 -16 -16 -16 -16 -17 -17 -17 -17 -18 -18 -18 -18 -18 -18 -17 -17 -17 -17 -17 -17 -17 -18 -20 -21 -23
-14 -14 -14 -14 -14 -14 -13 -14 -14 -14 -15 -15 -15 -15 -15 -15 -16 -16 -16 -16 -16 -17 -17 -17 -17 -18 -18 -18 -18 -18 -18 -18 -18 -17 -17 -17 -17 -18 -20 -22 -23 -25 -25
-13 -14 -14 -14 -14 -14 -14 -14 -14 -15 -15 -15 -15 -16 -16 -16 -16 -16 -17 -17 -17 -17 -17 -18 -18 -18 -18 -18 -18 -18 -18 -18 -18 -17 -17 -18 -20 -22 -23 -25 -25 -26 -25
-14 -14 -14 -14 -14 -14 -14 -15 -15 -16 -16 -16 -16 -16 -16 -16 -17 -17 -17 -17 -17 -18 -18 -18 -18 -18 -18 -18 -18 -18 -18 -18 -18 -18 -20 -22 -23 -24 -25 -25 -25 -26 -25
-14 -14 -14 -14 -14 -14 -15 -15 -16 -16 -16 -16 -16 -16 -17 -17 -17 -17 -17 -18 -18 -18 -18 -18 -18 -19 -18 -18 -18 -18 -18 -19 -19 -21 -23 -24 -25 -25 -25 -25 -25 -25 -26
-14 -15 -14 -14 -15 -15 -15 -16 -16 -16 -16 -16 -17 -17 -17 -17 -17 -17 -18 -18 -18 -19 -19 -19 -19 -19 -18 -18 -18 -18 -19 -21 -23 -24 -24 -25 -25 -25 -25 -25 -25 -25 -26
-14 -14 -14 -15 -15 -16 -16 -16 -16 -16 -17 -17 -17 -17 -17 -17 -18 -18 -18 -19 -19 -19 -19 -19 -19 -19 -18 -18 -19 -20 -22 -24 -25 -25 -25 -25 -25 -25 -25 -25 -25 -25 -25
-14 -15 -15 -16 -16 -16 -16 -16 -16 -17 -17 -17 -17 -17 -17 -18 -18 -18 -19 -19 -19 -19 -19 -19 -19 -19 -19 -19 -19 -22 -24 -25 -26 -25 -25 -25 -25 -25 -24 -24 -24 -25 -26
-15 -15 -16 -16 -16 -16 -16 -17 -17 -17 -17 -17 -17 -18 -18 -18 -19 -19 -19 -19 -19 -19 -19 -19 -19 -19 -19 -20 -22 -24 -25 -26 -26 -25 -25 -25 -25 -24 -24 -24 -25 -24 -25
-15 -16 -16 -16 -16 -16 -16 -17 -17 -17 -17 -18 -18 -18 -18 -19 -19 -19 -19 -19 -19 -19 -19 -19 -19 -19 -20 -23 -24 -25 -26 -26 -26 -26 -26 -26 -25 -25 -25 -25 -24 -25 -25
-16 -16 -16 -16 -16 -17 -17 -17 -17 -17 -18 -18 -18 -19 -19 -19 -19 -19 -19 -19 -19 -19 -19 -19 -20 -21 -24 -25 -25 -26 -26 -26 -26 -26 -26 -26 -26 -26 -26 -26 -26 -25 -26
-16 -16 -16 -16 -17 -17 -17 -17 -18 -18 -18 -18 -19 -19 -19 -19 -19 -19 -19 -19 -19 -19 -20 -20 -21 -24 -25 -25 -26 -26 -26 -26 -26 -26 -27 -26 -26 -27 -27 -27 -27 -26 -26
-16 -16 -16 -16 -17 -17 -17 -18 -18 -18 -19 -19 -19 -20 -20 -19 -19 -19 -19 -19 -20 -20 -21 -22 -24 -25 -25 -26 -26 -26 -26 -26 -26 -26 -27 -27 -27 -27 -27 -27 -27 -27 -26
-16 -16 -16 -17 -17 -18 -18 -18 -19 -19 -19 -19 -20 -20 -19 -19 -19 -19 -19 -20 -20 -20 -22 -24 -25 -25 -25 -25 -25 -25 -26 -26 -27 -27 -27 -27 -27 -27 -27 -27 -27 -27 -27
-16 -17 -17 -18 -18 -18 -19 -19 -19 -19 -20 -20 -19 -19 -19 -19 -19 -19 -20 -20 -20 -21 -24 -25 -26 -26 -26 -26 -26 -26 -26 -27 -27 -27 -28 -28 -28 -28 -28 -28 -28 -27 -27
-17 -18 -18 -18 -19 -19 -19 -19 -20 -20 -20 -19 -19 -19 -19 -19 -20 -20 -20 -21 -22 -24 -25 -26 -25 -25 -26 -26 -26 -27 -27 -27 -27 -28 -28 -28 -28 -28 -28 -28 -28 -28 -28
-18 -18 -18 -19 -19 -19 -19 -20 -20 -20 -20 -19 -19 -19 -20 -20 -20 -21 -21 -23 -25 -25 -25 -25 -25 -25 -26 -26 -26 -27 -27 -28 -28 -28 -28 -29 -29 -29 -29 -29 -29 -29 -28
-18 -19 -19 -19 -19 -20 -20 -20 -20 -20 -20 -20 -20 -20 -20 -21 -21 -22 -24 -25 -26 -25 -25 -25 -25 -25 -26 -26 -26 -27 -28 -28 -28 -29 -29 -29 -29 -29 -29 -29 -29 -29 -29
-19 -19 -19 -19 -20 -20 -20 -20 -20 -20 -20 -20 -20 -21 -21 -22 -23 -25 -25 -26 -26 -25 -25 -25 -25 -25 -26 -26 -27 -28 -28 -29 -29 -29 -29 -29 -29 -29 -29 -29 -29 -29 -29
-19 -19 -20 -20 -20 -20 -20 -20 -20 -20 -20 -20 -21 -21 -22 -22 -25 -26 -26 -26 -26 -25 -25 -25 -26 -26 -27 -27 -27 -28 -28 -29 -29 -29 -29 -29 -29 -29 -29 -29 -29 -29 -29
-20 -20 -20 -20 -20 -20 -20 -20 -20 -20 -20 -21 -21 -22 -22 -25 -25 -26 -26 -26 -25 -25 -25 -26 -26 -27 -27 -28 -28 -28 -28 -28 -29 -29 -29 -29 -29 -29 -29 -29 -29 -29 -29
-20 -20 -20 -20 -20 -20 -20 -20 -20 -20 -21 -22 -22 -24 -25 -26 -26 -26 -26 -25 -25 -25 -26 -26 -27 -27 -27 -28 -28 -29 -29 -29 -29 -30 -30 -30 -30 -30 -30 -29 -29 -29 -29
-20 -20 -20 -20 -20 -20 -20 -20 -21 -21 -22 -22 -24 -26 -26 -26 -26 -26 -26 -25 -25 -25 -26 -26 -27 -27 -27 -28 -28 -28 -29 -29 -29 -30 -30 -30 -30 -30 -30 -29 -29 -29 -29
-20 -20 -20 -20 -20 -20 -21 -21 -21 -22 -22 -24 -26 -26 -27 -26 -26 -26 -25 -25 -25 -26 -26 -26 -27 -27 -27 -27 -28 -28 -29 -29 -29 -30 -30 -30 -31 -31 -31 -30 -30 -29 -29
-20 -20 -20 -20 -20 -21 -21 -22 -22 -22 -24 -26 -26 -27 -27 -26 -26 -26 -25 -25 -26 -26 -26 -26 -26 -26 -27 -27 -27 -28 -28 -29 -29 -30 -30 -31 -31 -32 -32 -32 -31 -30 -30
-20 -20 -20 -20 -21 -21 -22 -22 -22 -24 -26 -26 -27 -27 -26 -26 -26 -26 -26 -26 -26 -26 -26 -26 -26 -26 -27 -27 -27 -27 -28 -28 -29 -30 -30 -31 -32 -32 -32 -32 -31 -30 -29

GFSGL_500_temp_042.txt.gz
Temp
-13 -14 -14 -14 -14 -14 -14 -15 -15 -15 -15 -14 -14 -14 -14 -15 -15 -15 -15 -15 -16 -16 -16 -16 -16 -16 -17 -17 -17 -18 -18 -18 -18 -18 -18 -18 -18 -18 -18 -18 -18 -19 -21
-14 -14 -14 -14 -14 -14 -15 -15 -15 -15 -15 -15 -15 -15 -15 -15 -15 -15 -16 -16 -16 -16 -16 -17 -17 -17 -17 -18 -18 -18 -18 -18 -18 -18 -18 -18 -18 -18 -18 -18 -21 -23 -24
-14 -14 -15 -14 -14 -15 -15 -15 -15 -15 -15 -15 -15 -15 -15 -16 -16 -16 -16 -17 -17 -17 -17 -17 -17 -17 -18 -18 -18 -18 -18 -18 -18 -18 -18 -18 -18 -18 -20 -23 -24 -25 -25
-14 -15 -15 -15 -15 -15 -15 -15 -15 -15 -15 -15 -15 -16 -16 -16 -16 -17 -17 -17 -17 -17 -17 -17 -18 -18 -18 -18 -19 -19 -18 -18 -19 -18 -18 -18 -19 -22 -23 -24 -24 -25 -25
-15 -15 -15 -15 -15 -15 -15 -15 -15 -15 -15 -16 -16 -16 -17 -17 -17 -17 -17 -17 -17 -18 -18 -18 -18 -19 -19 -19 -19 -19 -19 -19 -19 -19 -19 -20 -23 -24 -25 -25 -25 -25 -26
-15 -15 -15 -15 -15 -15 -15 -15 -15 -15 -16 -16 -16 -17 -17 -17 -17 -17 -17 -18 -18 -18 -18 -19 -19 -19 -19 -19 -19 -19 -19 -19 -20 -20 -21 -23 -24 -25 -25 -25 -25 -25 -25
-15 -15 -15 -15 -15 -15 -16 -15 -16 -16 -16 -17 -17 -17 -17 -17 -17 -18 -18 -18 -18 -19 -19 -19 -19 -19 -19 -18 -19 -19 -20 -20 -21 -23 -24 -25 -24 -25 -25 -25 -25 -25 -25
-15 -15 -16 -16 -16 -16 -16 -16 -16 -16 -17 -17 -17 -17 -17 -18 -18 -18 -18 -18 -19 -19 -19 -19 -19 -18 -19 -19 -19 -20 -20 -22 -24 -25 -25 -25 -25 -25 -25 -24 -24 -25 -25
-16 -16 -15 -16 -16 -16 -16 -16 -16 -17 -17 -17 -17 -17 -18 -18 -18 -18 -19 -19 -19 -19 -19 -19 -19 -19 -19 -19 -20 -21 -22 -25 -26 -26 -25 -25 -25 -24 -24 -24 -24 -24 -25
-16 -16 -16 -16 -16 -16 -16 -16 -16 -17 -17 -17 -17 -18 -18 -18 -19 -19 -19 -19 -19 -19 -19 -19 -19 -19 -20 -20 -21 -23 -24 -26 -26 -26 -26 -25 -25 -25 -25 -25 -25 -25 -25
-16 -16 -16 -16 -16 -16 -16 -16 -17 -17 -17 -17 -18 -18 -18 -19 -19 -19 -19 -19 -19 -19 -19 -19 -19 -20 -21 -22 -24 -25 -25 -25 -26 -26 -26 -26 -26 -26 -26 -26 -26 -26 -26
-16 -16 -16 -16 -16 -16 -17 -17 -17 -17 -18 -18 -18 -19 -19 -19 -19 -19 -19 -19 -19 -19 -20 -20 -20 -21 -23 -25 -25 -25 -25 -25 -26 -26 -26 -26 -27 -27 -27 -27 -27 -27 -27
-16 -16 -16 -16 -16 -17 -17 -17 -18 -18 -18 -19 -19 -19 -19 -20 -19 -19 -19 -19 -20 -20 -20 -21 -22 -24 -25 -25 -25 -25 -25 -26 -26 -26 -26 -27 -27 -27 -27 -28 -28 -28 -28
-15 -16 -16 -16 -17 -17 -18 -18 -18 -18 -19 -19 -19 -19 -20 -19 -19 -19 -19 -19 -20 -20 -21 -22 -25 -25 -25 -25 -25 -25 -25 -26 -26 -26 -27 -27 -27 -28 -28 -28 -28 -29 -29
-16 -16 -17 -17 -18 -18 -18 -18 -19 -19 -19 -19 -20 -20 -19 -19 -19 -19 -20 -20 -20 -21 -23 -25 -25 -26 -25 -25 -25 -25 -26 -26 -26 -27 -27 -28 -29 -28 -29 -29 -29 -29 -28
-16 -17 -17 -18 -18 -18 -19 -19 -19 -19 -19 -20 -19 -19 -19 -19 -19 -20 -20 -21 -21 -23 -25 -25 -25 -25 -25 -26 -26 -26 -26 -27 -27 -28 -28 -29 -29 -29 -29 -29 -29 -29 -29
-17 -18 -18 -18 -18 -19 -19 -19 -20 -20 -20 -20 -20 -20 -20 -20 -20 -20 -20 -21 -24 -25 -25 -26 -25 -25 -26 -26 -27 -27 -28 -28 -28 -29 -29 -29 -29 -29 -29 -29 -29 -29 -29
-18 -18 -18 -19 -19 -19 -20 -20 -20 -20 -20 -20 -20 -20 -20 -20 -21 -21 -21 -24 -25 -25 -25 -25 -25 -26 -26 -27 -27 -28 -28 -28 -29 -29 -29 -29 -29 -29 -29 -29 -29 -29 -29
-18 -19 -19 -19 -20 -20 -20 -20 -20 -20 -20 -20 -20 -20 -20 -21 -21 -22 -24 -25 -25 -25 -25 -25 -26 -26 -27 -27 -28 -28 -28 -29 -29 -29 -29 -29 -29 -29 -29 -29 -29 -29 -29
-19 -19 -20 -20 -20 -20 -20 -20 -20 -20 -20 -20 -20 -20 -21 -21 -22 -25 -25 -26 -25 -25 -25 -26 -26 -26 -27 -27 -28 -28 -28 -29 -29 -30 -30 -30 -30 -30 -29 -29 -29 -29 -29
-20 -20 -20 -20 -20 -20 -20 -20 -20 -20 -20 -20 -21 -21 -21 -22 -24 -25 -26 -26 -25 -25 -26 -26 -26 -27 -27 -27 -28 -28 -28 -29 -29 -30 -30 -30 -30 -30 -30 -29 -29 -29 -29
-20 -20 -20 -20 -20 -20 -20 -20 -20 -20 -20 -21 -21 -21 -23 -25 -25 -26 -26 -25 -25 -25 -26 -26 -26 -27 -27 -27 -27 -28 -28 -29 -29 -30 -30 -31 -31 -30 -30 -30 -29 -29 -29
-20 -20 -20 -20 -20 -20 -20 -20 -20 -21 -21 -22 -22 -23 -25 -26 -26 -26 -26 -25 -25 -26 -26 -26 -26 -26 -27 -27 -27 -28 -28 -29 -29 -30 -31 -31 -31 -31 -31 -31 -30 -29 -29
-20 -20 -20 -20 -20 -20 -20 -21 -21 -21 -22 -22 -24 -25 -26 -26 -26 -26 -25 -25 -26 -26 -26 -26 -26 -26 -27 -27 -27 -28 -28 -29 -29 -30 -31 -32 -32 -32 -32 -31 -31 -30 -29
-21 -21 -21 -20 -20 -21 -21 -21 -21 -22 -22 -24 -26 -26 -27 -26 -26 -26 -26 -26 -26 -26 -26 -26 -26 -26 -27 -27 -27 -28 -28 -29 -29 -30 -31 -32 -32 -32 -32 -31 -31 -29 -29
-21 -21 -21 -21 -21 -21 -21 -21 -22 -22 -24 -25 -26 -26 -27 -26 -26 -26 -26 -26 -26 -26 -26 -26 -26 -26 -26 -27 -27 -28 -28 -29 -29 -30 -30 -31 -31 -32 -31 -31 -29 -29 -28

GFSGL_500_temp_045.txt.gz
Temp
-13 -13 -13 -13 -14 -14 -14 -14 -14 -15 -15 -15 -15 -15 -15 -15 -15 -15 -15 -15 -15 -15 -15 -15 -16 -16 -16 -16 -17 -17 -17 -17 -17 -18 -18 -18 -18 -18 -18 -18 -18 -18 -19
-13 -13 -13 -13 -14 -14 -14 -14 -15 -15 -15 -15 -15 -15 -15 -15 -15 -15 -16 -16 -16 -16 -16 -16 -16 -16 -17 -17 -17 -17 -17 -18 -18 -18 -18 -18 -18 -18 -18 -18 -19 -19 -21
-14 -14 -14 -14 -14 -14 -15 -15 -15 -15 -15 -15 -15 -15 -15 -15 -15 -16 -16 -16 -16 -16 -16 -16 -17 -17 -17 -17 -18 -18 -18 -18 -18 -18 -18 -18 -18 -19 -19 -19 -20 -22 -24
-14 -14 -14 -14 -14 -15 -15 -15 -15 -15 -15 -15 -16 -16 -15 -16 -16 -16 -16 -16 -17 -17 -17 -17 -17 -18 -18 -18 -18 -18 -18 -18 -18 -18 -18 -18 -18 -19 -20 -21 -23 -24 -25
-15 -15 -15 -15 -15 -15 -15 -15 -15 -16 -16 -16 -16 -16 -16 -16 -17 -17 -17 -17 -17 -17 -18 -18 -18 -18 -18 -19 -18 -19 -19 -18 -18 -18 -18 -19 -19 -20 -22 -23 -24 -25 -25
-15 -15 -15 -15 -15 -15 -15 -16 -16 -16 -16 -16 -16 -16 -17 -17 -17 -17 -17 -17 -18 -18 -18 -18 -18 -19 -19 -19 -19 -19 -18 -18 -19 -19 -19 -20 -22 -23 -24 -24 -24 -25 -25
-15 -15 -15 -15 -15 -15 -16 -16 -16 -16 -16 -16 -16 -17 -17 -17 -17 -17 -17 -18 -18 -18 -18 -19 -19 -19 -19 -19 -19 -19 -19 -19 -20 -20 -21 -23 -23 -24 -24 -24 -25 -25 -25
-15 -15 -16 -15 -15 -16 -16 -16 -16 -16 -16 -16 -17 -17 -17 -17 -17 -18 -18 -18 -18 -19 -19 -19 -19 -19 -19 -19 -18 -19 -19 -20 -20 -22 -24 -24 -25 -24 -24 -24 -25 -25 -26
-15 -15 -15 -16 -16 -16 -16 -16 -16 -16 -16 -17 -17 -17 -17 -18 -18 -18 -18 -19 -19 -19 -19 -19 -19 -19 -19 -19 -19 -19 -20 -21 -24 -25 -25 -25 -25 -25 -25 -24 -25 -25 -26
-14 -15 -15 -15 -16 -16 -16 -16 -16 -17 -17 -17 -17 -18 -18 -18 -18 -19 -19 -19 -19 -19 -19 -19 -19 -19 -19 -19 -19 -20 -22 -24 -25 -26 -26 -25 -25 -25 -25 -25 -25 -25 -26
-15 -15 -16 -16 -16 -16 -16 -17 -17 -17 -17 -17 -18 -18 -18 -18 -19 -19 -19 -19 -19 -19 -19 -19 -19 -19 -19 -20 -21 -23 -24 -25 -25 -25 -26 -26 -26 -26 -26 -26 -26 -26 -26
-16 -16 -16 -16 -16 -16 -17 -17 -17 -17 -17 -18 -18 -18 -19 -19 -19 -19 -19 -19 -19 -19 -19 -19 -20 -20 -20 -22 -24 -25 -25 -25 -25 -25 -26 -26 -26 -26 -27 -27 -28 -28 -28
-16 -16 -16 -16 -16 -17 -17 -17 -17 -18 -18 -18 -19 -19 -19 -19 -19 -19 -19 -19 -19 -19 -19 -20 -20 -20 -23 -24 -25 -25 -25 -25 -26 -26 -26 -27 -27 -27 -28 -28 -29 -29 -29
-16 -16 -16 -16 -16 -17 -17 -17 -18 -18 -18 -19 -19 -19 -19 -20 -20 -19 -19 -19 -19 -20 -20 -20 -21 -24 -25 -25 -25 -25 -26 -26 -27 -27 -27 -27 -28 -28 -29 -29 -29 -29 -29
-16 -16 -16 -17 -17 -17 -18 -18 -18 -19 -19 -19 -19 -19 -20 -19 -19 -19 -19 -20 -20 -20 -20 -22 -24 -25 -25 -25 -26 -26 -27 -27 -28 -28 -28 -28 -29 -29 -29 -29 -29 -29 -29
-16 -16 -17 -17 -17 -18 -18 -19 -19 -19 -19 -19 -20 -20 -19 -19 -19 -20 -20 -20 -20 -21 -23 -24 -25 -25 -25 -26 -26 -27 -27 -28 -28 -29 -29 -29 -29 -29 -29 -29 -29 -29 -29
-17 -17 -17 -18 -18 -18 -19 -19 -19 -19 -20 -20 -20 -19 -19 -20 -20 -20 -20 -21 -21 -23 -25 -25 -25 -25 -26 -26 -26 -27 -27 -28 -28 -28 -29 -29 -29 -29 -29 -29 -29 -29 -29
-17 -18 -18 -18 -19 -19 -19 -19 -20 -20 -20 -20 -20 -20 -20 -20 -20 -20 -21 -21 -23 -25 -25 -25 -25 -26 -26 -26 -27 -27 -28 -28 -28 -29 -29 -30 -30 -30 -30 -30 -30 -29 -29
-18 -18 -19 -19 -19 -19 -20 -20 -20 -20 -20 -20 -20 -20 -20 -20 -21 -21 -22 -24 -25 -25 -25 -25 -26 -26 -26 -26 -27 -27 -28 -28 -29 -29 -30 -30 -30 -30 -30 -30 -30 -29 -29
-19 -19 -19 -19 -20 -20 -20 -20 -20 -20 -20 -20 -20 -20 -20 -21 -21 -22 -25 -25 -26 -25 -25 -26 -26 -26 -26 -27 -27 -27 -28 -28 -29 -30 -30 -31 -31 -31 -31 -30 -30 -30 -29
-19 -19 -20 -20 -20 -20 -20 -20 -20 -20 -20 -20 -20 -20 -21 -21 -23 -24 -26 -26 -25 -25 -26 -26 -26 -26 -26 -27 -27 -28 -28 -29 -29 -30 -31 -31 -32 -32 -31 -31 -30 -30 -29
-20 -20 -20 -20 -20 -20 -20 -20 -20 -20 -20 -20 -21 -22 -22 -23 -25 -26 -26 -26 -25 -26 -26 -26 -26 -26 -26 -27 -27 -28 -28 -29 -30 -30 -31 -32 -32 -32 -32 -31 -31 -30 -29
-20 -20 -20 -21 -20 -20 -20 -20 -20 -20 -21 -21 -22 -22 -24 -25 -26 -26 -26 -26 -25 -26 -26 -26 -26 -26 -26 -27 -27 -28 -29 -29 -30 -30 -31 -32 -32 -33 -32 -31 -31 -29 -29
-20 -21 -21 -21 -21 -20 -20 -21 -21 -21 -21 -21 -22 -24 -25 -26 -26 -26 -26 -26 -26 -26 -26 -26 -26 -26 -26 -27 -27 -28 -29 -29 -30 -30 -31 -32 -32 -32 -31 -31 -30 -29 -29
-21 -21 -21 -20 -21 -21 -21 -21 -21 -21 -21 -22 -25 -26 -26 -27 -26 -26 -26 -26 -26 -26 -26 -26 -26 -26 -27 -27 -27 -28 -28 -29 -30 -30 -30 -31 -31 -31 -30 -29 -29 -29 -28
-21 -21 -21 -21 -21 -21 -21 -21 -21 -22 -22 -24 -25 -26 -26 -26 -26 -26 -26 -26 -26 -26 -26 -26 -26 -26 -27 -27 -27 -27 -28 -29 -29 -30 -30 -29 -29 -29 -29 -28 -28 -28 -27

GFSGL_500_temp_048.txt.gz
Temp
-14 -13 -14 -14 -14 -14 -14 -14 -14 -14 -15 -15 -15 -15 -15 -16 -16 -16 -16 -15 -15 -16 -15 -16 -16 -16 -16 -16 -16 -17 -17 -17 -17 -17 -17 -18 -18 -18 -18 -18 -18 -18 -17
-14 -14 -15 -14 -14 -14 -14 -14 -15 -15 -15 -15 -15 -16 -16 -15 -16 -16 -16 -16 -16 -16 -16 -16 -16 -16 -17 -17 -17 -17 -17 -18 -18 -18 -18 -18 -18 -18 -18 -18 -17 -17 -17
-15 -16 -15 -15 -14 -14 -15 -15 -15 -15 -15 -15 -16 -16 -16 -16 -16 -16 -16 -16 -16 -16 -17 -16 -17 -17 -17 -17 -18 -18 -18 -18 -19 -18 -18 -18 -18 -18 -18 -17 -17 -18 -19
-16 -16 -15 -15 -15 -15 -15 -15 -15 -15 -15 -15 -16 -16 -16 -16 -16 -16 -16 -17 -17 -17 -17 -17 -17 -17 -18 -18 -18 -18 -19 -19 -19 -19 -18 -18 -18 -18 -18 -18 -18 -21 -23
-16 -15 -15 -15 -15 -15 -15 -15 -15 -15 -16 -16 -16 -16 -16 -16 -16 -17 -17 -17 -17 -17 -17 -18 -18 -18 -18 -18 -18 -19 -19 -19 -19 -18 -18 -18 -18 -18 -18 -20 -22 -23 -25
-16 -16 -15 -15 -15 -16 -16 -16 -16 -16 -16 -16 -16 -16 -16 -16 -17 -17 -17 -17 -17 -18 -18 -18 -18 -18 -18 -19 -19 -19 -19 -19 -19 -19 -18 -18 -19 -20 -22 -23 -24 -24 -24
-16 -16 -15 -16 -16 -16 -16 -16 -16 -16 -16 -16 -16 -16 -16 -17 -17 -17 -17 -17 -18 -18 -18 -18 -18 -19 -19 -19 -19 -19 -19 -19 -19 -19 -19 -19 -21 -23 -24 -24 -24 -24 -25
-16 -16 -16 -16 -16 -16 -16 -16 -16 -16 -16 -16 -16 -16 -17 -17 -17 -17 -18 -18 -18 -18 -18 -19 -19 -19 -19 -19 -19 -19 -19 -19 -19 -20 -21 -23 -24 -24 -24 -24 -24 -24 -25
-16 -16 -15 -16 -16 -16 -16 -16 -16 -16 -16 -16 -17 -17 -17 -17 -18 -18 -18 -18 -18 -18 -19 -19 -19 -19 -19 -19 -19 -19 -19 -20 -21 -23 -25 -25 -24 -25 -25 -24 -24 -24 -25
-16 -16 -16 -16 -15 -16 -16 -16 -16 -16 -16 -17 -17 -17 -17 -18 -18 -18 -18 -18 -19 -19 -19 -19 -19 -19 -19 -19 -19 -19 -20 -22 -24 -25 -25 -25 -25 -26 -26 -26 -26 -26 -26
-17 -16 -15 -15 -15 -16 -17 -16 -16 -16 -17 -17 -17 -18 -18 -18 -18 -19 -19 -19 -19 -19 -19 -19 -19 -19 -20 -19 -19 -21 -23 -25 -25 -25 -25 -26 -27 -27 -27 -27 -27 -27 -27
-16 -16 -16 -16 -17 -16 -16 -16 -17 -17 -17 -18 -18 -18 -18 -19 -19 -19 -19 -19 -19 -19 -19 -19 -19 -20 -20 -20 -22 -24 -25 -25 -25 -26 -27 -27 -28 -28 -28 -28 -29 -29 -29
-16 -16 -16 -16 -16 -16 -17 -17 -17 -17 -18 -18 -18 -19 -19 -19 -19 -19 -19 -19 -19 -19 -19 -19 -20 -20 -20 -23 -25 -25 -25 -26 -26 -27 -27 -28 -28 -29 -29 -29 -29 -29 -30
-16 -16 -16 -16 -16 -17 -17 -17 -18 -18 -18 -18 -19 -19 -19 -19 -19 -19 -19 -19 -19 -19 -20 -20 -20 -21 -23 -25 -25 -25 -26 -26 -27 -27 -28 -28 -28 -29 -29 -29 -29 -29 -29
-16 -16 -16 -17 -17 -17 -18 -18 -18 -18 -19 -19 -19 -19 -19 -20 -20 -19 -19 -19 -19 -20 -20 -21 -22 -24 -25 -25 -26 -26 -26 -27 -27 -28 -28 -28 -29 -29 -30 -30 -30 -29 -29
-16 -17 -17 -17 -18 -18 -18 -18 -18 -19 -19 -19 -19 -19 -19 -19 -19 -20 -20 -20 -20 -20 -21 -23 -24 -25 -25 -26 -26 -26 -27 -27 -27 -28 -28 -29 -29 -30 -30 -31 -30 -30 -30
-17 -17 -17 -18 -18 -18 -19 -19 -19 -19 -19 -20 -20 -20 -20 -20 -20 -20 -20 -20 -21 -22 -23 -25 -25 -25 -25 -26 -26 -26 -27 -27 -28 -28 -29 -29 -30 -30 -31 -31 -31 -30 -30
-17 -18 -18 -18 -19 -19 -19 -19 -20 -20 -20 -20 -20 -20 -20 -20 -20 -20 -21 -21 -23 -24 -25 -25 -25 -25 -26 -26 -26 -27 -27 -28 -28 -29 -29 -30 -31 -31 -31 -31 -31 -30 -30
-18 -18 -19 -19 -19 -19 -20 -20 -20 -20 -20 -20 -20 -20 -20 -20 -20 -21 -22 -23 -24 -25 -26 -25 -26 -26 -26 -26 -26 -27 -27 -28 -29 -29 -30 -31 -32 -32 -32 -32 -31 -30 -30
-19 -19 -19 -19 -20 -20 -20 -20 -20 -20 -20 -20 -20 -20 -20 -20 -21 -22 -24 -25 -25 -26 -26 -26 -26 -26 -26 -26 -26 -27 -28 -29 -29 -30 -31 -32 -32 -32 -32 -32 -31 -30 -30
-19 -19 -20 -20 -20 -20 -20 -20 -20 -20 -20 -20 -20 -20 -20 -21 -22 -24 -25 -26 -26 -26 -26 -26 -26 -26 -26 -26 -26 -27 -28 -29 -30 -30 -31 -32 -33 -33 -32 -31 -30 -29 -29
-20 -20 -20 -20 -21 -21 -20 -20 -20 -20 -20 -20 -20 -20 -21 -23 -24 -25 -26 -26 -26 -26 -26 -26 -26 -26 -26 -26 -27 -27 -28 -29 -30 -30 -31 -32 -32 -31 -31 -30 -29 -29 -29
-20 -20 -20 -21 -21 -20 -20 -21 -20 -20 -20 -20 -20 -21 -23 -25 -25 -26 -26 -26 -26 -26 -26 -26 -26 -26 -26 -26 -27 -27 -28 -29 -29 -29 -30 -30 -30 -30 -29 -28 -28 -28 -28
-20 -21 -21 -21 -21 -20 -21 -20 -20 -20 -20 -20 -21 -22 -24 -25 -26 -26 -26 -26 -26 -26 -26 -27 -26 -26 -26 -26 -27 -27 -28 -29 -29 -29 -29 -29 -29 -28 -28 -28 -28 -27 -27
-21 -21 -21 -21 -21 -21 -21 -21 -20 -20 -20 -21 -22 -23 -25 -26 -26 -26 -26 -26 -26 -26 -27 -27 -26 -26 -26 -27 -27 -27 -28 -28 -29 -29 -28 -28 -28 -28 -27 -27 -27 -26 -26
-21 -21 -21 -21 -21 -21 -21 -21 -21 -20 -21 -22 -23 -24 -25 -26 -26 -26 -26 -26 -26 -26 -27 -27 -27 -26 -26 -26 -27 -27 -27 -28 -28 -28 -28 -28 -27 -27 -27 -27 -26 -26 -26

GFSGL_500_temp_051.txt.gz
Temp
-14 -14 -14 -15 -15 -15 -15 -15 -14 -14 -15 -15 -15 -15 -16 -16 -16 -15 -16 -16 -16 -16 -16 -16 -16 -16 -16 -16 -16 -16 -17 -16 -16 -17 -17 -17 -17 -18 -18 -18 -18 -18 -18
-15 -15 -15 -15 -15 -15 -16 -15 -15 -15 -15 -15 -15 -16 -16 -15 -16 -16 -16 -16 -16 -16 -16 -16 -16 -16 -17 -17 -17 -17 -17 -17 -17 -17 -18 -18 -18 -18 -18 -18 -18 -18 -18
-16 -16 -16 -16 -16 -16 -15 -15 -15 -15 -15 -15 -15 -15 -16 -16 -16 -15 -16 -16 -16 -16 -16 -16 -17 -17 -17 -17 -17 -18 -18 -18 -18 -18 -18 -18 -19 -19 -18 -18 -18 -18 -18
-18 -17 -16 -16 -16 -16 -16 -15 -15 -15 -16 -16 -16 -16 -16 -15 -15 -15 -16 -16 -17 -17 -16 -17 -17 -17 -17 -18 -18 -18 -18 -19 -19 -19 -18 -19 -19 -18 -18 -18 -18 -18 -19
-19 -17 -16 -16 -16 -16 -16 -15 -15 -15 -16 -16 -16 -16 -15 -15 -16 -16 -16 -17 -17 -17 -17 -17 -17 -18 -18 -18 -18 -18 -19 -19 -19 -19 -19 -19 -19 -18 -18 -18 -19 -21 -24
-18 -17 -17 -16 -16 -16 -16 -16 -16 -16 -16 -16 -16 -16 -16 -15 -16 -16 -17 -17 -17 -17 -17 -18 -18 -18 -18 -18 -19 -19 -19 -19 -19 -19 -19 -19 -18 -19 -19 -20 -23 -24 -24
-17 -17 -16 -16 -16 -16 -15 -15 -16 -16 -16 -16 -16 -16 -16 -16 -16 -17 -17 -17 -17 -18 -18 -18 -18 -18 -19 -19 -19 -19 -19 -19 -19 -19 -18 -19 -19 -21 -23 -24 -24 -24 -25
-17 -17 -16 -15 -16 -15 -15 -16 -16 -16 -16 -15 -16 -16 -16 -17 -17 -17 -17 -18 -18 -18 -18 -18 -19 -19 -19 -19 -19 -19 -19 -19 -19 -19 -19 -20 -23 -25 -24 -24 -24 -24 -25
-16 -16 -16 -15 -15 -15 -16 -16 -15 -16 -16 -16 -16 -16 -17 -17 -17 -17 -18 -18 -18 -19 -19 -19 -19 -19 -19 -19 -19 -19 -19 -19 -19 -20 -22 -25 -25 -25 -26 -26 -26 -27 -27
-16 -17 -15 -16 -16 -16 -17 -17 -16 -16 -16 -16 -17 -17 -17 -17 -17 -18 -18 -18 -18 -19 -20 -20 -19 -19 -19 -19 -19 -19 -19 -20 -22 -24 -25 -26 -26 -27 -27 -27 -27 -28 -28
-17 -16 -16 -16 -16 -16 -16 -16 -16 -16 -17 -17 -17 -17 -17 -18 -18 -18 -18 -19 -19 -20 -20 -20 -20 -20 -19 -19 -20 -20 -21 -23 -25 -25 -26 -26 -27 -27 -28 -28 -28 -28 -29
-16 -16 -15 -16 -16 -16 -16 -16 -16 -17 -16 -17 -17 -17 -18 -18 -19 -19 -19 -19 -19 -19 -19 -20 -19 -19 -19 -20 -20 -21 -24 -25 -25 -26 -26 -27 -27 -28 -28 -28 -29 -29 -29
-17 -17 -17 -17 -17 -17 -17 -17 -17 -17 -17 -17 -18 -18 -18 -19 -19 -19 -20 -20 -20 -20 -19 -19 -19 -19 -20 -21 -22 -25 -25 -26 -26 -26 -27 -27 -28 -28 -29 -29 -29 -30 -30
-17 -17 -17 -17 -17 -16 -16 -16 -17 -17 -18 -18 -19 -19 -19 -19 -20 -20 -20 -20 -19 -19 -20 -20 -20 -21 -21 -23 -25 -25 -26 -26 -26 -27 -27 -28 -28 -29 -29 -30 -30 -30 -31
-16 -16 -16 -16 -16 -16 -17 -17 -18 -18 -19 -19 -19 -19 -20 -20 -20 -20 -19 -19 -19 -20 -20 -20 -21 -22 -24 -25 -25 -26 -26 -26 -26 -27 -28 -28 -29 -29 -30 -30 -31 -31 -31
-16 -16 -16 -17 -17 -17 -18 -18 -19 -19 -19 -19 -19 -20 -20 -20 -19 -19 -20 -20 -20 -20 -21 -22 -22 -24 -25 -26 -26 -26 -26 -26 -27 -27 -28 -29 -30 -30 -31 -31 -31 -31 -31
-17 -17 -17 -18 -18 -18 -19 -19 -19 -19 -20 -20 -20 -20 -20 -19 -19 -19 -19 -20 -20 -21 -22 -23 -25 -25 -26 -26 -26 -26 -26 -27 -27 -28 -29 -30 -30 -31 -32 -32 -32 -31 -31
-17 -18 -18 -18 -19 -19 -19 -19 -20 -20 -20 -20 -20 -20 -20 -20 -19 -19 -20 -21 -22 -23 -24 -25 -26 -26 -26 -26 -26 -26 -26 -27 -28 -29 -30 -30 -31 -33 -33 -33 -32 -31 -30
-18 -18 -19 -19 -19 -20 -20 -20 -20 -20 -20 -20 -20 -20 -20 -20 -20 -20 -21 -22 -23 -24 -25 -26 -26 -26 -26 -26 -26 -26 -27 -28 -29 -29 -30 -31 -31 -32 -32 -32 -31 -30 -29
-19 -19 -19 -19 -20 -20 -20 -20 -20 -20 -20 -20 -20 -20 -20 -20 -20 -21 -23 -24 -25 -26 -26 -26 -26 -26 -26 -26 -26 -27 -28 -29 -29 -29 -30 -30 -30 -30 -30 -29 -29 -29 -29
-19 -19 -19 -20 -20 -20 -20 -20 -20 -20 -20 -20 -20 -20 -20 -20 -20 -22 -24 -26 -26 -26 -26 -26 -26 -26 -26 -26 -27 -27 -28 -28 -29 -29 -29 -28 -28 -28 -28 -28 -28 -28 -28
-19 -20 -20 -20 -20 -20 -20 -20 -20 -20 -20 -20 -20 -20 -20 -20 -22 -24 -26 -26 -26 -26 -26 -26 -26 -26 -26 -26 -27 -27 -28 -28 -28 -28 -28 -28 -28 -28 -28 -28 -27 -27 -26
-20 -20 -20 -20 -20 -20 -21 -21 -21 -20 -20 -20 -20 -20 -20 -22 -24 -25 -26 -26 -26 -26 -26 -26 -26 -26 -26 -26 -27 -27 -28 -28 -28 -28 -28 -28 -27 -27 -27 -26 -26 -26 -26
-20 -20 -20 -20 -21 -21 -21 -21 -21 -21 -20 -20 -20 -20 -22 -23 -25 -26 -26 -26 -26 -26 -26 -26 -27 -26 -26 -26 -27 -27 -27 -28 -28 -27 -27 -27 -27 -26 -26 -26 -26 -26 -26
-20 -20 -20 -21 -21 -21 -21 -21 -21 -21 -20 -21 -21 -22 -24 -25 -25 -25 -26 -26 -26 -26 -26 -27 -27 -26 -26 -26 -26 -27 -27 -27 -28 -28 -27 -27 -27 -26 -26 -26 -26 -26 -26
-21 -21 -21 -21 -21 -21 -21 -21 -21 -21 -21 -21 -23 -24 -24 -25 -25 -25 -26 -26 -26 -26 -27 -27 -27 -27 -26 -26 -26 -26 -27 -27 -27 -27 -27 -27 -27 -26 -26 -26 -26 -26 -26

GFSGL_500_temp_054.txt.gz
Temp
-15 -15 -15 -15 -15 -14 -15 -15 -15 -15 -15 -15 -15 -15 -15 -15 -15 -15 -15 -14 -15 -16 -15 -15 -16 -16 -16 -16 -16 -16 -17 -17 -16 -16 -17 -17 -17 -18 -18 -18 -18 -18 -18
-16 -17 -16 -15 -15 -15 -15 -15 -15 -16 -16 -15 -15 -15 -15 -15 -16 -15 -15 -15 -16 -15 -15 -16 -16 -16 -16 -16 -17 -17 -17 -17 -17 -17 -17 -17 -18 -18 -18 -18 -18 -18 -18
-17 -17 -17 -16 -16 -16 -16 -16 -16 -16 -16 -16 -15 -15 -15 -15 -15 -15 -16 -16 -16 -16 -16 -16 -16 -16 -17 -17 -17 -17 -17 -17 -18 -18 -18 -18 -18 -19 -18 -18 -18 -18 -18
-18 -18 -17 -17 -16 -17 -16 -16 -16 -16 -16 -15 -15 -15 -15 -15 -15 -16 -15 -16 -16 -16 -16 -16 -16 -17 -17 -17 -18 -18 -18 -18 -19 -19 -19 -19 -19 -19 -19 -18 -18 -19 -19
-19 -18 -18 -17 -17 -16 -16 -16 -17 -16 -16 -15 -15 -15 -16 -16 -15 -16 -16 -16 -16 -16 -16 -16 -17 -17 -18 -18 -18 -18 -18 -19 -19 -19 -19 -19 -19 -19 -19 -19 -19 -19 -20
-19 -19 -18 -17 -17 -16 -16 -16 -17 -16 -16 -15 -15 -14 -16 -16 -16 -16 -16 -16 -16 -17 -17 -17 -17 -18 -17 -18 -18 -19 -19 -19 -19 -19 -19 -19 -19 -19 -19 -19 -20 -22 -24
-19 -19 -18 -17 -16 -16 -17 -16 -16 -15 -15 -15 -16 -17 -16 -16 -16 -16 -16 -17 -17 -17 -17 -17 -17 -18 -18 -19 -19 -19 -19 -20 -20 -19 -19 -19 -19 -19 -20 -21 -25 -25 -25
-19 -18 -18 -17 -17 -17 -16 -16 -16 -17 -16 -16 -16 -16 -16 -15 -15 -16 -17 -17 -17 -17 -17 -18 -18 -19 -19 -19 -19 -19 -20 -20 -19 -20 -19 -20 -20 -21 -24 -25 -26 -26 -26
-18 -18 -17 -17 -17 -16 -16 -17 -16 -16 -17 -17 -16 -16 -17 -17 -16 -16 -17 -17 -17 -17 -18 -18 -19 -19 -20 -20 -20 -19 -20 -20 -20 -20 -20 -21 -23 -25 -26 -26 -26 -26 -27
-18 -17 -17 -17 -16 -16 -16 -16 -16 -17 -17 -16 -15 -17 -17 -17 -16 -17 -17 -17 -18 -19 -19 -19 -19 -20 -20 -20 -20 -20 -20 -20 -20 -21 -22 -25 -26 -26 -26 -27 -27 -27 -27
-17 -17 -17 -16 -17 -17 -16 -17 -16 -16 -16 -17 -16 -17 -17 -16 -17 -17 -18 -18 -19 -19 -20 -20 -20 -20 -20 -20 -20 -20 -20 -20 -21 -24 -26 -26 -26 -27 -27 -27 -27 -28 -28
-16 -17 -17 -17 -17 -16 -16 -16 -17 -16 -17 -17 -16 -16 -17 -17 -18 -18 -18 -19 -19 -20 -20 -20 -20 -20 -20 -20 -20 -20 -21 -22 -25 -26 -26 -26 -26 -27 -27 -28 -29 -29 -30
-16 -17 -17 -17 -17 -17 -17 -17 -17 -16 -17 -16 -17 -17 -18 -18 -18 -19 -19 -20 -20 -20 -20 -19 -19 -20 -20 -20 -21 -21 -23 -25 -26 -26 -26 -26 -27 -27 -28 -29 -30 -30 -30
-17 -17 -17 -17 -17 -17 -17 -17 -17 -17 -17 -18 -18 -18 -19 -19 -19 -20 -20 -20 -20 -20 -20 -20 -20 -20 -20 -21 -22 -25 -26 -26 -26 -26 -26 -27 -27 -28 -29 -30 -31 -31 -31
-17 -17 -17 -17 -17 -17 -17 -17 -17 -18 -18 -18 -19 -19 -20 -20 -20 -20 -19 -20 -19 -19 -20 -20 -20 -21 -22 -24 -25 -26 -26 -26 -26 -26 -27 -28 -28 -29 -30 -31 -32 -32 -32
-17 -17 -17 -17 -17 -17 -17 -18 -18 -19 -19 -19 -20 -20 -19 -20 -20 -20 -19 -19 -19 -20 -20 -21 -22 -23 -25 -26 -26 -26 -26 -26 -26 -27 -28 -28 -28 -29 -31 -32 -32 -32 -32
-17 -17 -17 -17 -17 -18 -18 -19 -19 -19 -20 -20 -20 -20 -20 -20 -19 -19 -19 -20 -20 -20 -21 -23 -24 -26 -26 -26 -26 -26 -26 -26 -27 -27 -28 -28 -28 -28 -29 -30 -30 -30 -30
-17 -17 -18 -18 -18 -19 -19 -19 -19 -19 -20 -20 -20 -20 -20 -20 -19 -20 -20 -20 -20 -22 -24 -25 -26 -26 -26 -26 -26 -26 -26 -27 -27 -27 -28 -28 -28 -28 -28 -28 -29 -29 -29
-18 -18 -18 -19 -19 -19 -19 -20 -20 -20 -20 -20 -20 -20 -20 -20 -20 -20 -19 -20 -22 -24 -26 -26 -26 -26 -26 -26 -26 -26 -27 -27 -27 -27 -27 -28 -28 -28 -28 -28 -28 -27 -28
-18 -19 -19 -19 -19 -20 -20 -20 -20 -20 -20 -20 -20 -20 -20 -20 -20 -19 -21 -23 -24 -26 -26 -26 -26 -26 -26 -26 -26 -27 -27 -27 -27 -27 -27 -27 -27 -27 -27 -27 -27 -27 -27
-19 -19 -19 -20 -20 -20 -20 -20 -21 -21 -21 -21 -20 -20 -20 -20 -20 -21 -23 -25 -26 -26 -26 -26 -26 -26 -26 -26 -26 -27 -27 -27 -27 -27 -27 -27 -26 -26 -26 -26 -26 -26 -26
-19 -19 -20 -20 -20 -20 -20 -21 -21 -21 -21 -21 -20 -20 -20 -20 -21 -23 -24 -25 -25 -26 -26 -26 -26 -26 -26 -26 -26 -27 -27 -27 -27 -27 -27 -26 -26 -26 -26 -26 -26 -26 -26
-19 -20 -20 -20 -20 -21 -21 -21 -21 -21 -21 -21 -21 -20 -21 -22 -22 -24 -25 -25 -25 -26 -26 -26 -26 -26 -26 -26 -26 -26 -27 -27 -27 -27 -27 -27 -26 -26 -26 -26 -26 -26 -26
-20 -20 -20 -21 -21 -21 -21 -21 -21 -21 -21 -21 -21 -21 -22 -23 -24 -25 -25 -25 -26 -26 -26 -26 -26 -26 -26 -26 -26 -26 -26 -27 -27 -27 -27 -26 -26 -26 -26 -26 -26 -26 -26
-20 -21 -21 -21 -21 -21 -21 -21 -21 -21 -21 -21 -21 -21 -24 -24 -24 -25 -25 -25 -26 -26 -26 -26 -26 -26 -26 -26 -26 -26 -26 -26 -27 -27 -27 -27 -26 -26 -26 -26 -26 -26 -25
-21 -21 -21 -21 -21 -21 -22 -21 -21 -21 -21 -21 -22 -22 -24 -25 -25 -25 -25 -26 -26 -26 -26 -26 -26 -27 -26 -26 -26 -26 -26 -26 -26 -27 -27 -27 -26 -26 -26 -26 -25 -25 -25

GFSGL_500_temp_057.txt.gz
Temp
-15 -15 -15 -15 -14 -15 -14 -15 -14 -14 -15 -15 -15 -15 -15 -15 -15 -15 -15 -16 -16 -15 -15 -15 -15 -16 -16 -16 -16 -17 -17 -16 -16 -16 -16 -17 -17 -17 -17 -17 -17 -17 -18
-17 -16 -16 -16 -16 -15 -15 -15 -15 -15 -16 -15 -16 -16 -16 -16 -16 -15 -16 -16 -15 -15 -15 -16 -16 -16 -16 -16 -16 -17 -16 -17 -17 -17 -17 -17 -17 -17 -17 -18 -18 -18 -18
-19 -18 -17 -17 -17 -16 -16 -16 -16 -16 -16 -15 -15 -15 -16 -16 -16 -15 -16 -15 -16 -16 -16 -16 -16 -17 -16 -16 -16 -17 -17 -17 -17 -17 -17 -18 -18 -18 -18 -19 -19 -19 -19
-20 -19 -19 -19 -18 -17 -17 -17 -16 -16 -16 -16 -16 -16 -16 -16 -16 -16 -16 -16 -16 -16 -16 -16 -16 -17 -17 -16 -17 -17 -17 -18 -18 -18 -18 -18 -19 -19 -19 -19 -19 -19 -19
-21 -21 -20 -20 -19 -18 -18 -18 -17 -16 -16 -16 -16 -17 -17 -16 -16 -16 -16 -16 -17 -15 -16 -16 -17 -17 -17 -17 -17 -18 -18 -18 -18 -19 -19 -19 -19 -19 -19 -19 -19 -19 -19
-20 -20 -20 -20 -19 -18 -18 -18 -18 -17 -16 -16 -16 -16 -17 -16 -16 -16 -16 -16 -16 -16 -17 -17 -17 -17 -17 -18 -18 -17 -18 -18 -19 -19 -19 -19 -19 -19 -19 -19 -19 -19 -19
-20 -20 -19 -20 -19 -18 -17 -17 -17 -16 -16 -16 -16 -16 -16 -16 -16 -16 -17 -16 -16 -16 -17 -17 -17 -17 -18 -18 -18 -18 -19 -20 -19 -19 -19 -19 -20 -20 -19 -19 -20 -20 -23
-19 -20 -19 -19 -18 -18 -17 -17 -16 -16 -16 -16 -16 -17 -16 -16 -17 -17 -17 -16 -17 -17 -17 -17 -17 -17 -18 -18 -19 -19 -19 -20 -20 -20 -20 -20 -20 -20 -20 -20 -22 -25 -26
-19 -19 -19 -19 -18 -17 -17 -16 -16 -16 -16 -17 -17 -17 -16 -16 -16 -16 -17 -17 -17 -17 -18 -17 -17 -18 -19 -19 -19 -19 -20 -20 -20 -20 -20 -20 -20 -21 -23 -25 -26 -26 -26
-18 -19 -18 -17 -17 -17 -17 -17 -17 -16 -17 -17 -17 -17 -17 -16 -17 -17 -17 -17 -18 -18 -18 -18 -18 -19 -19 -19 -19 -20 -20 -20 -20 -20 -20 -21 -23 -25 -26 -26 -26 -26 -26
-17 -17 -17 -17 -17 -17 -17 -17 -17 -17 -17 -17 -16 -17 -17 -16 -17 -17 -17 -18 -18 -19 -19 -19 -19 -19 -20 -20 -20 -20 -20 -20 -20 -21 -23 -25 -26 -26 -26 -26 -27 -27 -28
-17 -17 -17 -17 -17 -17 -17 -17 -17 -17 -17 -17 -17 -17 -17 -18 -17 -17 -18 -18 -18 -19 -19 -19 -20 -20 -20 -20 -20 -20 -20 -21 -22 -25 -26 -26 -26 -26 -27 -27 -28 -28 -30
-17 -17 -17 -17 -17 -17 -17 -17 -17 -17 -17 -17 -17 -18 -18 -18 -18 -18 -18 -19 -19 -19 -20 -20 -20 -20 -20 -20 -20 -21 -22 -25 -26 -26 -26 -26 -26 -27 -27 -27 -28 -29 -31
-17 -17 -17 -17 -17 -17 -17 -17 -17 -17 -17 -18 -18 -18 -18 -18 -19 -19 -19 -19 -19 -19 -19 -20 -20 -20 -20 -21 -22 -24 -26 -26 -26 -26 -26 -26 -27 -27 -27 -27 -28 -28 -30
-17 -17 -17 -17 -17 -17 -17 -17 -17 -18 -18 -18 -18 -19 -19 -19 -19 -19 -20 -20 -19 -20 -20 -19 -19 -20 -22 -24 -25 -26 -26 -26 -26 -26 -26 -26 -27 -27 -27 -27 -28 -28 -28
-17 -17 -17 -17 -18 -18 -18 -18 -18 -18 -18 -19 -19 -19 -19 -20 -20 -20 -20 -19 -20 -19 -19 -19 -22 -23 -25 -26 -26 -26 -26 -26 -26 -26 -26 -26 -26 -26 -27 -27 -27 -27 -27
-17 -17 -18 -18 -18 -18 -18 -18 -19 -19 -19 -19 -20 -20 -20 -20 -20 -20 -20 -20 -19 -19 -20 -22 -24 -26 -26 -26 -26 -26 -26 -27 -27 -26 -26 -26 -26 -26 -26 -26 -27 -27 -27
-18 -17 -18 -18 -18 -18 -19 -19 -19 -19 -20 -20 -20 -20 -20 -20 -20 -20 -20 -20 -19 -21 -23 -25 -26 -26 -26 -26 -26 -26 -26 -27 -27 -26 -26 -26 -26 -26 -26 -26 -26 -26 -27
-18 -18 -18 -19 -19 -19 -19 -19 -20 -20 -20 -20 -20 -20 -20 -20 -20 -20 -20 -20 -21 -22 -25 -25 -26 -26 -26 -26 -26 -26 -27 -27 -27 -27 -26 -26 -26 -26 -26 -26 -26 -26 -27
-18 -18 -19 -19 -19 -19 -19 -20 -20 -20 -20 -20 -20 -20 -20 -20 -20 -20 -21 -22 -22 -24 -25 -25 -25 -26 -26 -26 -26 -26 -26 -27 -27 -27 -27 -26 -26 -26 -26 -26 -26 -26 -26
-18 -19 -19 -19 -19 -19 -20 -20 -20 -20 -20 -20 -21 -21 -20 -20 -20 -20 -23 -23 -24 -25 -25 -25 -26 -26 -26 -26 -26 -26 -26 -27 -27 -27 -27 -27 -26 -26 -26 -26 -26 -26 -26
-19 -19 -19 -19 -19 -20 -20 -20 -20 -21 -21 -21 -21 -21 -21 -20 -21 -22 -24 -24 -25 -25 -25 -26 -26 -26 -26 -26 -26 -26 -26 -26 -27 -27 -27 -27 -26 -26 -26 -26 -26 -26 -26
-19 -19 -19 -20 -20 -20 -20 -21 -21 -21 -21 -21 -21 -21 -21 -21 -21 -24 -24 -25 -25 -25 -26 -26 -26 -26 -26 -26 -26 -26 -26 -26 -27 -27 -27 -27 -27 -26 -26 -26 -26 -26 -26
-19 -19 -20 -20 -20 -20 -21 -21 -21 -21 -21 -21 -21 -21 -21 -22 -22 -25 -25 -25 -25 -26 -26 -26 -26 -26 -26 -26 -26 -26 -26 -26 -26 -27 -27 -27 -26 -26 -26 -25 -25 -25 -25
-19 -20 -20 -20 -21 -21 -21 -22 -22 -22 -22 -22 -21 -21 -22 -22 -23 -25 -25 -26 -26 -26 -26 -26 -26 -26 -26 -26 -26 -26 -26 -26 -26 -26 -26 -27 -27 -26 -26 -25 -25 -25 -25
-20 -20 -20 -21 -21 -21 -22 -22 -22 -22 -22 -22 -22 -22 -22 -22 -24 -26 -26 -26 -26 -26 -26 -26 -26 -26 -26 -26 -26 -26 -26 -26 -26 -26 -26 -26 -26 -26 -26 -25 -25 -25 -25

GFSGL_500_temp_060.txt.gz
Temp
-14 -14 -14 -15 -15 -15 -15 -15 -14 -14 -14 -14 -15 -15 -15 -15 -16 -15 -16 -16 -16 -16 -16 -16 -16 -16 -16 -16 -17 -16 -16 -16 -17 -16 -17 -17 -17 -17 -17 -17 -18 -17 -18
-14 -15 -16 -16 -16 -16 -16 -15 -15 -15 -15 -15 -15 -15 -15 -16 -16 -16 -16 -16 -16 -16 -16 -16 -16 -17 -16 -17 -16 -16 -16 -17 -17 -17 -16 -17 -17 -18 -18 -18 -18 -19 -19
-16 -17 -18 -18 -18 -18 -17 -16 -16 -15 -16 -16 -16 -16 -15 -15 -15 -16 -16 -16 -16 -16 -16 -16 -17 -16 -16 -16 -17 -17 -17 -17 -17 -16 -17 -17 -18 -18 -18 -18 -19 -19 -19
-18 -19 -19 -19 -20 -20 -20 -19 -18 -17 -17 -17 -16 -16 -16 -16 -16 -16 -16 -16 -16 -16 -16 -16 -16 -16 -17 -17 -17 -17 -17 -17 -17 -17 -17 -18 -18 -19 -19 -19 -19 -19 -19
-19 -20 -20 -20 -19 -20 -20 -20 -19 -19 -18 -17 -17 -17 -17 -16 -16 -16 -16 -16 -17 -17 -17 -17 -17 -16 -17 -16 -17 -17 -17 -17 -18 -18 -19 -19 -19 -19 -19 -19 -19 -19 -19
-19 -20 -20 -20 -20 -20 -20 -20 -19 -19 -18 -18 -18 -17 -17 -16 -17 -16 -16 -17 -17 -17 -17 -17 -17 -17 -17 -17 -17 -17 -17 -18 -19 -19 -19 -19 -19 -19 -19 -19 -19 -19 -19
-19 -20 -20 -20 -19 -20 -20 -19 -18 -19 -18 -18 -18 -18 -17 -16 -17 -17 -17 -17 -17 -17 -17 -16 -17 -17 -17 -17 -17 -18 -19 -19 -19 -19 -19 -20 -20 -20 -20 -20 -20 -20 -20
-18 -19 -19 -19 -20 -20 -19 -18 -18 -18 -18 -18 -17 -18 -17 -16 -17 -16 -16 -17 -17 -17 -17 -17 -17 -17 -17 -18 -19 -19 -19 -19 -20 -20 -20 -20 -20 -20 -20 -20 -21 -22 -25
-18 -19 -18 -18 -19 -19 -19 -18 -18 -18 -18 -17 -17 -17 -17 -17 -17 -17 -17 -17 -17 -17 -17 -17 -17 -18 -19 -19 -19 -19 -19 -20 -20 -20 -20 -20 -20 -21 -22 -23 -25 -25 -25
-17 -17 -18 -18 -18 -18 -18 -18 -18 -18 -18 -17 -17 -17 -17 -17 -17 -17 -17 -17 -17 -18 -18 -18 -18 -19 -19 -19 -19 -19 -20 -20 -20 -20 -21 -21 -22 -24 -25 -25 -25 -25 -26
-16 -17 -17 -17 -17 -18 -18 -18 -17 -17 -17 -17 -17 -17 -17 -17 -17 -17 -17 -17 -18 -18 -19 -19 -19 -19 -19 -19 -20 -20 -19 -20 -21 -21 -22 -25 -25 -25 -25 -26 -26 -26 -26
-16 -16 -17 -17 -17 -17 -17 -17 -17 -17 -17 -17 -17 -17 -17 -18 -18 -18 -18 -19 -19 -18 -19 -19 -19 -19 -19 -19 -19 -19 -20 -21 -23 -24 -25 -25 -26 -26 -26 -26 -26 -26 -26
-16 -17 -17 -17 -17 -17 -17 -17 -17 -17 -17 -17 -17 -18 -18 -18 -18 -19 -19 -18 -19 -19 -19 -19 -19 -19 -19 -19 -20 -22 -23 -25 -26 -26 -26 -26 -26 -26 -25 -26 -26 -26 -26
-17 -17 -17 -17 -17 -17 -17 -17 -18 -18 -18 -18 -18 -19 -19 -19 -19 -19 -19 -19 -19 -19 -19 -19 -19 -19 -20 -21 -23 -25 -25 -26 -26 -26 -26 -26 -26 -26 -25 -25 -25 -25 -26
-17 -17 -17 -17 -18 -18 -18 -18 -18 -18 -19 -19 -19 -19 -19 -19 -19 -19 -19 -20 -20 -19 -19 -19 -19 -21 -21 -24 -25 -25 -26 -26 -26 -27 -26 -26 -26 -26 -26 -25 -25 -25 -26
-18 -18 -18 -18 -18 -18 -18 -19 -19 -19 -19 -19 -19 -19 -19 -19 -20 -19 -20 -20 -20 -20 -19 -20 -22 -22 -25 -25 -25 -25 -25 -26 -27 -27 -26 -26 -26 -26 -25 -25 -25 -26 -26
-18 -18 -18 -18 -18 -18 -19 -19 -19 -19 -19 -19 -19 -19 -20 -20 -20 -20 -20 -20 -20 -20 -20 -22 -23 -24 -25 -25 -25 -26 -26 -26 -27 -27 -26 -26 -26 -25 -25 -25 -26 -26 -26
-18 -18 -18 -18 -19 -19 -19 -19 -19 -19 -19 -20 -20 -20 -20 -20 -20 -20 -20 -20 -20 -21 -23 -24 -24 -25 -25 -25 -26 -26 -26 -26 -26 -27 -27 -26 -26 -26 -25 -26 -26 -26 -26
-18 -18 -18 -19 -19 -19 -19 -19 -19 -20 -20 -20 -20 -20 -20 -20 -20 -20 -20 -20 -20 -23 -24 -24 -25 -25 -25 -25 -26 -26 -26 -26 -26 -27 -27 -27 -26 -26 -26 -26 -26 -26 -26
-19 -19 -19 -19 -19 -19 -19 -19 -20 -20 -20 -20 -20 -20 -20 -20 -20 -20 -20 -21 -21 -24 -24 -25 -25 -25 -25 -25 -26 -26 -26 -26 -26 -26 -27 -27 -27 -26 -26 -26 -26 -26 -26
-19 -19 -19 -19 -19 -19 -19 -19 -20 -20 -20 -21 -21 -21 -21 -21 -21 -20 -21 -21 -23 -25 -25 -25 -26 -26 -26 -26 -26 -26 -26 -26 -26 -26 -27 -27 -27 -27 -26 -26 -26 -26 -25
-19 -19 -19 -19 -19 -20 -20 -20 -20 -20 -21 -21 -21 -21 -21 -21 -21 -21 -21 -21 -24 -25 -25 -26 -26 -26 -26 -26 -26 -26 -26 -26 -26 -26 -26 -27 -27 -27 -26 -26 -25 -25 -25
-19 -19 -19 -19 -20 -20 -20 -20 -20 -21 -21 -21 -21 -21 -21 -21 -21 -21 -21 -22 -25 -26 -26 -26 -26 -26 -26 -26 -27 -27 -27 -26 -26 -26 -26 -26 -27 -27 -26 -26 -25 -25 -25
-19 -19 -19 -20 -20 -20 -20 -21 -21 -21 -21 -22 -22 -22 -22 -21 -22 -22 -22 -22 -25 -26 -26 -26 -26 -26 -26 -26 -26 -26 -26 -26 -26 -26 -26 -26 -26 -26 -26 -26 -25 -25 -25
-19 -20 -20 -20 -20 -20 -21 -21 -21 -21 -22 -22 -22 -22 -22 -22 -22 -22 -22 -23 -25 -26 -26 -26 -26 -27 -27 -27 -27 -27 -27 -26 -26 -26 -26 -26 -26 -26 -26 -26 -25 -25 -24
-20 -20 -20 -20 -20 -21 -21 -21 -21 -22 -22 -22 -22 -22 -22 -22 -22 -22 -22 -24 -26 -27 -26 -26 -27 -27 -27 -27 -27 -27 -27 -27 -27 -26 -26 -26 -26 -26 -26 -26 -25 -25 -24

GFSGL_500_temp_063.txt.gz
Temp
-13 -13 -14 -14 -14 -14 -14 -15 -15 -15 -15 -15 -14 -15 -15 -15 -16 -16 -15 -15 -15 -16 -16 -16 -16 -16 -16 -16 -16 -16 -16 -16 -17 -16 -17 -17 -17 -17 -17 -17 -17 -17 -17
-13 -14 -14 -15 -15 -16 -16 -16 -17 -17 -17 -16 -16 -16 -15 -16 -16 -16 -16 -15 -15 -15 -16 -16 -16 -16 -16 -16 -16 -16 -17 -17 -16 -16 -16 -17 -17 -17 -17 -17 -17 -18 -18
-13 -14 -16 -16 -16 -17 -17 -18 -18 -18 -18 -17 -17 -17 -16 -16 -16 -16 -16 -16 -16 -16 -16 -16 -17 -16 -16 -16 -16 -16 -17 -17 -17 -17 -17 -17 -17 -18 -18 -18 -18 -19 -19
-15 -16 -16 -16 -17 -18 -18 -19 -19 -19 -19 -19 -19 -18 -17 -17 -16 -16 -17 -17 -16 -16 -16 -17 -16 -16 -17 -16 -16 -17 -17 -17 -17 -17 -17 -17 -17 -18 -18 -18 -19 -19 -20
-15 -16 -17 -17 -18 -19 -19 -19 -19 -19 -20 -20 -20 -20 -19 -18 -18 -18 -17 -17 -17 -17 -16 -16 -16 -17 -17 -16 -17 -17 -17 -17 -17 -17 -17 -18 -18 -18 -19 -19 -19 -19 -20
-15 -16 -17 -17 -18 -19 -18 -19 -20 -20 -20 -19 -19 -19 -18 -18 -18 -18 -18 -17 -17 -17 -16 -17 -17 -17 -17 -17 -17 -17 -17 -17 -17 -19 -19 -19 -19 -19 -19 -19 -19 -19 -19
-15 -16 -17 -17 -18 -18 -19 -19 -19 -19 -19 -19 -17 -19 -18 -18 -18 -18 -17 -17 -17 -17 -17 -17 -17 -17 -17 -17 -17 -17 -18 -18 -19 -19 -19 -19 -19 -19 -19 -19 -20 -20 -21
-15 -16 -17 -17 -18 -18 -19 -19 -19 -18 -18 -18 -18 -18 -18 -18 -17 -18 -17 -17 -17 -17 -17 -17 -17 -17 -17 -17 -18 -19 -19 -19 -19 -19 -19 -19 -19 -19 -20 -20 -20 -22 -24
-15 -16 -16 -17 -17 -18 -18 -18 -18 -18 -18 -18 -18 -18 -18 -18 -18 -18 -17 -17 -17 -17 -17 -17 -17 -18 -19 -19 -19 -19 -19 -19 -19 -19 -19 -19 -20 -20 -21 -23 -24 -25 -24
-15 -15 -16 -16 -17 -17 -17 -17 -17 -18 -17 -18 -17 -18 -18 -18 -18 -17 -17 -17 -17 -18 -18 -18 -19 -19 -19 -19 -19 -19 -19 -19 -19 -19 -20 -21 -22 -24 -25 -25 -24 -25 -24
-15 -15 -16 -17 -17 -17 -17 -18 -17 -17 -18 -18 -18 -18 -18 -18 -18 -18 -18 -18 -18 -18 -18 -19 -19 -19 -19 -19 -19 -19 -19 -19 -20 -21 -23 -25 -25 -25 -25 -25 -25 -25 -25
-16 -16 -16 -17 -17 -17 -17 -18 -18 -18 -18 -18 -18 -18 -18 -18 -18 -18 -18 -19 -19 -19 -19 -19 -19 -19 -19 -19 -18 -19 -20 -22 -24 -25 -25 -25 -25 -25 -25 -25 -25 -25 -25
-16 -16 -17 -17 -17 -17 -17 -17 -17 -17 -17 -18 -18 -18 -18 -18 -18 -19 -19 -19 -19 -19 -19 -20 -19 -19 -19 -19 -20 -22 -24 -25 -25 -25 -25 -26 -26 -25 -25 -26 -25 -25 -25
-17 -17 -17 -17 -17 -17 -17 -18 -18 -18 -18 -18 -18 -19 -19 -19 -19 -19 -19 -19 -19 -20 -20 -19 -19 -19 -19 -21 -22 -24 -24 -25 -25 -26 -26 -26 -26 -26 -25 -25 -25 -25 -25
-17 -17 -17 -17 -18 -18 -18 -19 -19 -19 -19 -19 -19 -19 -19 -19 -19 -19 -19 -20 -20 -19 -20 -20 -20 -20 -22 -24 -24 -25 -25 -25 -25 -26 -26 -26 -26 -26 -25 -25 -25 -25 -25
-18 -18 -18 -18 -18 -18 -18 -19 -19 -19 -19 -19 -20 -20 -19 -19 -20 -20 -20 -20 -20 -20 -20 -20 -20 -22 -24 -24 -25 -25 -25 -25 -25 -26 -26 -26 -26 -26 -26 -25 -25 -25 -26
-18 -18 -18 -18 -18 -18 -19 -19 -19 -19 -19 -19 -19 -20 -20 -20 -20 -20 -20 -20 -20 -20 -20 -20 -21 -24 -24 -25 -25 -25 -25 -25 -25 -25 -26 -26 -26 -26 -26 -26 -25 -25 -26
-18 -18 -18 -18 -18 -19 -19 -19 -19 -19 -19 -19 -20 -20 -20 -20 -20 -20 -20 -20 -20 -20 -21 -21 -23 -24 -25 -25 -25 -25 -25 -26 -25 -25 -26 -26 -26 -26 -26 -26 -25 -25 -26
-18 -18 -18 -18 -19 -19 -19 -19 -19 -19 -19 -19 -20 -20 -20 -21 -21 -21 -21 -21 -21 -21 -21 -22 -24 -25 -25 -26 -26 -26 -26 -26 -26 -26 -26 -26 -26 -26 -26 -26 -25 -25 -25
-18 -18 -18 -19 -19 -19 -19 -19 -20 -20 -20 -20 -20 -21 -21 -21 -21 -21 -21 -21 -21 -21 -22 -23 -25 -25 -26 -26 -26 -26 -26 -26 -26 -26 -26 -26 -26 -26 -26 -26 -26 -25 -25
-18 -18 -19 -19 -19 -19 -19 -19 -20 -20 -20 -20 -20 -21 -21 -21 -21 -21 -21 -21 -21 -21 -22 -23 -26 -26 -26 -26 -26 -26 -26 -26 -26 -26 -26 -26 -26 -26 -26 -26 -26 -25 -25
-18 -19 -19 -19 -19 -19 -20 -20 -20 -20 -20 -21 -21 -21 -21 -21 -21 -21 -21 -22 -22 -22 -22 -24 -26 -26 -26 -26 -27 -27 -26 -26 -26 -26 -26 -26 -26 -26 -26 -26 -26 -25 -25
-19 -19 -19 -19 -20 -20 -20 -20 -20 -20 -21 -21 -21 -21 -22 -22 -22 -22 -22 -22 -22 -22 -22 -24 -26 -26 -26 -27 -27 -27 -27 -27 -27 -27 -26 -26 -26 -26 -26 -26 -26 -25 -25
-19 -19 -19 -20 -20 -20 -20 -20 -21 -21 -21 -21 -21 -22 -22 -22 -22 -22 -22 -22 -22 -22 -23 -25 -27 -27 -27 -27 -27 -27 -27 -27 -27 -27 -27 -26 -26 -26 -26 -26 -25 -25 -25
-19 -19 -20 -20 -20 -20 -21 -21 -21 -21 -21 -21 -22 -22 -22 -22 -22 -22 -22 -22 -22 -23 -23 -26 -27 -27 -27 -27 -27 -27 -27 -27 -27 -27 -27 -27 -26 -26 -25 -25 -25 -25 -25
-20 -20 -20 -20 -20 -21 -21 -21 -21 -21 -21 -22 -22 -22 -22 -22 -22 -23 -22 -23 -23 -23 -24 -26 -27 -27 -27 -27 -27 -27 -27 -27 -27 -27 -27 -27 -26 -26 -26 -25 -25 -25 -25

GFSGL_500_temp_066.txt.gz
Temp
-13 -13 -13 -13 -13 -13 -13 -14 -14 -15 -15 -15 -15 -15 -16 -16 -16 -16 -16 -16 -16 -16 -15 -16 -16 -15 -16 -16 -16 -16 -17 -17 -16 -16 -17 -17 -16 -16 -17 -17 -17 -17 -17
-13 -13 -13 -13 -13 -14 -14 -15 -15 -16 -16 -16 -17 -17 -17 -17 -17 -17 -17 -17 -17 -16 -16 -16 -15 -16 -16 -16 -16 -16 -16 -17 -16 -16 -16 -16 -17 -17 -17 -17 -17 -17 -17
-13 -13 -13 -13 -14 -15 -16 -16 -17 -17 -17 -17 -17 -17 -18 -18 -18 -18 -18 -18 -17 -17 -17 -17 -16 -16 -16 -16 -16 -17 -17 -17 -16 -17 -17 -17 -17 -17 -17 -17 -17 -17 -17
-13 -13 -13 -14 -15 -16 -17 -17 -18 -18 -18 -18 -18 -19 -19 -20 -20 -20 -19 -19 -18 -18 -18 -17 -17 -17 -17 -17 -17 -17 -16 -17 -17 -17 -17 -17 -17 -18 -17 -17 -18 -18 -19
-13 -13 -13 -14 -15 -16 -17 -17 -18 -18 -18 -18 -19 -19 -20 -20 -20 -20 -20 -19 -19 -18 -18 -18 -17 -17 -17 -17 -17 -17 -17 -17 -17 -17 -17 -18 -18 -18 -17 -18 -18 -19 -19
-13 -13 -13 -14 -15 -16 -16 -17 -17 -18 -18 -18 -19 -19 -20 -20 -20 -20 -19 -19 -18 -18 -18 -18 -17 -17 -17 -18 -17 -17 -18 -17 -18 -17 -18 -18 -18 -18 -18 -19 -18 -18 -19
-13 -13 -14 -14 -14 -15 -16 -17 -17 -18 -18 -19 -19 -19 -19 -20 -18 -19 -19 -19 -18 -18 -18 -17 -17 -17 -17 -17 -17 -18 -18 -18 -19 -19 -19 -18 -18 -18 -18 -19 -19 -19 -20
-14 -14 -14 -15 -15 -16 -16 -16 -16 -17 -17 -18 -18 -18 -18 -18 -18 -18 -18 -18 -18 -18 -18 -18 -18 -17 -17 -18 -19 -20 -19 -19 -19 -18 -18 -18 -18 -18 -18 -20 -21 -21 -23
-14 -14 -14 -15 -16 -16 -16 -16 -16 -17 -17 -18 -18 -18 -19 -18 -18 -18 -18 -18 -18 -18 -18 -18 -18 -18 -19 -19 -19 -19 -19 -19 -18 -18 -18 -18 -19 -20 -21 -23 -24 -24 -24
-15 -14 -15 -15 -15 -16 -16 -16 -16 -16 -17 -18 -18 -18 -18 -18 -18 -18 -18 -18 -18 -18 -19 -19 -19 -18 -19 -19 -19 -19 -19 -19 -19 -19 -20 -21 -23 -24 -24 -24 -24 -24 -24
-15 -15 -15 -15 -15 -16 -16 -17 -17 -17 -17 -18 -18 -18 -18 -18 -18 -19 -18 -18 -18 -18 -18 -18 -18 -19 -19 -19 -19 -19 -19 -19 -20 -22 -23 -24 -23 -23 -24 -25 -25 -25 -24
-16 -16 -16 -16 -16 -16 -17 -17 -17 -17 -17 -18 -18 -18 -18 -18 -18 -18 -18 -19 -19 -19 -19 -19 -19 -19 -20 -19 -19 -19 -19 -20 -22 -24 -24 -24 -24 -25 -25 -25 -25 -25 -24
-16 -16 -17 -17 -17 -17 -17 -17 -17 -17 -17 -18 -18 -18 -18 -19 -19 -19 -19 -19 -19 -19 -19 -19 -20 -20 -20 -20 -20 -20 -21 -23 -24 -24 -25 -25 -25 -25 -25 -25 -25 -25 -25
-17 -17 -17 -17 -17 -17 -17 -17 -17 -18 -18 -18 -19 -19 -19 -19 -19 -19 -19 -19 -19 -19 -20 -20 -20 -20 -20 -20 -20 -21 -24 -24 -25 -25 -25 -25 -25 -26 -26 -26 -25 -25 -25
-17 -17 -17 -17 -17 -17 -18 -18 -18 -18 -19 -19 -19 -19 -19 -20 -20 -20 -20 -20 -20 -20 -20 -20 -20 -20 -20 -20 -21 -23 -24 -25 -25 -25 -25 -25 -25 -26 -26 -26 -26 -25 -25
-18 -18 -18 -17 -17 -18 -18 -18 -18 -19 -19 -19 -19 -19 -20 -20 -20 -20 -20 -20 -20 -20 -20 -20 -20 -20 -20 -21 -22 -24 -25 -25 -25 -25 -25 -25 -26 -26 -26 -26 -26 -26 -25
-18 -18 -18 -18 -18 -18 -18 -18 -19 -19 -19 -19 -19 -19 -20 -20 -20 -20 -20 -20 -20 -21 -21 -21 -21 -21 -21 -22 -24 -25 -25 -25 -26 -26 -26 -26 -26 -26 -26 -26 -26 -26 -26
-18 -18 -18 -18 -18 -18 -18 -19 -19 -19 -19 -19 -19 -19 -20 -20 -20 -20 -21 -21 -21 -21 -21 -21 -21 -21 -22 -23 -25 -26 -26 -26 -26 -26 -26 -26 -26 -26 -26 -26 -26 -26 -26
-18 -18 -18 -18 -18 -18 -19 -19 -19 -19 -19 -19 -19 -19 -20 -20 -20 -21 -21 -21 -21 -21 -21 -21 -22 -22 -22 -24 -26 -26 -26 -26 -26 -26 -26 -26 -26 -26 -26 -26 -26 -26 -26
-18 -18 -18 -18 -18 -18 -19 -19 -19 -19 -19 -20 -20 -20 -20 -20 -21 -21 -21 -22 -22 -22 -22 -22 -22 -22 -23 -25 -26 -26 -26 -26 -26 -26 -26 -26 -26 -26 -26 -26 -26 -26 -26
-18 -18 -18 -18 -18 -19 -19 -19 -19 -20 -20 -20 -20 -20 -20 -21 -21 -21 -22 -22 -22 -22 -22 -22 -22 -22 -23 -25 -26 -26 -26 -27 -26 -26 -27 -27 -27 -27 -26 -26 -26 -26 -26
-18 -18 -18 -19 -19 -19 -19 -19 -20 -20 -20 -20 -20 -20 -21 -21 -21 -22 -22 -22 -22 -22 -22 -22 -22 -23 -23 -25 -27 -27 -27 -27 -27 -27 -27 -27 -27 -27 -26 -26 -26 -26 -26
-19 -19 -19 -19 -19 -19 -20 -20 -20 -20 -20 -21 -21 -21 -21 -21 -22 -22 -22 -22 -22 -23 -23 -23 -23 -23 -24 -26 -27 -27 -27 -27 -27 -27 -27 -27 -27 -27 -27 -26 -26 -26 -26
-19 -19 -19 -19 -19 -20 -20 -20 -20 -21 -21 -21 -21 -21 -21 -22 -22 -22 -22 -23 -23 -23 -23 -23 -23 -23 -24 -27 -27 -27 -27 -27 -27 -27 -27 -27 -27 -27 -27 -27 -26 -26 -25
-19 -19 -19 -19 -20 -20 -20 -21 -21 -21 -21 -21 -21 -22 -22 -22 -22 -22 -22 -23 -23 -23 -23 -23 -23 -24 -26 -28 -27 -27 -27 -27 -27 -27 -27 -27 -27 -27 -27 -26 -26 -25 -25
-19 -19 -19 -20 -20 -20 -21 -21 -21 -21 -22 -22 -22 -22 -22 -22 -22 -22 -23 -23 -23 -23 -23 -23 -24 -26 -28 -28 -28 -28 -27 -27 -27 -27 -27 -27 -27 -27 -27 -26 -26 -25 -25

GFSGL_500_temp_069.txt.gz
Temp
-12 -12 -13 -12 -13 -12 -13 -13 -13 -13 -14 -14 -15 -15 -16 -16 -16 -17 -17 -17 -17 -17 -17 -16 -16 -16 -16 -17 -15 -15 -16 -15 -16 -16 -16 -16 -17 -17 -17 -17 -17 -17 -17
-12 -13 -12 -13 -12 -13 -13 -13 -14 -15 -16 -16 -17 -17 -17 -18 -18 -18 -18 -18 -18 -18 -18 -18 -17 -17 -17 -16 -16 -16 -16 -16 -16 -17 -17 -17 -17 -17 -17 -17 -17 -17 -17
-13 -13 -13 -13 -13 -13 -13 -13 -15 -15 -16 -16 -17 -17 -18 -18 -18 -19 -19 -19 -19 -19 -19 -19 -18 -18 -17 -17 -17 -16 -16 -16 -17 -17 -17 -17 -17 -17 -17 -17 -17 -17 -18
-13 -13 -13 -13 -13 -13 -13 -14 -15 -15 -15 -16 -16 -17 -17 -18 -19 -19 -19 -20 -20 -20 -20 -20 -19 -18 -18 -18 -17 -17 -17 -17 -17 -17 -17 -17 -17 -17 -18 -18 -18 -18 -19
-13 -13 -13 -13 -13 -13 -13 -14 -15 -15 -15 -16 -16 -17 -17 -17 -17 -18 -20 -20 -21 -20 -20 -20 -19 -18 -18 -18 -18 -18 -17 -17 -18 -18 -18 -17 -18 -18 -19 -19 -19 -19 -19
-13 -13 -13 -13 -13 -13 -14 -14 -14 -15 -15 -15 -16 -16 -16 -17 -17 -18 -19 -20 -21 -21 -20 -20 -19 -19 -18 -18 -18 -18 -18 -17 -17 -17 -18 -19 -20 -19 -19 -18 -18 -18 -19
-13 -13 -13 -13 -13 -13 -14 -14 -15 -15 -15 -15 -16 -16 -17 -17 -17 -18 -19 -19 -20 -19 -20 -19 -19 -19 -19 -19 -18 -18 -17 -17 -19 -19 -19 -19 -19 -19 -18 -19 -19 -19 -20
-14 -14 -14 -14 -14 -14 -14 -15 -15 -15 -16 -16 -16 -16 -17 -17 -17 -17 -18 -19 -19 -19 -18 -18 -18 -18 -18 -18 -18 -19 -19 -19 -19 -19 -19 -19 -19 -19 -19 -20 -22 -23 -23
-14 -14 -14 -14 -14 -14 -15 -15 -15 -15 -15 -16 -16 -16 -16 -17 -18 -18 -18 -18 -19 -19 -19 -18 -18 -19 -19 -19 -19 -19 -19 -19 -19 -19 -19 -19 -20 -21 -23 -23 -23 -23 -24
-14 -14 -14 -14 -15 -15 -15 -16 -16 -16 -16 -16 -16 -17 -17 -17 -18 -18 -18 -19 -19 -19 -19 -19 -19 -19 -19 -19 -19 -19 -20 -20 -19 -19 -20 -20 -22 -23 -24 -24 -24 -24 -24
-15 -15 -15 -15 -15 -16 -16 -16 -16 -16 -16 -17 -17 -17 -17 -18 -18 -18 -19 -19 -19 -19 -19 -19 -19 -19 -19 -19 -20 -20 -20 -20 -20 -20 -20 -22 -23 -24 -24 -24 -25 -25 -25
-15 -15 -15 -16 -16 -16 -16 -16 -16 -16 -17 -17 -17 -18 -18 -18 -18 -19 -19 -19 -19 -19 -19 -19 -19 -19 -20 -20 -20 -20 -20 -20 -20 -21 -22 -24 -24 -24 -25 -25 -25 -25 -25
-15 -16 -16 -17 -17 -16 -16 -16 -16 -17 -17 -17 -18 -18 -18 -18 -18 -19 -19 -19 -19 -19 -19 -19 -19 -20 -20 -20 -20 -20 -20 -21 -21 -22 -24 -25 -25 -25 -25 -25 -25 -25 -25
-16 -17 -17 -17 -17 -17 -17 -17 -17 -17 -18 -18 -18 -18 -18 -18 -18 -19 -19 -19 -19 -19 -19 -19 -20 -20 -20 -20 -20 -20 -21 -21 -22 -24 -25 -25 -25 -25 -25 -25 -25 -25 -26
-17 -17 -17 -17 -17 -17 -17 -17 -17 -18 -18 -18 -18 -18 -18 -18 -19 -19 -19 -19 -19 -19 -20 -20 -20 -21 -21 -21 -21 -21 -21 -22 -23 -25 -26 -26 -26 -26 -26 -26 -26 -26 -26
-17 -17 -17 -17 -17 -17 -17 -17 -17 -18 -18 -18 -18 -18 -18 -19 -19 -19 -19 -19 -20 -20 -20 -20 -21 -21 -21 -21 -21 -21 -22 -22 -24 -26 -26 -26 -26 -26 -26 -26 -26 -26 -26
-18 -18 -18 -18 -18 -18 -18 -18 -18 -18 -18 -18 -18 -18 -19 -19 -19 -19 -19 -20 -20 -20 -21 -21 -21 -21 -22 -22 -22 -22 -22 -24 -26 -26 -26 -26 -26 -26 -26 -26 -26 -26 -26
-18 -18 -18 -18 -18 -18 -18 -18 -18 -18 -19 -19 -19 -19 -19 -19 -19 -19 -20 -20 -20 -21 -21 -21 -22 -22 -22 -22 -22 -22 -23 -24 -26 -26 -26 -26 -26 -26 -26 -26 -26 -26 -26
-18 -18 -18 -18 -18 -18 -18 -18 -18 -19 -19 -19 -19 -19 -19 -20 -20 -20 -20 -20 -21 -21 -21 -22 -22 -22 -22 -23 -22 -23 -23 -25 -27 -26 -26 -27 -27 -27 -27 -27 -26 -26 -26
-18 -18 -18 -18 -18 -18 -18 -19 -19 -19 -19 -19 -19 -19 -20 -20 -20 -20 -21 -21 -21 -21 -22 -22 -22 -23 -22 -23 -23 -23 -23 -25 -27 -27 -27 -27 -27 -27 -27 -27 -27 -26 -26
-18 -18 -18 -18 -18 -19 -19 -19 -19 -19 -19 -19 -20 -20 -20 -20 -21 -21 -21 -21 -22 -22 -22 -22 -22 -23 -23 -23 -23 -23 -24 -26 -27 -27 -27 -27 -27 -27 -27 -27 -27 -27 -26
-18 -18 -18 -18 -18 -18 -19 -19 -19 -19 -20 -20 -20 -20 -21 -21 -21 -21 -21 -22 -22 -22 -22 -23 -23 -23 -23 -23 -23 -24 -25 -27 -28 -27 -27 -27 -27 -27 -27 -27 -27 -27 -27
-18 -19 -19 -19 -19 -19 -19 -19 -20 -20 -20 -20 -20 -21 -21 -21 -21 -22 -22 -22 -22 -22 -22 -23 -23 -23 -23 -23 -24 -26 -27 -28 -28 -27 -27 -27 -27 -27 -27 -27 -27 -27 -27
-18 -19 -19 -19 -19 -19 -19 -20 -20 -20 -20 -20 -20 -21 -21 -21 -22 -22 -22 -22 -22 -22 -23 -23 -23 -23 -23 -24 -25 -27 -28 -28 -28 -28 -28 -27 -27 -27 -27 -27 -27 -27 -27
-18 -19 -19 -19 -19 -19 -19 -20 -20 -20 -20 -20 -21 -21 -21 -22 -22 -22 -22 -22 -23 -23 -23 -23 -23 -23 -24 -25 -27 -28 -29 -28 -28 -28 -28 -27 -27 -27 -27 -27 -27 -27 -27
-18 -19 -19 -19 -19 -20 -20 -20 -20 -20 -21 -21 -21 -22 -22 -22 -22 -22 -22 -23 -23 -23 -23 -24 -24 -23 -25 -26 -28 -29 -29 -28 -28 -28 -28 -27 -27 -27 -27 -27 -27 -27 -27

GFSGL_500_temp_072.txt.gz
Temp
-12 -12 -12 -12 -12 -13 -13 -13 -13 -12 -12 -12 -13 -15 -15 -15 -15 -16 -17 -17 -17 -18 -18 -18 -19 -19 -18 -18 -18 -17 -17 -17 -17 -16 -16 -17 -16 -16 -16 -16 -17 -17 -17
-12 -13 -12 -13 -13 -13 -13 -13 -12 -13 -12 -13 -14 -14 -14 -15 -15 -16 -16 -17 -18 -19 -19 -19 -20 -20 -20 -19 -19 -18 -18 -17 -17 -17 -17 -17 -17 -17 -17 -17 -17 -18 -17
-13 -13 -13 -13 -13 -13 -13 -13 -13 -12 -13 -13 -14 -14 -14 -15 -15 -15 -16 -16 -18 -19 -20 -20 -20 -21 -20 -20 -20 -19 -19 -18 -18 -17 -18 -17 -17 -17 -17 -17 -18 -18 -18
-13 -13 -13 -13 -13 -13 -13 -13 -13 -13 -13 -13 -14 -14 -14 -15 -15 -15 -16 -16 -17 -18 -20 -20 -21 -21 -21 -20 -19 -19 -18 -18 -18 -18 -18 -18 -18 -17 -18 -18 -18 -18 -19
-13 -13 -13 -13 -13 -13 -13 -13 -13 -13 -13 -14 -14 -14 -14 -14 -15 -15 -15 -17 -17 -17 -18 -20 -21 -21 -20 -20 -18 -19 -18 -19 -19 -19 -19 -19 -18 -18 -18 -20 -20 -19 -19
-13 -13 -13 -13 -13 -13 -13 -13 -13 -13 -14 -14 -14 -14 -14 -15 -15 -15 -16 -16 -17 -17 -18 -18 -19 -20 -20 -19 -19 -19 -19 -19 -19 -18 -18 -18 -20 -20 -19 -19 -19 -19 -19
-14 -14 -13 -14 -14 -13 -13 -13 -13 -14 -14 -15 -15 -14 -14 -15 -15 -15 -16 -16 -17 -17 -18 -19 -19 -19 -19 -19 -19 -19 -19 -19 -18 -20 -20 -20 -19 -19 -19 -19 -19 -20 -20
-14 -14 -14 -14 -14 -14 -14 -14 -14 -14 -15 -15 -15 -15 -15 -16 -16 -16 -16 -17 -17 -17 -18 -18 -19 -19 -19 -19 -19 -20 -19 -19 -19 -19 -20 -20 -20 -20 -20 -20 -20 -21 -23
-14 -14 -14 -14 -14 -14 -14 -14 -14 -15 -15 -15 -15 -16 -16 -16 -16 -17 -17 -17 -17 -18 -18 -19 -19 -19 -19 -19 -20 -20 -20 -20 -20 -20 -20 -20 -20 -20 -20 -21 -22 -24 -24
-14 -14 -14 -14 -15 -14 -15 -15 -15 -15 -15 -16 -16 -16 -16 -17 -17 -17 -17 -18 -18 -19 -19 -19 -19 -19 -19 -19 -19 -20 -20 -20 -20 -20 -20 -20 -20 -21 -21 -23 -24 -25 -25
-15 -15 -15 -15 -15 -15 -15 -15 -15 -16 -16 -16 -16 -16 -17 -17 -17 -17 -18 -18 -18 -19 -19 -19 -19 -19 -19 -19 -19 -20 -20 -20 -20 -20 -20 -20 -21 -21 -23 -24 -25 -25 -25
-15 -15 -15 -15 -15 -16 -16 -16 -16 -16 -16 -16 -17 -17 -17 -17 -17 -18 -18 -18 -18 -19 -19 -19 -19 -19 -19 -20 -20 -20 -21 -21 -21 -21 -21 -21 -21 -22 -24 -25 -25 -25 -25
-15 -15 -16 -16 -16 -16 -17 -16 -17 -16 -16 -17 -17 -17 -17 -18 -18 -18 -18 -18 -18 -19 -19 -19 -19 -19 -20 -20 -20 -21 -21 -21 -21 -21 -21 -22 -22 -23 -25 -25 -26 -26 -26
-16 -16 -16 -17 -17 -17 -17 -17 -17 -17 -17 -17 -17 -17 -18 -18 -18 -18 -18 -18 -18 -19 -19 -19 -19 -20 -20 -21 -21 -21 -21 -21 -21 -22 -22 -22 -23 -24 -26 -26 -26 -26 -26
-16 -17 -17 -17 -17 -17 -17 -17 -17 -17 -17 -18 -18 -18 -18 -18 -18 -18 -18 -19 -19 -19 -19 -19 -20 -20 -20 -21 -21 -22 -22 -22 -22 -22 -22 -23 -24 -26 -26 -26 -26 -26 -26
-17 -17 -18 -18 -18 -18 -18 -18 -18 -18 -18 -18 -18 -18 -18 -18 -19 -19 -19 -19 -19 -19 -19 -20 -20 -20 -21 -21 -22 -22 -22 -22 -22 -23 -23 -23 -25 -26 -26 -26 -26 -26 -26
-17 -18 -18 -18 -18 -18 -18 -18 -18 -18 -18 -18 -18 -19 -19 -19 -19 -19 -19 -19 -19 -20 -20 -20 -20 -21 -21 -22 -22 -22 -23 -23 -23 -23 -23 -24 -26 -27 -27 -27 -27 -27 -27
-18 -18 -18 -18 -18 -18 -18 -18 -18 -18 -18 -18 -19 -19 -19 -19 -19 -19 -20 -20 -20 -20 -20 -21 -21 -21 -22 -22 -22 -23 -23 -23 -23 -23 -24 -25 -27 -27 -27 -27 -27 -27 -27
-18 -18 -18 -18 -18 -18 -18 -18 -18 -18 -18 -18 -19 -19 -19 -19 -19 -20 -20 -20 -20 -21 -21 -21 -21 -22 -22 -22 -23 -23 -23 -23 -23 -24 -24 -26 -27 -27 -27 -27 -27 -27 -27
-18 -18 -18 -18 -18 -18 -18 -18 -18 -18 -19 -19 -19 -19 -20 -20 -20 -20 -20 -21 -21 -21 -21 -22 -22 -22 -22 -23 -23 -23 -23 -23 -24 -25 -26 -28 -28 -28 -27 -27 -27 -27 -27
-18 -18 -18 -18 -18 -18 -19 -18 -18 -18 -19 -19 -19 -19 -20 -20 -20 -20 -21 -21 -21 -22 -22 -22 -22 -22 -23 -23 -23 -23 -23 -23 -25 -26 -28 -28 -28 -28 -27 -27 -27 -27 -27
-18 -18 -18 -19 -19 -19 -19 -19 -19 -18 -19 -19 -19 -20 -20 -20 -20 -21 -21 -21 -22 -22 -22 -22 -23 -23 -23 -23 -23 -23 -23 -24 -26 -28 -29 -29 -28 -28 -28 -28 -27 -27 -27
-18 -18 -18 -18 -19 -19 -19 -19 -19 -19 -19 -19 -20 -20 -20 -20 -21 -21 -21 -22 -22 -22 -22 -22 -23 -23 -23 -23 -24 -23 -24 -26 -27 -29 -29 -29 -28 -28 -28 -28 -27 -27 -27
-18 -18 -18 -19 -19 -19 -19 -19 -19 -19 -19 -20 -20 -20 -21 -21 -21 -21 -22 -22 -22 -22 -22 -23 -23 -23 -24 -23 -24 -23 -25 -27 -28 -29 -29 -29 -28 -28 -28 -28 -27 -27 -27
-18 -18 -18 -19 -19 -19 -19 -19 -19 -20 -20 -20 -20 -21 -21 -21 -21 -21 -22 -22 -22 -22 -22 -23 -23 -23 -24 -24 -24 -24 -25 -27 -28 -28 -28 -28 -28 -28 -28 -28 -28 -27 -27
-18 -18 -18 -18 -18 -19 -19 -19 -20 -20 -20 -20 -21 -21 -21 -21 -21 -22 -22 -22 -22 -22 -22 -23 -24 -24 -24 -24 -24 -25 -26 -27 -27 -28 -28 -28 -28 -28 -27 -27 -27 -27 -27

GFSGL_500_temp_075.txt.gz
Temp
-13 -12 -12 -12 -12 -12 -12 -12 -12 -12 -12 -12 -12 -12 -12 -13 -13 -14 -14 -14 -14 -15 -15 -16 -16 -17 -18 -20 -20 -20 -20 -19 -19 -19 -18 -17 -17 -18 -17 -17 -16 -17 -17
-13 -13 -13 -12 -12 -12 -12 -13 -13 -13 -13 -13 -13 -12 -12 -13 -14 -14 -14 -14 -14 -15 -15 -15 -16 -17 -18 -20 -21 -21 -21 -20 -20 -19 -19 -19 -19 -18 -18 -18 -17 -18 -18
-13 -13 -13 -12 -12 -13 -13 -13 -13 -13 -13 -13 -13 -13 -13 -14 -14 -14 -14 -14 -14 -15 -15 -15 -16 -17 -18 -20 -21 -21 -21 -21 -20 -19 -19 -19 -18 -18 -18 -18 -19 -18 -18
-13 -13 -13 -13 -13 -13 -13 -13 -13 -13 -13 -13 -13 -13 -14 -14 -14 -14 -14 -14 -14 -15 -15 -15 -16 -17 -17 -19 -20 -20 -20 -20 -20 -19 -19 -19 -19 -19 -19 -19 -19 -19 -19
-13 -13 -13 -13 -13 -13 -13 -13 -13 -13 -13 -13 -13 -14 -14 -14 -14 -14 -14 -15 -15 -15 -16 -16 -16 -16 -17 -18 -19 -19 -19 -20 -20 -19 -19 -19 -19 -19 -19 -19 -20 -20 -20
-14 -13 -13 -13 -13 -13 -13 -13 -13 -13 -13 -13 -14 -14 -14 -14 -14 -15 -15 -15 -15 -15 -16 -16 -16 -17 -17 -18 -18 -18 -19 -19 -19 -19 -19 -19 -19 -20 -20 -20 -20 -20 -20
-14 -14 -14 -14 -13 -14 -14 -14 -14 -14 -14 -14 -14 -14 -14 -15 -15 -15 -15 -16 -16 -16 -17 -17 -17 -17 -17 -18 -18 -18 -19 -19 -19 -20 -20 -20 -20 -20 -20 -20 -20 -20 -20
-14 -14 -14 -14 -14 -14 -14 -14 -14 -14 -14 -14 -14 -15 -15 -15 -15 -16 -16 -16 -17 -17 -17 -17 -17 -18 -18 -18 -19 -19 -19 -19 -19 -19 -19 -20 -20 -20 -20 -20 -20 -20 -21
-15 -14 -14 -14 -14 -14 -14 -14 -14 -15 -15 -15 -15 -15 -15 -15 -16 -16 -16 -17 -17 -17 -17 -17 -18 -18 -18 -19 -19 -19 -19 -20 -20 -20 -20 -20 -20 -20 -21 -21 -21 -21 -22
-15 -15 -15 -14 -15 -15 -15 -15 -15 -15 -15 -15 -15 -16 -16 -16 -16 -17 -17 -17 -17 -17 -18 -18 -18 -18 -18 -19 -19 -19 -19 -20 -20 -20 -20 -21 -21 -21 -21 -21 -21 -22 -23
-15 -15 -15 -15 -15 -15 -15 -15 -16 -16 -16 -16 -16 -16 -16 -17 -17 -17 -17 -17 -17 -18 -18 -18 -18 -18 -18 -19 -19 -19 -20 -20 -20 -21 -21 -21 -21 -21 -21 -22 -22 -22 -23
-15 -15 -15 -15 -15 -16 -16 -16 -16 -16 -16 -16 -16 -16 -17 -17 -17 -17 -18 -18 -18 -18 -18 -18 -18 -18 -19 -19 -19 -20 -20 -20 -21 -21 -22 -22 -22 -22 -22 -22 -23 -23 -24
-16 -16 -16 -16 -16 -16 -17 -17 -17 -17 -17 -17 -17 -17 -17 -17 -17 -18 -18 -18 -18 -18 -18 -18 -18 -19 -19 -19 -19 -20 -20 -21 -21 -22 -22 -22 -22 -22 -23 -23 -23 -24 -25
-16 -16 -16 -16 -17 -17 -17 -17 -17 -17 -17 -17 -17 -17 -17 -18 -18 -18 -18 -18 -18 -18 -18 -19 -19 -19 -19 -19 -20 -20 -21 -21 -22 -22 -22 -22 -23 -23 -23 -23 -24 -25 -26
-16 -16 -17 -17 -17 -17 -18 -18 -18 -18 -17 -17 -17 -17 -18 -18 -18 -18 -18 -19 -19 -19 -19 -19 -19 -19 -20 -20 -20 -21 -21 -22 -22 -22 -23 -23 -23 -23 -24 -24 -24 -26 -27
-17 -17 -17 -17 -18 -18 -18 -18 -18 -18 -18 -18 -18 -18 -18 -18 -18 -19 -19 -19 -19 -19 -19 -19 -19 -20 -20 -21 -21 -21 -22 -22 -22 -23 -23 -23 -24 -24 -24 -24 -25 -27 -27
-18 -18 -18 -18 -18 -18 -18 -18 -18 -18 -18 -18 -18 -18 -18 -18 -18 -19 -19 -19 -19 -19 -19 -20 -20 -20 -21 -21 -21 -22 -22 -23 -23 -23 -23 -24 -23 -24 -25 -26 -27 -28 -28
-18 -18 -18 -18 -18 -18 -19 -18 -18 -18 -18 -18 -18 -18 -18 -18 -19 -19 -19 -19 -19 -20 -20 -20 -21 -21 -21 -21 -22 -22 -23 -23 -23 -23 -23 -23 -24 -25 -27 -28 -28 -28 -28
-18 -18 -18 -19 -19 -19 -19 -18 -18 -18 -18 -18 -18 -18 -18 -19 -19 -19 -19 -20 -20 -20 -20 -21 -21 -21 -21 -22 -22 -22 -23 -23 -23 -24 -23 -24 -25 -27 -28 -29 -29 -28 -28
-18 -18 -18 -18 -18 -18 -18 -18 -19 -19 -18 -18 -18 -18 -19 -19 -19 -19 -20 -20 -20 -20 -20 -21 -21 -21 -21 -22 -22 -23 -23 -23 -23 -23 -23 -25 -27 -28 -29 -29 -29 -28 -28
-18 -18 -18 -18 -18 -18 -19 -19 -19 -19 -19 -19 -19 -19 -19 -19 -20 -20 -20 -20 -20 -21 -21 -21 -21 -21 -22 -22 -22 -23 -23 -23 -24 -23 -25 -26 -28 -29 -29 -29 -28 -28 -28
-18 -18 -18 -18 -18 -19 -19 -19 -19 -19 -19 -19 -19 -19 -19 -20 -20 -20 -20 -20 -21 -21 -21 -21 -21 -22 -22 -22 -23 -23 -23 -24 -23 -24 -25 -27 -29 -29 -29 -28 -28 -28 -28
-18 -18 -19 -19 -19 -18 -19 -19 -19 -19 -19 -19 -19 -19 -20 -20 -20 -20 -21 -21 -21 -21 -21 -22 -22 -22 -23 -23 -23 -23 -24 -24 -24 -25 -26 -27 -28 -28 -28 -28 -28 -28 -28
-18 -19 -19 -19 -19 -19 -19 -19 -19 -19 -19 -19 -20 -20 -20 -20 -20 -21 -21 -21 -21 -21 -22 -22 -22 -23 -23 -23 -23 -24 -24 -24 -24 -25 -26 -27 -27 -27 -27 -28 -28 -28 -27
-18 -19 -19 -19 -19 -19 -19 -19 -19 -19 -19 -20 -20 -20 -20 -20 -21 -21 -22 -22 -22 -22 -22 -22 -23 -23 -24 -24 -24 -24 -24 -24 -24 -26 -26 -27 -27 -27 -27 -27 -27 -27 -27
-18 -18 -19 -19 -19 -19 -18 -18 -19 -19 -19 -20 -20 -20 -21 -21 -21 -22 -22 -22 -22 -22 -22 -23 -23 -24 -24 -24 -24 -24 -24 -24 -25 -25 -26 -27 -27 -27 -27 -27 -27 -27 -27

GFSGL_500_temp_078.txt.gz
Temp
-13 -13 -13 -12 -12 -12 -12 -12 -12 -12 -12 -12 -13 -13 -13 -13 -13 -13 -13 -13 -14 -14 -14 -14 -14 -15 -15 -15 -15 -16 -16 -17 -19 -20 -21 -20 -20 -19 -19 -19 -19 -18 -18
-13 -13 -13 -13 -13 -13 -13 -12 -12 -12 -12 -12 -13 -13 -13 -13 -13 -13 -13 -13 -13 -14 -14 -14 -14 -15 -15 -15 -15 -16 -16 -17 -19 -20 -20 -20 -20 -19 -19 -19 -19 -18 -18
-14 -13 -13 -13 -13 -13 -13 -13 -13 -13 -12 -13 -13 -13 -13 -13 -13 -13 -13 -13 -14 -14 -14 -14 -15 -15 -15 -16 -16 -16 -17 -17 -18 -19 -19 -20 -20 -19 -19 -19 -19 -18 -18
-14 -14 -13 -13 -13 -13 -13 -13 -13 -13 -13 -13 -13 -13 -13 -13 -13 -14 -14 -14 -14 -14 -15 -15 -15 -15 -16 -16 -16 -16 -17 -17 -17 -18 -19 -19 -19 -19 -19 -19 -19 -18 -19
-14 -14 -14 -14 -14 -14 -13 -13 -13 -13 -13 -13 -13 -13 -13 -13 -14 -14 -14 -14 -15 -15 -15 -15 -16 -16 -16 -16 -16 -17 -17 -17 -18 -18 -18 -18 -19 -19 -19 -19 -19 -20 -20
-14 -14 -14 -14 -14 -14 -14 -13 -13 -13 -13 -14 -14 -14 -14 -14 -14 -14 -15 -15 -15 -15 -15 -16 -16 -16 -17 -17 -17 -17 -17 -17 -18 -18 -18 -18 -19 -19 -20 -20 -20 -20 -20
-14 -14 -14 -14 -14 -14 -14 -14 -14 -14 -14 -14 -14 -14 -14 -14 -14 -15 -15 -15 -15 -15 -16 -16 -16 -17 -17 -17 -17 -17 -17 -18 -18 -18 -18 -19 -19 -19 -20 -20 -20 -20 -20
-15 -15 -15 -14 -14 -14 -14 -14 -14 -14 -15 -14 -14 -15 -14 -15 -15 -15 -15 -15 -15 -16 -16 -16 -17 -17 -17 -17 -17 -18 -18 -18 -18 -19 -19 -19 -20 -20 -20 -21 -21 -21 -21
-15 -15 -15 -15 -14 -14 -14 -15 -15 -15 -15 -15 -15 -15 -15 -15 -15 -15 -15 -16 -16 -16 -17 -17 -17 -17 -17 -17 -18 -18 -18 -18 -19 -19 -19 -20 -20 -21 -21 -21 -21 -21 -21
-15 -15 -15 -15 -15 -15 -15 -15 -15 -15 -15 -15 -15 -16 -16 -16 -16 -16 -16 -16 -17 -17 -17 -17 -17 -18 -18 -18 -18 -18 -18 -19 -19 -19 -20 -20 -21 -21 -21 -22 -22 -22 -22
-15 -15 -15 -15 -15 -15 -15 -15 -15 -15 -15 -16 -16 -16 -16 -16 -16 -16 -16 -17 -17 -17 -17 -18 -18 -18 -18 -18 -18 -18 -19 -19 -19 -20 -20 -21 -21 -22 -22 -22 -22 -22 -22
-16 -16 -16 -16 -16 -15 -16 -16 -16 -16 -16 -16 -17 -17 -17 -16 -16 -17 -17 -17 -17 -18 -18 -18 -18 -18 -18 -18 -18 -19 -19 -19 -20 -20 -21 -21 -22 -22 -22 -23 -23 -23 -23
-16 -16 -16 -16 -16 -16 -16 -16 -16 -16 -17 -17 -17 -17 -17 -17 -17 -17 -17 -18 -18 -18 -18 -18 -18 -18 -19 -19 -19 -19 -19 -20 -20 -21 -21 -22 -22 -22 -23 -23 -23 -23 -24
-16 -16 -16 -16 -16 -16 -16 -17 -17 -17 -17 -17 -17 -17 -17 -17 -17 -17 -17 -18 -18 -18 -18 -18 -19 -19 -19 -19 -19 -20 -20 -21 -21 -22 -22 -22 -23 -23 -23 -23 -24 -24 -24
-17 -17 -16 -16 -17 -17 -17 -18 -18 -18 -18 -18 -18 -18 -17 -17 -17 -18 -18 -18 -18 -18 -19 -19 -19 -19 -19 -19 -20 -20 -21 -21 -21 -22 -22 -22 -23 -23 -23 -24 -24 -24 -25
-17 -17 -17 -17 -17 -18 -18 -18 -18 -18 -18 -18 -18 -18 -18 -18 -18 -18 -18 -18 -18 -19 -19 -19 -19 -19 -19 -20 -20 -21 -21 -21 -22 -22 -22 -23 -23 -23 -24 -24 -24 -26 -27
-17 -17 -17 -18 -18 -18 -18 -18 -18 -18 -18 -18 -18 -18 -18 -18 -18 -18 -18 -18 -19 -19 -19 -19 -19 -20 -20 -20 -21 -21 -21 -22 -22 -22 -23 -23 -23 -23 -23 -24 -26 -27 -28
-18 -18 -18 -18 -19 -19 -19 -19 -19 -19 -19 -18 -18 -18 -18 -18 -18 -18 -18 -18 -19 -19 -19 -20 -20 -20 -20 -21 -21 -21 -22 -22 -23 -23 -23 -23 -23 -23 -24 -25 -28 -29 -29
-18 -18 -18 -19 -19 -19 -19 -19 -19 -19 -19 -19 -18 -18 -18 -18 -18 -18 -18 -19 -19 -19 -20 -20 -20 -20 -20 -21 -21 -22 -22 -22 -23 -23 -23 -23 -24 -23 -24 -26 -28 -29 -29
-19 -19 -18 -18 -18 -18 -19 -19 -19 -19 -19 -19 -19 -19 -19 -19 -19 -19 -19 -19 -19 -20 -20 -20 -20 -21 -21 -21 -22 -22 -22 -23 -23 -23 -24 -24 -24 -24 -25 -27 -28 -29 -28
-19 -19 -19 -18 -19 -19 -19 -19 -19 -19 -19 -19 -19 -19 -19 -19 -19 -19 -19 -19 -20 -20 -20 -21 -21 -21 -21 -22 -22 -22 -23 -23 -24 -24 -24 -24 -24 -25 -25 -27 -27 -28 -28
-19 -19 -19 -19 -19 -19 -19 -19 -19 -19 -19 -19 -19 -19 -19 -19 -19 -19 -20 -20 -20 -20 -21 -21 -21 -21 -22 -22 -22 -23 -23 -24 -24 -24 -24 -24 -24 -25 -26 -26 -27 -27 -27
-19 -19 -19 -19 -19 -19 -19 -19 -19 -19 -19 -19 -19 -19 -19 -19 -19 -20 -20 -20 -21 -21 -21 -21 -21 -22 -22 -22 -23 -23 -23 -24 -24 -24 -24 -24 -24 -25 -26 -26 -27 -27 -27
-19 -19 -19 -19 -19 -19 -19 -19 -19 -19 -19 -19 -19 -19 -19 -19 -20 -20 -20 -21 -21 -21 -21 -21 -22 -22 -23 -23 -23 -23 -24 -24 -24 -24 -24 -24 -25 -25 -26 -26 -27 -27 -27
-18 -18 -18 -19 -19 -19 -19 -19 -19 -19 -19 -19 -19 -19 -19 -20 -20 -21 -21 -21 -21 -21 -22 -22 -22 -23 -23 -23 -24 -24 -24 -24 -24 -24 -25 -25 -25 -25 -25 -26 -26 -27 -27
-19 -19 -19 -19 -19 -19 -19 -19 -19 -19 -19 -19 -19 -19 -20 -20 -21 -21 -21 -21 -21 -22 -22 -22 -22 -23 -23 -24 -24 -24 -25 -25 -25 -25 -25 -25 -25 -25 -25 -26 -26 -27 -27

GFSGL_500_temp_081.txt.gz
Temp
-15 -14 -15 -14 -14 -13 -13 -13 -13 -12 -12 -12 -12 -12 -12 -13 -13 -13 -13 -13 -13 -13 -13 -13 -13 -14 -14 -14 -14 -15 -15 -15 -16 -16 -16 -16 -16 -17 -18 -19 -20 -19 -19
-15 -15 -15 -14 -14 -13 -13 -13 -13 -12 -13 -12 -12 -13 -13 -13 -13 -13 -13 -13 -13 -14 -14 -14 -14 -14 -14 -15 -15 -15 -16 -16 -16 -16 -16 -16 -17 -17 -17 -17 -18 -19 -19
-15 -15 -15 -14 -14 -13 -13 -13 -13 -13 -13 -13 -13 -13 -13 -13 -13 -13 -13 -13 -14 -14 -14 -14 -14 -14 -14 -15 -15 -16 -16 -16 -16 -16 -16 -17 -17 -17 -17 -18 -18 -18 -19
-15 -14 -14 -14 -14 -14 -13 -13 -13 -13 -13 -13 -13 -13 -13 -13 -13 -14 -14 -13 -14 -14 -14 -14 -14 -15 -15 -15 -16 -16 -16 -16 -16 -16 -16 -17 -17 -17 -17 -18 -18 -18 -18
-15 -14 -14 -14 -14 -14 -14 -13 -13 -13 -13 -13 -13 -13 -13 -13 -14 -14 -14 -14 -14 -14 -14 -15 -15 -15 -15 -16 -16 -16 -16 -17 -17 -17 -17 -17 -17 -17 -18 -18 -18 -18 -19
-15 -14 -14 -14 -14 -14 -14 -14 -14 -14 -14 -14 -14 -13 -14 -14 -14 -14 -14 -14 -14 -15 -15 -15 -15 -15 -16 -16 -16 -17 -17 -17 -17 -17 -17 -18 -18 -18 -18 -19 -19 -19 -20
-15 -15 -15 -15 -15 -14 -14 -14 -14 -14 -14 -14 -14 -14 -14 -14 -14 -14 -14 -15 -15 -15 -15 -15 -15 -16 -16 -17 -17 -17 -17 -17 -17 -18 -18 -18 -18 -19 -19 -19 -20 -20 -20
-15 -15 -15 -15 -15 -15 -15 -14 -14 -14 -14 -14 -15 -15 -15 -15 -15 -15 -15 -15 -15 -16 -16 -16 -16 -17 -17 -17 -17 -17 -17 -18 -18 -18 -18 -18 -19 -19 -19 -20 -20 -21 -21
-15 -15 -15 -15 -15 -15 -15 -15 -15 -15 -15 -15 -15 -15 -15 -15 -15 -15 -16 -16 -16 -16 -16 -16 -17 -17 -17 -17 -17 -18 -18 -18 -18 -18 -18 -19 -19 -20 -20 -20 -21 -21 -22
-16 -15 -15 -15 -15 -15 -15 -15 -15 -15 -15 -15 -15 -15 -16 -16 -16 -16 -16 -16 -16 -16 -17 -17 -17 -17 -17 -18 -18 -18 -18 -18 -18 -18 -19 -19 -20 -20 -21 -21 -22 -22 -22
-16 -16 -16 -16 -16 -16 -15 -15 -15 -15 -15 -15 -16 -16 -16 -16 -16 -16 -17 -17 -17 -17 -17 -17 -17 -18 -18 -18 -18 -18 -18 -18 -19 -19 -19 -20 -20 -21 -22 -22 -22 -23 -23
-16 -16 -16 -16 -16 -16 -16 -16 -16 -15 -16 -16 -16 -16 -16 -17 -17 -17 -17 -17 -17 -17 -17 -17 -18 -18 -18 -18 -18 -19 -19 -19 -19 -19 -20 -21 -21 -21 -22 -22 -23 -23 -23
-16 -16 -16 -16 -16 -16 -16 -16 -16 -16 -16 -16 -16 -17 -17 -17 -17 -17 -17 -17 -17 -17 -17 -17 -18 -18 -18 -18 -19 -19 -19 -19 -19 -20 -20 -21 -21 -22 -22 -23 -23 -23 -24
-17 -17 -17 -17 -16 -17 -16 -16 -16 -16 -17 -17 -17 -17 -17 -18 -18 -17 -17 -17 -17 -17 -18 -18 -18 -18 -18 -19 -19 -19 -19 -19 -20 -20 -21 -21 -22 -23 -23 -23 -23 -23 -24
-17 -17 -17 -17 -17 -17 -17 -17 -17 -17 -17 -17 -18 -18 -18 -18 -18 -18 -18 -18 -18 -18 -18 -18 -18 -18 -18 -19 -19 -19 -19 -20 -20 -21 -21 -22 -22 -23 -23 -23 -23 -23 -23
-17 -17 -17 -17 -17 -17 -17 -17 -17 -18 -18 -18 -18 -18 -18 -18 -18 -18 -18 -18 -18 -18 -18 -18 -18 -19 -19 -19 -20 -20 -20 -20 -21 -21 -21 -22 -22 -23 -23 -23 -23 -23 -24
-17 -17 -17 -17 -17 -17 -18 -18 -18 -18 -18 -18 -19 -19 -19 -19 -18 -18 -18 -18 -18 -18 -18 -18 -19 -19 -19 -20 -20 -20 -20 -20 -21 -22 -22 -22 -23 -23 -23 -23 -23 -23 -24
-18 -18 -18 -18 -18 -18 -18 -18 -18 -19 -19 -19 -19 -19 -19 -19 -19 -18 -18 -18 -19 -19 -19 -19 -19 -19 -20 -20 -20 -20 -21 -21 -21 -22 -22 -23 -23 -23 -24 -23 -24 -24 -25
-18 -18 -18 -18 -18 -18 -18 -19 -19 -19 -19 -19 -19 -19 -19 -19 -19 -19 -19 -19 -19 -19 -19 -19 -19 -20 -20 -20 -21 -21 -21 -21 -22 -22 -23 -23 -23 -23 -24 -24 -24 -24 -25
-19 -19 -19 -19 -18 -19 -19 -19 -19 -19 -19 -19 -19 -19 -19 -19 -19 -19 -19 -19 -19 -19 -19 -20 -20 -20 -20 -21 -21 -21 -21 -22 -22 -22 -23 -23 -23 -24 -24 -24 -24 -25 -25
-19 -19 -19 -19 -19 -19 -19 -19 -19 -19 -19 -19 -19 -19 -19 -19 -19 -19 -19 -19 -19 -19 -20 -20 -20 -20 -21 -21 -21 -22 -22 -22 -22 -23 -23 -23 -24 -24 -24 -24 -24 -25 -25
-19 -19 -19 -19 -19 -19 -19 -19 -19 -19 -19 -19 -19 -19 -19 -19 -19 -19 -19 -19 -19 -20 -20 -20 -21 -21 -21 -21 -22 -22 -22 -23 -23 -24 -24 -24 -24 -25 -25 -25 -25 -25 -25
-19 -19 -19 -19 -19 -19 -19 -19 -19 -19 -19 -19 -19 -19 -19 -19 -19 -19 -19 -20 -20 -20 -20 -21 -21 -21 -21 -22 -22 -22 -23 -23 -23 -24 -24 -24 -25 -25 -25 -25 -25 -25 -25
-19 -19 -19 -19 -19 -19 -19 -19 -19 -19 -19 -19 -19 -19 -19 -19 -20 -20 -20 -20 -20 -20 -21 -21 -21 -22 -22 -22 -22 -23 -23 -24 -24 -24 -24 -25 -25 -25 -25 -25 -25 -25 -25
-19 -19 -19 -19 -19 -19 -19 -19 -19 -19 -19 -19 -19 -19 -19 -19 -19 -19 -19 -20 -20 -21 -21 -21 -22 -22 -22 -22 -23 -23 -23 -24 -24 -24 -24 -25 -25 -26 -26 -26 -26 -26 -26
-19 -19 -19 -19 -19 -19 -19 -19 -19 -19 -19 -19 -20 -20 -19 -19 -19 -19 -20 -20 -21 -21 -21 -22 -22 -22 -23 -23 -23 -23 -24 -24 -24 -24 -24 -25 -25 -26 -26 -26 -26 -26 -26

GFSGL_500_temp_084.txt.gz
Temp
-14 -15 -15 -15 -15 -15 -14 -14 -14 -14 -13 -13 -13 -13 -13 -13 -13 -13 -13 -13 -13 -13 -13 -13 -13 -13 -14 -14 -14 -14 -14 -14 -15 -15 -16 -16 -16 -16 -16 -16 -17 -17 -17
-15 -15 -15 -15 -15 -15 -15 -15 -14 -14 -14 -13 -13 -13 -13 -13 -13 -13 -13 -13 -13 -13 -13 -13 -13 -14 -14 -14 -14 -14 -15 -15 -15 -15 -16 -16 -16 -16 -16 -16 -17 -17 -17
-15 -15 -15 -15 -15 -15 -15 -14 -14 -14 -14 -13 -13 -13 -13 -13 -13 -13 -13 -13 -13 -14 -14 -14 -14 -14 -14 -15 -15 -15 -15 -15 -15 -16 -16 -16 -16 -16 -17 -17 -17 -17 -17
-16 -16 -15 -15 -15 -15 -15 -15 -15 -14 -14 -13 -13 -13 -13 -13 -13 -13 -13 -14 -14 -14 -14 -14 -14 -14 -15 -15 -15 -15 -15 -16 -16 -16 -16 -17 -17 -17 -17 -17 -17 -17 -18
-17 -16 -16 -15 -15 -15 -15 -14 -14 -14 -14 -13 -13 -13 -13 -13 -14 -14 -14 -14 -14 -14 -14 -14 -15 -15 -15 -15 -15 -16 -16 -16 -16 -17 -17 -17 -17 -17 -17 -17 -18 -18 -18
-17 -16 -16 -15 -15 -15 -15 -15 -14 -14 -14 -13 -13 -14 -14 -14 -14 -14 -14 -15 -14 -15 -15 -15 -15 -15 -15 -16 -16 -16 -16 -17 -17 -17 -17 -17 -17 -17 -17 -18 -18 -18 -18
-17 -17 -17 -16 -16 -15 -15 -14 -14 -14 -14 -14 -14 -14 -14 -14 -14 -15 -15 -15 -15 -15 -15 -15 -15 -16 -16 -16 -16 -17 -17 -17 -17 -17 -18 -18 -18 -18 -18 -18 -19 -19 -19
-17 -17 -17 -16 -16 -15 -15 -15 -15 -15 -14 -14 -14 -14 -14 -15 -15 -15 -15 -15 -15 -15 -15 -16 -16 -16 -16 -16 -17 -17 -17 -17 -18 -18 -18 -18 -18 -18 -18 -19 -19 -20 -20
-17 -17 -16 -16 -15 -15 -15 -15 -15 -15 -15 -14 -15 -15 -15 -15 -15 -15 -16 -16 -16 -16 -16 -16 -16 -16 -17 -17 -17 -17 -18 -18 -18 -18 -18 -18 -18 -18 -19 -19 -20 -20 -21
-17 -17 -17 -16 -16 -16 -15 -15 -15 -15 -15 -15 -15 -15 -15 -16 -16 -16 -16 -16 -16 -16 -16 -16 -16 -17 -17 -17 -18 -18 -18 -18 -18 -18 -18 -18 -19 -19 -19 -20 -20 -21 -22
-17 -17 -17 -16 -16 -16 -15 -15 -15 -15 -15 -16 -16 -16 -16 -16 -16 -16 -16 -16 -17 -17 -17 -17 -17 -17 -17 -18 -18 -18 -18 -18 -18 -19 -19 -19 -19 -19 -20 -21 -21 -21 -22
-16 -16 -17 -16 -16 -16 -16 -16 -16 -16 -16 -16 -16 -16 -16 -16 -17 -17 -17 -17 -17 -17 -17 -17 -17 -17 -17 -18 -18 -18 -18 -18 -19 -19 -19 -19 -19 -20 -20 -21 -22 -22 -22
-17 -17 -16 -16 -16 -16 -16 -16 -16 -17 -16 -16 -16 -16 -17 -17 -17 -17 -17 -17 -17 -17 -18 -18 -18 -18 -18 -18 -18 -18 -18 -19 -19 -19 -19 -19 -20 -20 -21 -22 -22 -22 -23
-17 -17 -17 -17 -17 -17 -17 -17 -17 -17 -17 -17 -17 -17 -17 -17 -17 -17 -18 -18 -18 -18 -18 -18 -18 -18 -18 -18 -18 -18 -19 -19 -19 -20 -20 -20 -20 -21 -21 -22 -22 -22 -23
-18 -17 -17 -17 -17 -17 -17 -17 -17 -17 -17 -17 -17 -18 -18 -18 -18 -18 -18 -18 -18 -18 -18 -18 -18 -18 -18 -18 -18 -19 -19 -19 -20 -20 -20 -20 -21 -21 -22 -22 -22 -22 -23
-18 -18 -18 -18 -17 -17 -18 -17 -17 -17 -18 -18 -18 -18 -18 -18 -18 -19 -19 -19 -18 -18 -18 -18 -18 -18 -18 -19 -19 -19 -19 -19 -20 -20 -20 -21 -21 -21 -22 -22 -22 -23 -24
-18 -18 -18 -18 -18 -18 -18 -18 -18 -18 -18 -18 -18 -18 -19 -19 -19 -19 -19 -19 -19 -18 -18 -19 -19 -19 -19 -19 -19 -19 -19 -20 -20 -21 -21 -21 -22 -22 -22 -22 -22 -23 -24
-18 -18 -18 -18 -18 -18 -18 -18 -18 -18 -18 -18 -19 -19 -19 -19 -19 -19 -19 -19 -19 -19 -19 -19 -19 -19 -19 -19 -19 -19 -20 -20 -21 -21 -21 -22 -22 -23 -23 -23 -23 -23 -24
-18 -18 -18 -18 -18 -18 -18 -18 -18 -18 -19 -19 -19 -19 -19 -19 -19 -19 -19 -19 -19 -19 -19 -19 -19 -19 -20 -20 -20 -20 -20 -21 -21 -21 -22 -22 -22 -23 -23 -23 -24 -24 -24
-19 -19 -19 -19 -19 -19 -19 -19 -19 -19 -19 -19 -19 -19 -19 -19 -19 -19 -19 -19 -19 -19 -20 -20 -20 -20 -20 -20 -20 -21 -21 -21 -21 -22 -22 -23 -23 -23 -24 -24 -24 -24 -25
-19 -19 -19 -19 -19 -19 -19 -19 -19 -19 -19 -19 -19 -19 -19 -19 -19 -19 -19 -19 -19 -20 -20 -20 -20 -20 -20 -20 -21 -21 -21 -21 -22 -22 -23 -23 -23 -24 -24 -24 -25 -25 -25
-19 -19 -19 -19 -19 -19 -19 -19 -19 -19 -19 -19 -19 -19 -19 -19 -19 -19 -19 -20 -20 -20 -20 -20 -20 -20 -20 -21 -21 -21 -22 -22 -22 -22 -23 -23 -24 -24 -24 -24 -25 -25 -25
-19 -19 -19 -19 -19 -19 -19 -19 -19 -19 -19 -19 -19 -19 -20 -20 -20 -20 -20 -20 -20 -20 -20 -20 -20 -20 -21 -21 -21 -22 -22 -22 -22 -23 -23 -24 -24 -24 -24 -24 -25 -25 -26
-19 -19 -19 -19 -19 -19 -19 -19 -19 -19 -19 -20 -20 -20 -20 -20 -20 -20 -20 -20 -20 -20 -20 -20 -20 -20 -21 -21 -21 -22 -22 -22 -23 -23 -24 -24 -25 -24 -24 -25 -25 -26 -26
-19 -19 -19 -19 -19 -19 -19 -19 -19 -19 -19 -19 -19 -19 -19 -19 -20 -20 -20 -20 -20 -20 -20 -20 -20 -21 -21 -22 -22 -22 -22 -23 -23 -23 -24 -24 -24 -24 -24 -24 -25 -26 -26
-20 -19 -19 -19 -19 -19 -19 -19 -19 -19 -19 -19 -19 -19 -19 -20 -20 -20 -20 -20 -20 -20 -20 -20 -21 -21 -22 -22 -22 -22 -22 -22 -23 -23 -24 -24 -24 -25 -24 -25 -26 -26 -27

GFSGL_500_temp_087.txt.gz
Temp
-14 -15 -15 -15 -15 -15 -14 -14 -14 -15 -15 -15 -14 -14 -14 -14 -13 -13 -13 -13 -13 -12 -13 -13 -13 -13 -14 -14 -14 -14 -14 -14 -14 -14 -14 -15 -15 -16 -16 -16 -16 -17 -17
-16 -15 -15 -15 -15 -15 -15 -15 -15 -15 -15 -15 -15 -15 -14 -14 -13 -13 -13 -13 -13 -13 -13 -13 -14 -14 -14 -14 -14 -14 -14 -14 -14 -15 -15 -16 -16 -16 -16 -17 -17 -17 -17
-16 -16 -16 -15 -15 -15 -15 -15 -15 -15 -15 -15 -14 -15 -14 -14 -14 -13 -13 -13 -13 -13 -14 -14 -14 -14 -14 -14 -14 -14 -15 -15 -15 -15 -16 -16 -16 -16 -17 -17 -17 -17 -17
-17 -17 -17 -17 -16 -15 -15 -15 -15 -15 -15 -15 -14 -14 -14 -14 -14 -13 -13 -13 -14 -14 -14 -14 -14 -14 -14 -15 -15 -15 -15 -15 -16 -16 -16 -16 -16 -17 -17 -17 -17 -17 -17
-17 -16 -17 -17 -17 -16 -16 -15 -15 -15 -15 -15 -15 -14 -14 -14 -14 -14 -14 -14 -14 -14 -14 -14 -15 -15 -15 -15 -15 -15 -15 -16 -16 -16 -16 -17 -17 -17 -17 -17 -17 -17 -18
-17 -17 -17 -18 -17 -17 -16 -16 -15 -15 -15 -15 -15 -15 -14 -14 -14 -14 -14 -14 -14 -14 -15 -15 -15 -15 -15 -15 -15 -16 -16 -16 -17 -17 -17 -17 -17 -18 -18 -18 -18 -18 -18
-17 -17 -17 -17 -17 -17 -16 -16 -15 -15 -15 -15 -15 -15 -14 -14 -14 -14 -15 -14 -14 -15 -15 -15 -15 -16 -16 -16 -16 -16 -16 -17 -17 -17 -17 -17 -18 -18 -18 -18 -18 -18 -18
-17 -17 -17 -17 -17 -17 -17 -16 -16 -16 -15 -15 -15 -15 -15 -15 -15 -15 -15 -15 -15 -15 -16 -16 -16 -16 -16 -16 -16 -17 -17 -17 -17 -17 -17 -18 -18 -18 -18 -18 -18 -19 -19
-17 -17 -17 -17 -17 -17 -17 -17 -16 -16 -16 -15 -15 -15 -15 -15 -15 -15 -15 -16 -16 -16 -16 -16 -16 -16 -16 -16 -17 -17 -17 -17 -17 -17 -17 -18 -18 -19 -19 -19 -19 -19 -19
-18 -17 -17 -17 -17 -17 -16 -17 -16 -16 -16 -16 -16 -15 -15 -15 -15 -16 -16 -16 -16 -16 -17 -17 -17 -17 -17 -17 -17 -17 -17 -17 -17 -18 -18 -18 -19 -19 -19 -19 -19 -19 -20
-18 -18 -17 -18 -17 -17 -17 -17 -16 -16 -16 -16 -16 -16 -16 -16 -16 -16 -16 -17 -17 -17 -17 -17 -17 -17 -17 -17 -17 -17 -18 -18 -18 -18 -18 -18 -19 -19 -19 -19 -20 -20 -20
-18 -18 -17 -18 -17 -18 -18 -17 -16 -16 -16 -16 -16 -16 -16 -16 -16 -17 -17 -17 -17 -17 -17 -17 -17 -18 -18 -18 -18 -18 -18 -18 -18 -18 -18 -19 -19 -19 -19 -20 -20 -20 -21
-18 -17 -17 -17 -17 -18 -18 -17 -18 -17 -16 -16 -16 -16 -16 -17 -17 -17 -17 -17 -18 -18 -18 -18 -18 -18 -18 -18 -18 -18 -18 -18 -18 -18 -19 -19 -19 -20 -20 -20 -20 -21 -21
-18 -18 -18 -17 -17 -17 -17 -17 -17 -17 -17 -17 -17 -17 -17 -17 -17 -18 -18 -18 -18 -18 -18 -18 -18 -18 -18 -18 -18 -18 -18 -18 -19 -19 -19 -19 -20 -20 -20 -21 -21 -21 -22
-18 -18 -18 -18 -17 -17 -17 -17 -17 -17 -17 -17 -17 -17 -17 -18 -18 -18 -18 -18 -18 -18 -19 -18 -18 -18 -18 -18 -18 -19 -19 -19 -19 -19 -19 -20 -20 -20 -21 -21 -21 -22 -22
-18 -18 -18 -18 -18 -18 -18 -18 -17 -17 -17 -17 -18 -18 -18 -18 -18 -18 -19 -19 -19 -19 -19 -19 -19 -19 -19 -19 -19 -19 -19 -19 -19 -19 -20 -20 -20 -21 -21 -21 -22 -22 -23
-19 -19 -18 -18 -18 -18 -18 -18 -18 -18 -18 -18 -18 -18 -18 -19 -19 -19 -19 -19 -19 -19 -19 -19 -19 -19 -19 -19 -19 -19 -19 -20 -20 -20 -20 -20 -21 -21 -22 -22 -22 -23 -23
-19 -19 -18 -18 -18 -18 -18 -18 -18 -18 -18 -18 -18 -19 -19 -19 -19 -19 -19 -19 -20 -20 -19 -19 -19 -19 -19 -19 -19 -20 -20 -20 -20 -20 -20 -21 -21 -22 -22 -22 -22 -23 -23
-19 -19 -19 -19 -18 -18 -18 -18 -18 -18 -18 -19 -19 -19 -19 -19 -19 -19 -19 -20 -20 -20 -20 -20 -20 -20 -20 -20 -20 -20 -20 -20 -20 -20 -21 -21 -22 -22 -22 -23 -23 -23 -24
-19 -19 -19 -19 -19 -19 -19 -19 -19 -19 -19 -19 -19 -19 -19 -20 -20 -20 -20 -20 -20 -20 -20 -20 -20 -20 -20 -20 -20 -20 -20 -20 -20 -21 -21 -22 -22 -22 -22 -23 -23 -24 -24
-20 -19 -19 -19 -19 -19 -19 -19 -19 -19 -19 -19 -19 -19 -20 -20 -19 -19 -19 -19 -19 -19 -19 -20 -20 -20 -20 -20 -20 -20 -20 -20 -21 -21 -22 -22 -22 -22 -23 -23 -24 -24 -24
-20 -20 -20 -20 -20 -20 -19 -19 -19 -19 -19 -19 -19 -19 -20 -19 -19 -19 -19 -20 -20 -20 -20 -20 -20 -20 -20 -20 -20 -20 -20 -20 -21 -21 -22 -22 -22 -22 -23 -23 -24 -24 -24
-20 -20 -20 -20 -20 -20 -20 -20 -19 -20 -20 -20 -20 -20 -20 -20 -20 -20 -20 -20 -20 -20 -20 -20 -20 -20 -20 -20 -20 -20 -20 -21 -21 -21 -22 -22 -22 -22 -23 -23 -24 -24 -24
-20 -20 -20 -20 -20 -20 -20 -20 -19 -20 -20 -20 -20 -20 -20 -20 -20 -20 -20 -20 -20 -20 -20 -20 -20 -20 -20 -20 -20 -20 -21 -21 -21 -22 -22 -22 -22 -22 -23 -23 -24 -24 -24
-20 -20 -20 -20 -20 -20 -20 -20 -20 -20 -20 -20 -20 -20 -20 -20 -20 -20 -20 -20 -20 -20 -20 -20 -20 -20 -20 -20 -21 -21 -22 -21 -22 -21 -22 -22 -22 -23 -23 -24 -24 -24 -25
-20 -20 -20 -20 -20 -20 -20 -20 -20 -20 -20 -20 -20 -20 -20 -20 -20 -20 -20 -20 -20 -20 -20 -20 -20 -20 -20 -21 -21 -22 -21 -21 -21 -22 -22 -22 -23 -23 -23 -24 -24 -24 -25

GFSGL_500_temp_090.txt.gz
Temp
-15 -14 -15 -15 -15 -15 -14 -14 -14 -15 -15 -15 -15 -14 -14 -14 -14 -14 -14 -14 -14 -14 -13 -13 -13 -13 -13 -13 -14 -14 -14 -14 -14 -14 -14 -15 -15 -15 -16 -16 -16 -16 -17
-15 -15 -16 -15 -15 -15 -15 -14 -15 -15 -15 -15 -15 -15 -15 -15 -15 -15 -15 -14 -14 -13 -13 -13 -13 -13 -13 -14 -14 -14 -14 -14 -14 -15 -15 -15 -15 -16 -16 -16 -17 -17 -17
-16 -16 -16 -16 -16 -16 -15 -15 -15 -15 -15 -15 -15 -15 -15 -15 -15 -15 -14 -15 -14 -14 -13 -13 -13 -14 -14 -14 -14 -14 -14 -15 -15 -15 -15 -15 -16 -16 -16 -17 -17 -17 -17
-17 -17 -17 -17 -17 -16 -16 -15 -15 -15 -15 -15 -15 -15 -15 -15 -15 -15 -14 -14 -15 -14 -14 -14 -14 -14 -14 -14 -14 -14 -15 -15 -15 -15 -15 -16 -16 -16 -17 -17 -17 -17 -18
-17 -17 -17 -17 -17 -17 -17 -17 -16 -15 -15 -15 -15 -15 -15 -15 -15 -15 -14 -14 -14 -14 -14 -14 -14 -14 -15 -15 -15 -15 -15 -15 -16 -16 -16 -16 -16 -17 -17 -17 -17 -18 -18
-18 -18 -18 -17 -17 -17 -17 -16 -17 -16 -16 -15 -15 -15 -15 -15 -15 -15 -15 -15 -14 -15 -15 -14 -15 -15 -15 -15 -15 -15 -16 -16 -16 -16 -16 -17 -17 -17 -17 -18 -18 -18 -18
-19 -18 -18 -18 -17 -17 -17 -17 -17 -17 -17 -17 -16 -15 -15 -15 -15 -15 -15 -15 -15 -15 -15 -15 -15 -15 -16 -16 -16 -16 -16 -16 -16 -16 -17 -17 -17 -18 -18 -18 -18 -18 -18
-19 -18 -18 -18 -17 -17 -17 -18 -17 -17 -17 -16 -16 -16 -16 -15 -15 -16 -16 -15 -15 -15 -16 -16 -16 -16 -16 -16 -16 -16 -16 -16 -17 -17 -17 -18 -18 -18 -18 -18 -18 -18 -18
-19 -18 -18 -18 -18 -17 -18 -18 -18 -17 -17 -17 -17 -16 -16 -16 -16 -16 -16 -16 -16 -16 -17 -16 -16 -16 -17 -17 -17 -17 -17 -17 -17 -17 -18 -18 -18 -18 -18 -18 -18 -18 -19
-19 -19 -18 -18 -18 -17 -17 -17 -18 -17 -17 -17 -17 -17 -17 -16 -17 -16 -16 -16 -17 -17 -16 -16 -17 -17 -17 -17 -17 -17 -17 -17 -17 -18 -18 -18 -18 -18 -18 -18 -18 -19 -19
-19 -19 -19 -19 -18 -18 -18 -17 -17 -17 -17 -17 -17 -16 -17 -17 -16 -17 -16 -16 -17 -17 -17 -17 -17 -17 -17 -17 -17 -17 -17 -18 -18 -18 -18 -18 -18 -18 -18 -18 -19 -19 -19
-19 -19 -19 -18 -18 -18 -18 -18 -18 -17 -17 -17 -17 -17 -17 -17 -17 -17 -16 -16 -17 -17 -17 -17 -17 -17 -18 -18 -18 -18 -18 -18 -18 -18 -18 -18 -18 -18 -18 -19 -19 -19 -20
-19 -19 -19 -19 -18 -18 -18 -18 -18 -18 -18 -18 -17 -17 -17 -17 -17 -17 -17 -17 -17 -18 -18 -18 -18 -18 -18 -18 -18 -18 -18 -18 -18 -18 -18 -19 -19 -19 -19 -19 -19 -20 -20
-19 -19 -18 -18 -18 -18 -18 -18 -18 -18 -18 -18 -18 -18 -17 -17 -17 -17 -17 -18 -18 -18 -18 -18 -18 -18 -18 -18 -18 -18 -18 -19 -19 -19 -19 -19 -19 -19 -19 -19 -20 -20 -21
-19 -19 -19 -18 -18 -18 -18 -18 -18 -18 -18 -18 -18 -18 -18 -18 -18 -18 -18 -18 -18 -18 -18 -18 -18 -19 -19 -19 -19 -19 -19 -19 -19 -19 -19 -19 -19 -19 -19 -20 -20 -21 -21
-19 -19 -19 -19 -18 -18 -18 -18 -18 -18 -18 -18 -18 -18 -18 -18 -18 -18 -18 -19 -19 -19 -19 -19 -19 -19 -19 -19 -19 -19 -19 -19 -19 -19 -19 -19 -19 -19 -19 -20 -21 -21 -21
-19 -19 -19 -19 -19 -18 -18 -18 -18 -18 -18 -18 -18 -18 -18 -18 -19 -19 -19 -19 -19 -19 -19 -19 -19 -19 -19 -19 -19 -19 -19 -19 -19 -20 -20 -20 -20 -20 -20 -21 -21 -22 -22
-19 -19 -19 -19 -19 -18 -18 -18 -18 -18 -18 -18 -18 -18 -18 -19 -19 -19 -19 -19 -19 -19 -19 -19 -19 -19 -20 -20 -20 -20 -20 -20 -19 -20 -20 -20 -20 -20 -21 -21 -22 -22 -22
-20 -20 -19 -19 -19 -19 -18 -18 -18 -18 -18 -18 -18 -18 -19 -19 -19 -19 -19 -19 -19 -19 -19 -20 -20 -20 -20 -20 -20 -20 -19 -19 -20 -20 -20 -20 -20 -21 -21 -21 -22 -22 -22
-20 -20 -20 -19 -19 -19 -19 -19 -19 -19 -19 -19 -19 -19 -19 -19 -19 -19 -19 -20 -20 -20 -20 -20 -20 -20 -20 -20 -20 -20 -20 -20 -20 -20 -20 -20 -20 -21 -21 -22 -22 -22 -22
-19 -19 -20 -20 -20 -19 -19 -19 -19 -19 -19 -19 -19 -19 -19 -19 -19 -19 -20 -20 -20 -20 -20 -20 -20 -19 -20 -20 -20 -20 -20 -20 -20 -20 -20 -20 -21 -21 -21 -22 -21 -22 -22
-20 -20 -20 -20 -20 -20 -20 -20 -19 -19 -19 -19 -19 -19 -19 -19 -19 -20 -20 -20 -20 -20 -20 -20 -20 -20 -20 -20 -20 -20 -20 -20 -20 -20 -20 -20 -21 -21 -22 -21 -22 -22 -22
-20 -20 -20 -20 -20 -20 -20 -20 -20 -20 -20 -20 -19 -19 -19 -20 -20 -20 -20 -20 -20 -20 -20 -20 -20 -20 -20 -20 -20 -20 -20 -20 -20 -20 -21 -21 -21 -21 -21 -22 -22 -22 -23
-20 -20 -20 -20 -20 -20 -20 -20 -20 -20 -20 -20 -20 -20 -20 -20 -20 -20 -20 -20 -20 -20 -20 -20 -20 -20 -20 -20 -20 -20 -20 -20 -20 -21 -21 -22 -22 -21 -22 -22 -22 -22 -23
-21 -21 -21 -21 -20 -20 -20 -20 -20 -20 -20 -20 -20 -20 -20 -20 -20 -20 -20 -20 -20 -20 -20 -20 -20 -20 -20 -20 -20 -21 -21 -21 -21 -21 -22 -22 -22 -22 -22 -22 -22 -22 -23
-21 -21 -21 -21 -21 -21 -21 -20 -20 -20 -20 -20 -20 -20 -20 -20 -20 -20 -20 -20 -20 -20 -20 -20 -20 -20 -20 -21 -21 -21 -21 -21 -21 -22 -22 -22 -22 -22 -22 -22 -22 -23 -23

GFSGL_500_temp_093.txt.gz
Temp
-14 -14 -15 -14 -14 -14 -14 -14 -14 -14 -14 -14 -14 -14 -14 -15 -15 -14 -15 -15 -15 -14 -14 -14 -14 -14 -14 -13 -13 -14 -14 -14 -14 -14 -14 -14 -14 -15 -15 -15 -15 -16 -16
-15 -15 -14 -14 -14 -14 -15 -15 -15 -15 -15 -15 -15 -14 -14 -14 -14 -15 -15 -15 -14 -14 -15 -15 -14 -14 -14 -14 -14 -14 -14 -14 -14 -14 -14 -15 -15 -15 -15 -16 -16 -16 -17
-16 -15 -16 -16 -15 -15 -15 -15 -16 -16 -16 -15 -15 -15 -15 -15 -15 -15 -14 -14 -14 -15 -15 -15 -14 -14 -14 -14 -14 -14 -14 -15 -15 -15 -15 -15 -15 -15 -16 -16 -16 -17 -17
-17 -17 -16 -16 -16 -16 -15 -16 -15 -16 -16 -16 -15 -15 -15 -15 -15 -15 -15 -15 -15 -15 -15 -15 -15 -15 -15 -14 -14 -14 -14 -15 -15 -15 -15 -15 -16 -16 -16 -17 -17 -17 -17
-17 -17 -17 -17 -16 -16 -17 -17 -16 -16 -17 -17 -16 -16 -15 -15 -15 -15 -15 -15 -15 -15 -15 -15 -14 -14 -14 -14 -15 -15 -15 -15 -15 -15 -16 -16 -16 -16 -17 -17 -17 -17 -17
-17 -17 -17 -17 -17 -17 -17 -17 -17 -18 -18 -17 -17 -16 -16 -15 -15 -15 -15 -15 -15 -15 -15 -15 -15 -15 -15 -15 -15 -16 -16 -16 -16 -16 -16 -16 -16 -17 -17 -17 -17 -17 -17
-17 -17 -17 -18 -18 -18 -17 -17 -18 -18 -18 -17 -17 -16 -16 -16 -16 -16 -15 -16 -15 -15 -15 -15 -15 -15 -16 -15 -16 -16 -16 -16 -16 -16 -16 -17 -17 -17 -17 -17 -17 -17 -18
-17 -18 -18 -18 -19 -18 -18 -18 -18 -18 -17 -17 -17 -17 -17 -17 -16 -16 -16 -16 -16 -15 -16 -16 -16 -16 -16 -16 -17 -16 -16 -16 -16 -17 -17 -17 -17 -17 -17 -17 -18 -18 -18
-18 -18 -18 -19 -19 -19 -18 -18 -18 -17 -17 -17 -18 -17 -17 -17 -17 -17 -17 -17 -16 -16 -16 -16 -16 -16 -17 -17 -17 -17 -17 -17 -17 -17 -17 -17 -17 -17 -18 -18 -18 -18 -18
-19 -19 -19 -19 -19 -19 -18 -18 -18 -18 -18 -18 -18 -18 -17 -17 -17 -17 -17 -17 -17 -17 -17 -16 -17 -17 -17 -17 -17 -17 -17 -17 -17 -17 -17 -18 -18 -18 -18 -18 -18 -18 -18
-19 -19 -19 -19 -19 -19 -19 -18 -18 -18 -18 -17 -17 -17 -18 -18 -17 -18 -17 -18 -17 -17 -17 -17 -17 -17 -17 -17 -18 -18 -18 -18 -18 -18 -18 -18 -18 -18 -18 -18 -19 -19 -19
-19 -20 -20 -20 -19 -19 -19 -19 -19 -18 -18 -18 -18 -17 -17 -18 -18 -18 -18 -17 -17 -18 -17 -17 -18 -18 -18 -18 -18 -18 -18 -18 -18 -18 -18 -18 -18 -18 -19 -19 -19 -19 -19
-20 -20 -19 -19 -19 -19 -19 -19 -19 -18 -18 -19 -18 -18 -18 -19 -18 -18 -18 -18 -18 -18 -18 -18 -19 -18 -18 -18 -18 -18 -18 -18 -18 -18 -18 -19 -19 -19 -19 -19 -19 -19 -19
-19 -19 -19 -19 -19 -19 -19 -19 -18 -18 -18 -18 -18 -19 -18 -19 -18 -18 -18 -18 -18 -18 -18 -19 -19 -19 -18 -18 -18 -18 -18 -18 -19 -19 -19 -19 -19 -19 -19 -19 -19 -19 -19
-19 -19 -19 -19 -19 -19 -19 -18 -18 -18 -18 -18 -18 -18 -18 -18 -18 -18 -18 -18 -18 -19 -19 -19 -19 -19 -19 -18 -18 -19 -19 -19 -19 -19 -19 -19 -19 -19 -19 -19 -19 -20 -20
-19 -19 -19 -19 -19 -19 -19 -19 -18 -18 -18 -18 -18 -18 -18 -18 -18 -18 -18 -18 -18 -19 -19 -19 -19 -19 -19 -19 -19 -19 -19 -19 -20 -20 -20 -20 -20 -20 -19 -19 -20 -20 -20
-20 -19 -19 -19 -19 -19 -19 -19 -19 -18 -18 -18 -18 -18 -18 -18 -18 -18 -18 -19 -19 -19 -19 -19 -19 -19 -19 -19 -19 -19 -20 -20 -20 -20 -20 -20 -20 -20 -20 -19 -20 -20 -20
-20 -20 -19 -19 -19 -19 -19 -19 -19 -19 -18 -18 -18 -18 -18 -18 -18 -18 -19 -19 -19 -19 -19 -19 -20 -20 -19 -19 -20 -20 -20 -20 -20 -20 -20 -20 -20 -20 -20 -20 -20 -20 -20
-20 -20 -20 -20 -19 -19 -19 -19 -19 -19 -19 -19 -19 -19 -19 -19 -18 -19 -19 -19 -19 -19 -19 -20 -20 -20 -20 -20 -20 -20 -20 -20 -20 -20 -20 -20 -20 -20 -20 -20 -20 -20 -21
-20 -19 -19 -20 -20 -20 -20 -19 -19 -19 -19 -19 -19 -19 -19 -19 -19 -19 -19 -19 -19 -19 -19 -20 -20 -20 -20 -20 -20 -20 -20 -20 -20 -20 -20 -20 -20 -20 -20 -20 -20 -21 -21
-20 -20 -20 -20 -20 -20 -20 -20 -20 -19 -19 -19 -19 -19 -19 -19 -19 -19 -19 -19 -19 -19 -19 -19 -20 -20 -20 -20 -20 -20 -20 -20 -20 -20 -20 -20 -20 -20 -20 -20 -21 -21 -22
-20 -20 -20 -20 -20 -20 -20 -20 -20 -20 -20 -20 -19 -19 -19 -19 -19 -19 -19 -19 -19 -19 -19 -20 -20 -20 -20 -20 -20 -20 -20 -20 -20 -20 -20 -20 -21 -21 -20 -21 -21 -22 -21
-21 -20 -20 -20 -20 -20 -20 -20 -20 -20 -20 -20 -20 -20 -20 -20 -20 -19 -19 -19 -19 -20 -20 -20 -20 -20 -20 -20 -20 -20 -20 -20 -20 -20 -20 -20 -21 -21 -21 -21 -22 -22 -21
-20 -21 -21 -21 -21 -21 -20 -20 -20 -20 -20 -20 -20 -20 -20 -20 -20 -20 -20 -20 -20 -20 -20 -20 -20 -20 -20 -20 -20 -20 -20 -20 -20 -20 -21 -21 -21 -21 -21 -22 -22 -22 -22
-21 -21 -21 -21 -21 -21 -21 -21 -21 -21 -20 -20 -20 -20 -20 -20 -20 -20 -20 -20 -20 -20 -20 -20 -20 -20 -20 -20 -20 -20 -20 -20 -21 -21 -21 -21 -21 -21 -21 -22 -22 -22 -22
-22 -22 -22 -22 -21 -21 -21 -21 -21 -21 -21 -21 -21 -21 -21 -20 -20 -20 -21 -21 -20 -20 -20 -20 -20 -21 -20 -20 -20 -20 -21 -21 -21 -21 -21 -21 -21 -21 -22 -22 -22 -22 -22

GFSGL_500_temp_096.txt.gz
Temp
-17 -17 -16 -16 -15 -15 -14 -14 -14 -13 -14 -14 -14 -14 -14 -14 -14 -14 -13 -14 -14 -15 -15 -15 -15 -15 -15 -15 -14 -14 -14 -14 -14 -14 -14 -14 -14 -14 -15 -15 -15 -15 -15
-17 -16 -16 -16 -15 -14 -15 -14 -14 -14 -13 -14 -14 -14 -14 -14 -14 -14 -14 -15 -15 -15 -15 -15 -14 -14 -15 -14 -15 -14 -15 -15 -14 -14 -14 -14 -15 -15 -15 -15 -16 -16 -16
-17 -17 -17 -16 -15 -15 -15 -15 -15 -15 -15 -14 -15 -14 -14 -14 -14 -15 -15 -14 -15 -15 -15 -14 -14 -14 -15 -15 -14 -15 -15 -15 -14 -15 -15 -15 -15 -15 -16 -16 -16 -16 -16
-17 -17 -16 -16 -16 -16 -16 -16 -16 -16 -16 -15 -15 -15 -15 -15 -15 -15 -15 -15 -15 -15 -15 -14 -15 -15 -15 -15 -15 -15 -15 -15 -15 -15 -15 -15 -16 -16 -16 -16 -16 -16 -17
-17 -17 -17 -17 -17 -17 -17 -16 -16 -16 -16 -16 -16 -16 -16 -16 -16 -16 -16 -15 -15 -15 -15 -15 -15 -15 -15 -15 -15 -15 -15 -15 -15 -15 -16 -16 -16 -16 -16 -16 -17 -17 -17
-17 -17 -17 -17 -17 -17 -17 -17 -17 -17 -17 -17 -17 -17 -17 -17 -17 -17 -16 -16 -15 -15 -15 -15 -15 -15 -15 -15 -15 -15 -15 -16 -16 -16 -16 -16 -16 -17 -17 -17 -17 -17 -17
-17 -17 -17 -17 -17 -17 -17 -17 -17 -17 -17 -17 -17 -17 -18 -18 -18 -17 -17 -16 -16 -15 -16 -16 -16 -16 -16 -15 -15 -16 -16 -16 -16 -17 -17 -17 -17 -17 -17 -17 -17 -17 -17
-17 -17 -17 -17 -17 -18 -18 -18 -17 -18 -18 -18 -18 -18 -18 -18 -18 -17 -17 -17 -17 -17 -16 -16 -16 -16 -16 -16 -16 -16 -16 -16 -17 -17 -17 -17 -17 -17 -17 -17 -17 -18 -18
-17 -17 -17 -17 -18 -18 -18 -18 -19 -19 -19 -19 -18 -18 -18 -18 -18 -18 -18 -17 -17 -17 -17 -17 -17 -17 -17 -17 -17 -17 -16 -17 -17 -17 -17 -17 -17 -17 -18 -18 -18 -18 -18
-17 -17 -17 -17 -18 -18 -19 -19 -19 -19 -19 -19 -18 -18 -18 -18 -18 -18 -18 -18 -18 -18 -18 -18 -18 -17 -18 -18 -17 -17 -18 -17 -18 -18 -18 -18 -18 -18 -18 -18 -18 -18 -18
-17 -18 -18 -18 -19 -19 -19 -19 -19 -19 -19 -19 -18 -19 -18 -18 -18 -18 -18 -18 -18 -18 -18 -18 -18 -18 -18 -18 -17 -18 -18 -18 -18 -18 -18 -18 -18 -18 -18 -18 -18 -19 -19
-18 -18 -18 -19 -19 -20 -20 -20 -19 -19 -19 -19 -19 -18 -18 -18 -18 -18 -18 -18 -18 -18 -18 -18 -18 -18 -18 -18 -18 -18 -18 -18 -18 -18 -18 -18 -18 -18 -18 -19 -19 -19 -19
-18 -19 -19 -19 -19 -20 -19 -19 -19 -19 -19 -19 -19 -19 -18 -18 -18 -18 -18 -18 -18 -18 -18 -18 -18 -18 -19 -19 -19 -19 -19 -19 -18 -19 -19 -19 -19 -19 -19 -19 -19 -19 -19
-19 -19 -19 -19 -19 -19 -19 -19 -19 -19 -19 -19 -19 -18 -18 -19 -19 -19 -18 -19 -19 -19 -18 -18 -18 -18 -19 -19 -20 -19 -19 -19 -19 -19 -19 -19 -19 -19 -19 -19 -19 -19 -19
-20 -20 -20 -19 -19 -19 -19 -19 -19 -19 -19 -19 -18 -18 -18 -18 -19 -19 -19 -19 -19 -19 -18 -18 -19 -19 -20 -19 -20 -19 -19 -19 -19 -19 -19 -19 -19 -19 -20 -20 -20 -20 -20
-20 -20 -20 -20 -20 -19 -19 -19 -19 -19 -19 -19 -19 -18 -18 -18 -19 -19 -19 -19 -18 -18 -18 -19 -19 -19 -20 -20 -19 -19 -20 -20 -20 -20 -20 -20 -20 -20 -20 -20 -20 -20 -20
-20 -20 -20 -20 -20 -20 -20 -19 -19 -19 -19 -19 -19 -19 -19 -19 -19 -19 -19 -19 -19 -19 -18 -19 -19 -19 -20 -20 -20 -20 -20 -20 -20 -20 -20 -20 -20 -20 -20 -20 -20 -20 -20
-20 -20 -20 -20 -20 -20 -20 -20 -20 -20 -19 -19 -19 -19 -19 -19 -19 -19 -19 -19 -19 -19 -19 -19 -19 -19 -19 -20 -20 -20 -20 -20 -20 -20 -20 -20 -20 -20 -20 -20 -20 -20 -20
-21 -20 -20 -20 -20 -20 -20 -20 -20 -20 -20 -20 -19 -19 -19 -19 -19 -19 -19 -19 -19 -19 -19 -19 -19 -19 -20 -20 -20 -20 -20 -20 -20 -20 -20 -20 -20 -20 -20 -20 -20 -20 -21
-20 -20 -20 -20 -20 -20 -20 -20 -20 -20 -20 -20 -20 -19 -19 -19 -19 -19 -19 -19 -19 -19 -19 -19 -19 -19 -20 -20 -20 -20 -20 -20 -20 -20 -20 -20 -20 -20 -20 -20 -21 -21 -21
-20 -20 -20 -20 -20 -20 -20 -20 -20 -20 -20 -20 -20 -20 -19 -19 -19 -19 -19 -19 -19 -19 -19 -19 -19 -19 -20 -20 -20 -20 -20 -20 -20 -20 -20 -20 -20 -20 -20 -20 -21 -21 -21
-21 -20 -20 -20 -20 -20 -20 -20 -20 -20 -20 -20 -20 -20 -20 -20 -20 -20 -20 -20 -20 -20 -20 -19 -19 -19 -20 -20 -20 -20 -20 -20 -20 -20 -20 -20 -20 -20 -20 -21 -21 -21 -21
-20 -20 -20 -20 -20 -21 -21 -21 -21 -20 -20 -20 -20 -20 -20 -20 -20 -20 -20 -20 -20 -20 -20 -20 -20 -20 -20 -20 -20 -20 -20 -20 -20 -20 -20 -21 -21 -20 -21 -21 -21 -21 -21
-21 -21 -21 -21 -20 -20 -21 -21 -21 -21 -21 -21 -21 -20 -20 -20 -20 -20 -20 -20 -20 -20 -20 -20 -20 -20 -20 -20 -20 -20 -20 -20 -20 -21 -21 -21 -21 -21 -21 -21 -21 -21 -21
-21 -21 -21 -21 -21 -21 -21 -21 -21 -21 -21 -21 -21 -21 -21 -21 -21 -21 -21 -21 -21 -21 -21 -21 -21 -21 -21 -21 -21 -21 -21 -21 -21 -21 -21 -21 -21 -21 -21 -21 -21 -21 -22
-23 -23 -23 -23 -22 -22 -22 -22 -22 -22 -22 -21 -21 -21 -21 -21 -21 -21 -21 -21 -21 -21 -21 -21 -21 -21 -21 -21 -21 -21 -21 -21 -21 -21 -21 -21 -21 -21 -22 -22 -22 -22 -22

GFSGL_500_temp_099.txt.gz
Temp
-15 -16 -16 -16 -16 -16 -17 -16 -16 -15 -15 -15 -15 -14 -14 -14 -14 -13 -13 -13 -13 -13 -14 -14 -14 -14 -14 -14 -15 -15 -15 -15 -14 -14 -14 -14 -15 -14 -15 -15 -15 -15 -15
-17 -17 -17 -17 -17 -17 -16 -16 -16 -15 -15 -15 -14 -14 -14 -14 -14 -14 -15 -14 -14 -14 -14 -14 -14 -14 -15 -15 -15 -15 -15 -15 -15 -14 -14 -15 -14 -15 -15 -15 -15 -15 -15
-17 -17 -17 -17 -17 -17 -17 -17 -17 -16 -15 -15 -15 -15 -15 -14 -15 -15 -14 -14 -14 -14 -14 -15 -15 -15 -15 -15 -15 -15 -15 -14 -15 -15 -14 -15 -15 -15 -15 -15 -16 -16 -16
-17 -17 -17 -17 -17 -17 -17 -17 -17 -17 -16 -16 -16 -16 -16 -16 -16 -15 -15 -15 -15 -15 -15 -15 -15 -15 -15 -15 -15 -15 -15 -15 -15 -15 -15 -15 -15 -15 -16 -16 -16 -16 -16
-17 -17 -17 -17 -17 -17 -17 -17 -17 -16 -16 -16 -17 -16 -16 -16 -15 -16 -15 -16 -16 -16 -15 -16 -15 -15 -15 -15 -15 -15 -16 -15 -15 -15 -15 -15 -15 -16 -17 -17 -17 -16 -17
-17 -17 -17 -17 -17 -17 -17 -17 -17 -17 -17 -17 -17 -17 -17 -17 -16 -17 -17 -16 -16 -16 -16 -16 -16 -16 -15 -16 -15 -15 -16 -16 -16 -16 -16 -16 -16 -17 -17 -17 -17 -17 -17
-17 -17 -17 -17 -17 -17 -17 -17 -17 -17 -17 -17 -17 -17 -17 -17 -17 -17 -17 -17 -17 -18 -17 -17 -16 -16 -16 -16 -16 -16 -16 -16 -16 -16 -16 -17 -17 -17 -17 -17 -17 -17 -17
-17 -17 -17 -17 -17 -17 -17 -17 -17 -17 -17 -17 -17 -17 -17 -17 -18 -18 -18 -18 -18 -18 -18 -18 -17 -17 -17 -17 -17 -17 -16 -16 -17 -17 -17 -17 -17 -18 -17 -17 -17 -18 -18
-17 -17 -17 -17 -17 -17 -17 -17 -17 -18 -18 -18 -18 -18 -18 -19 -19 -19 -18 -18 -18 -18 -19 -18 -18 -18 -17 -17 -18 -17 -17 -17 -17 -17 -18 -18 -18 -18 -18 -18 -18 -18 -18
-17 -17 -17 -17 -17 -18 -18 -17 -17 -18 -18 -18 -18 -19 -19 -19 -19 -19 -18 -18 -18 -19 -18 -18 -18 -18 -18 -18 -18 -18 -18 -18 -18 -18 -18 -19 -18 -18 -18 -18 -18 -18 -18
-18 -18 -18 -18 -18 -18 -18 -17 -18 -18 -19 -19 -19 -19 -19 -19 -19 -19 -19 -19 -18 -18 -19 -19 -18 -18 -18 -18 -18 -18 -19 -19 -19 -19 -19 -19 -19 -18 -18 -18 -18 -19 -19
-18 -18 -18 -18 -18 -18 -18 -18 -18 -19 -19 -19 -19 -19 -19 -19 -19 -19 -19 -19 -19 -19 -19 -19 -19 -19 -19 -19 -19 -19 -19 -19 -19 -20 -19 -19 -19 -19 -18 -18 -19 -19 -19
-19 -19 -19 -19 -19 -19 -19 -19 -19 -19 -19 -19 -19 -19 -19 -19 -19 -19 -19 -19 -19 -18 -18 -18 -19 -19 -19 -19 -19 -19 -19 -19 -20 -20 -20 -19 -19 -19 -19 -19 -19 -19 -19
-19 -19 -19 -19 -19 -19 -19 -19 -19 -19 -19 -19 -19 -19 -19 -19 -19 -19 -19 -19 -19 -19 -19 -19 -19 -19 -19 -19 -19 -19 -20 -20 -20 -20 -20 -20 -20 -19 -19 -19 -19 -20 -19
-20 -20 -20 -20 -20 -20 -20 -20 -19 -19 -19 -19 -19 -19 -19 -19 -19 -19 -19 -19 -19 -19 -19 -19 -19 -19 -19 -19 -19 -19 -20 -20 -20 -20 -20 -20 -20 -19 -20 -20 -20 -20 -20
-20 -20 -20 -20 -20 -20 -20 -20 -19 -20 -20 -19 -19 -19 -19 -19 -19 -19 -19 -19 -19 -19 -19 -19 -19 -19 -19 -19 -19 -19 -20 -20 -20 -20 -20 -20 -20 -20 -20 -20 -20 -20 -20
-20 -20 -20 -20 -20 -20 -20 -20 -20 -20 -20 -20 -20 -19 -19 -19 -19 -19 -19 -19 -19 -19 -19 -19 -19 -19 -19 -19 -19 -20 -20 -20 -20 -20 -20 -20 -20 -20 -20 -21 -20 -20 -20
-20 -20 -21 -21 -21 -20 -20 -20 -20 -20 -20 -20 -20 -20 -19 -19 -19 -19 -19 -19 -19 -19 -19 -19 -19 -19 -19 -19 -19 -20 -20 -20 -20 -20 -20 -20 -20 -20 -21 -20 -20 -20 -20
-21 -21 -21 -21 -21 -21 -20 -20 -20 -20 -20 -20 -20 -20 -20 -19 -19 -19 -19 -19 -19 -19 -19 -19 -19 -19 -19 -19 -20 -20 -20 -20 -20 -20 -20 -20 -20 -21 -21 -20 -20 -20 -20
-21 -21 -21 -21 -21 -20 -20 -20 -20 -20 -20 -20 -20 -20 -20 -20 -20 -19 -19 -19 -19 -19 -19 -19 -19 -19 -20 -20 -20 -20 -20 -20 -20 -20 -20 -20 -20 -20 -20 -20 -20 -20 -21
-21 -21 -21 -21 -21 -21 -21 -20 -20 -20 -20 -20 -20 -20 -20 -20 -20 -20 -20 -20 -20 -20 -20 -19 -20 -20 -20 -20 -20 -20 -20 -20 -20 -20 -20 -20 -20 -20 -20 -20 -21 -21 -21
-22 -21 -21 -21 -21 -21 -20 -20 -20 -20 -20 -20 -20 -20 -20 -20 -20 -20 -20 -20 -20 -20 -20 -20 -20 -20 -20 -20 -20 -20 -20 -20 -20 -20 -20 -20 -20 -20 -20 -21 -21 -21 -21
-22 -22 -21 -21 -21 -21 -20 -20 -20 -20 -21 -21 -21 -21 -21 -21 -21 -21 -21 -21 -20 -20 -20 -20 -20 -20 -20 -20 -20 -20 -20 -21 -21 -21 -21 -21 -21 -20 -21 -21 -21 -21 -21
-22 -22 -21 -21 -21 -21 -21 -21 -21 -21 -21 -21 -21 -21 -21 -21 -21 -21 -21 -21 -21 -21 -21 -21 -21 -21 -21 -21 -21 -21 -21 -21 -21 -21 -21 -21 -21 -21 -21 -21 -21 -21 -21
-22 -22 -22 -22 -22 -22 -22 -22 -22 -22 -22 -21 -21 -21 -21 -21 -21 -21 -21 -21 -21 -21 -21 -21 -21 -21 -21 -21 -21 -21 -21 -21 -21 -21 -21 -21 -21 -21 -21 -21 -21 -21 -21
-23 -23 -23 -23 -23 -23 -23 -23 -23 -23 -22 -23 -22 -22 -22 -22 -22 -22 -21 -21 -21 -21 -21 -21 -21 -21 -21 -21 -21 -21 -22 -21 -21 -21 -21 -21 -21 -21 -21 -22 -22 -22 -22

GFSGL_500_temp_102.txt.gz
Temp
-14 -14 -14 -14 -14 -14 -14 -14 -15 -15 -16 -16 -15 -15 -15 -15 -14 -15 -14 -14 -14 -14 -14 -14 -14 -14 -14 -14 -14 -15 -15 -15 -14 -14 -14 -15 -15 -15 -15 -15 -14 -14 -15
-14 -14 -14 -14 -14 -14 -15 -16 -17 -17 -17 -17 -16 -16 -16 -15 -15 -15 -15 -15 -15 -15 -15 -14 -14 -15 -14 -14 -15 -15 -15 -15 -15 -14 -15 -15 -15 -15 -15 -15 -15 -15 -15
-14 -14 -14 -15 -16 -16 -17 -17 -17 -17 -17 -17 -17 -16 -16 -16 -15 -15 -15 -14 -15 -15 -14 -14 -15 -15 -15 -15 -15 -15 -15 -15 -15 -15 -15 -15 -15 -15 -15 -15 -15 -15 -16
-15 -15 -16 -16 -17 -17 -17 -17 -17 -17 -17 -16 -16 -16 -17 -17 -16 -16 -15 -15 -15 -15 -15 -16 -16 -16 -16 -16 -16 -15 -15 -15 -15 -15 -15 -15 -15 -15 -15 -15 -15 -16 -16
-15 -15 -15 -16 -16 -17 -17 -17 -17 -17 -17 -17 -17 -17 -17 -17 -17 -16 -16 -16 -16 -16 -16 -16 -16 -16 -16 -16 -16 -16 -16 -15 -15 -16 -16 -16 -16 -16 -16 -16 -16 -16 -17
-16 -16 -16 -16 -16 -17 -17 -17 -17 -17 -17 -17 -17 -17 -17 -17 -17 -17 -17 -17 -17 -17 -17 -17 -17 -17 -17 -17 -17 -16 -16 -16 -16 -16 -16 -16 -16 -16 -16 -17 -17 -17 -17
-16 -16 -16 -16 -17 -17 -17 -17 -17 -17 -17 -17 -17 -17 -17 -17 -17 -17 -17 -17 -17 -17 -18 -18 -18 -18 -18 -18 -18 -17 -17 -17 -17 -17 -17 -17 -18 -17 -17 -18 -18 -18 -18
-17 -17 -17 -17 -17 -17 -17 -17 -17 -17 -17 -17 -17 -17 -17 -17 -18 -18 -17 -17 -17 -18 -18 -18 -18 -18 -18 -19 -18 -18 -18 -18 -18 -18 -18 -18 -17 -18 -18 -18 -18 -19 -19
-17 -17 -17 -17 -17 -17 -17 -17 -17 -17 -17 -17 -17 -17 -17 -18 -18 -18 -18 -18 -18 -19 -19 -19 -19 -19 -19 -19 -19 -18 -18 -18 -18 -18 -18 -18 -18 -18 -18 -18 -19 -19 -19
-18 -18 -18 -18 -17 -17 -17 -17 -17 -17 -17 -17 -17 -17 -18 -18 -18 -18 -18 -18 -19 -19 -19 -19 -19 -19 -19 -19 -18 -18 -18 -18 -19 -18 -19 -19 -19 -19 -19 -19 -19 -19 -19
-18 -18 -18 -18 -18 -18 -18 -18 -18 -18 -18 -18 -18 -18 -18 -18 -18 -19 -19 -19 -19 -19 -19 -19 -19 -19 -19 -19 -19 -18 -19 -19 -19 -19 -19 -19 -19 -19 -19 -19 -20 -20 -20
-18 -18 -18 -18 -18 -18 -18 -18 -18 -18 -18 -18 -18 -19 -19 -19 -19 -19 -19 -19 -19 -19 -19 -19 -19 -19 -19 -19 -19 -19 -20 -20 -19 -19 -19 -19 -20 -19 -20 -20 -20 -20 -20
-19 -19 -19 -19 -19 -19 -19 -19 -19 -19 -19 -19 -19 -19 -19 -19 -19 -19 -19 -19 -19 -19 -19 -19 -19 -19 -19 -19 -19 -19 -20 -20 -20 -19 -19 -20 -20 -20 -20 -20 -20 -20 -20
-20 -20 -19 -19 -19 -19 -19 -19 -19 -19 -19 -19 -19 -19 -19 -19 -18 -19 -19 -19 -19 -19 -19 -19 -19 -19 -19 -19 -19 -19 -19 -19 -19 -19 -19 -20 -20 -20 -20 -20 -20 -20 -20
-20 -20 -20 -20 -20 -20 -20 -20 -20 -20 -20 -20 -20 -19 -19 -19 -19 -19 -19 -19 -19 -19 -19 -19 -19 -19 -19 -19 -19 -19 -19 -19 -19 -19 -20 -20 -20 -20 -20 -20 -20 -20 -20
-20 -20 -20 -20 -20 -20 -20 -20 -20 -20 -20 -20 -20 -20 -20 -19 -19 -19 -19 -19 -19 -19 -19 -19 -19 -19 -19 -19 -19 -19 -19 -19 -19 -20 -20 -20 -20 -20 -20 -20 -20 -20 -20
-21 -21 -21 -20 -20 -20 -20 -20 -20 -20 -20 -20 -20 -20 -20 -20 -20 -20 -19 -19 -19 -19 -19 -19 -19 -19 -19 -19 -19 -19 -19 -19 -20 -20 -20 -20 -20 -20 -20 -20 -20 -20 -20
-21 -21 -21 -21 -21 -21 -20 -21 -21 -21 -21 -21 -20 -20 -20 -20 -20 -20 -20 -19 -19 -19 -19 -19 -19 -19 -19 -19 -19 -19 -19 -20 -20 -20 -20 -20 -20 -20 -20 -20 -20 -20 -20
-21 -21 -21 -21 -21 -21 -21 -21 -21 -21 -21 -21 -20 -20 -20 -20 -20 -20 -20 -20 -20 -19 -19 -19 -19 -19 -19 -20 -20 -20 -20 -20 -20 -20 -20 -20 -20 -20 -20 -20 -20 -20 -20
-21 -21 -21 -22 -22 -22 -22 -21 -21 -21 -21 -20 -20 -20 -20 -20 -20 -20 -20 -20 -20 -20 -20 -19 -19 -19 -19 -20 -20 -20 -20 -20 -20 -20 -20 -20 -20 -20 -20 -20 -21 -21 -21
-22 -22 -21 -21 -22 -22 -22 -21 -21 -21 -21 -21 -21 -20 -20 -20 -20 -20 -20 -20 -20 -20 -20 -20 -20 -20 -20 -20 -20 -20 -20 -20 -20 -20 -20 -20 -20 -20 -20 -20 -20 -21 -21
-22 -22 -22 -22 -22 -22 -21 -21 -21 -21 -21 -21 -20 -20 -20 -21 -21 -21 -21 -21 -21 -21 -21 -20 -20 -20 -20 -20 -20 -20 -20 -20 -20 -20 -20 -20 -20 -21 -21 -21 -21 -21 -21
-23 -23 -23 -23 -23 -22 -22 -22 -21 -21 -21 -21 -21 -21 -21 -21 -21 -21 -21 -21 -21 -21 -21 -21 -21 -21 -21 -20 -20 -20 -20 -20 -20 -20 -21 -21 -21 -21 -21 -21 -21 -21 -21
-23 -23 -23 -23 -23 -22 -22 -22 -22 -21 -21 -21 -21 -21 -21 -21 -21 -21 -21 -21 -21 -21 -21 -21 -21 -21 -21 -21 -21 -21 -21 -21 -21 -21 -21 -21 -21 -21 -21 -21 -21 -21 -21
-23 -23 -23 -23 -23 -23 -23 -23 -22 -22 -22 -22 -22 -22 -22 -22 -22 -22 -22 -22 -22 -21 -22 -22 -22 -22 -21 -21 -21 -21 -21 -21 -21 -21 -21 -21 -22 -21 -21 -21 -21 -21 -21
-24 -24 -24 -24 -24 -24 -24 -23 -23 -23 -23 -23 -23 -23 -23 -23 -23 -22 -23 -23 -23 -22 -22 -22 -22 -22 -22 -22 -22 -22 -22 -22 -22 -22 -22 -22 -22 -22 -22 -22 -22 -22 -22

GFSGL_500_temp_105.txt.gz
Temp
-14 -14 -15 -14 -15 -14 -14 -14 -14 -14 -14 -14 -14 -14 -14 -14 -14 -15 -15 -15 -15 -15 -15 -15 -15 -14 -15 -14 -15 -15 -15 -15 -14 -14 -14 -15 -15 -15 -15 -15 -15 -14 -15
-15 -15 -14 -15 -14 -14 -14 -14 -14 -14 -14 -14 -14 -15 -16 -16 -16 -16 -16 -16 -15 -16 -16 -15 -15 -15 -15 -15 -15 -15 -15 -15 -15 -15 -15 -15 -15 -15 -15 -16 -16 -15 -15
-15 -15 -14 -14 -15 -15 -14 -14 -14 -14 -15 -16 -17 -17 -17 -17 -17 -17 -17 -17 -17 -16 -16 -16 -16 -15 -15 -16 -15 -15 -15 -15 -15 -15 -15 -15 -16 -15 -16 -16 -16 -15 -15
-15 -15 -14 -15 -15 -15 -14 -14 -14 -15 -16 -16 -17 -17 -17 -17 -17 -17 -16 -17 -17 -16 -16 -17 -16 -16 -16 -16 -16 -16 -16 -16 -16 -16 -16 -16 -16 -16 -16 -16 -16 -16 -16
-15 -15 -15 -15 -15 -14 -14 -14 -15 -16 -16 -16 -16 -16 -17 -17 -17 -17 -17 -17 -17 -17 -17 -17 -17 -17 -17 -17 -16 -16 -16 -17 -17 -16 -16 -16 -16 -16 -16 -16 -17 -17 -17
-15 -15 -15 -15 -15 -15 -15 -15 -15 -16 -16 -16 -16 -17 -17 -17 -17 -17 -17 -17 -17 -17 -17 -17 -17 -17 -17 -17 -18 -18 -17 -18 -18 -18 -17 -18 -17 -17 -17 -17 -18 -19 -19
-16 -16 -15 -16 -16 -15 -16 -16 -16 -16 -16 -16 -16 -17 -17 -16 -16 -17 -17 -17 -17 -17 -17 -17 -17 -17 -18 -18 -18 -18 -18 -18 -18 -18 -18 -18 -18 -18 -17 -18 -18 -19 -18
-17 -16 -16 -16 -16 -16 -16 -16 -16 -16 -17 -17 -17 -17 -16 -16 -17 -17 -17 -17 -17 -18 -18 -18 -18 -18 -18 -18 -19 -19 -19 -19 -19 -19 -18 -19 -19 -19 -19 -19 -19 -19 -18
-17 -17 -17 -17 -17 -17 -17 -17 -17 -17 -17 -17 -17 -17 -17 -17 -17 -17 -17 -17 -17 -18 -18 -18 -18 -18 -19 -19 -19 -19 -19 -19 -19 -19 -19 -19 -19 -19 -19 -19 -19 -19 -19
-18 -17 -18 -18 -17 -17 -17 -17 -17 -17 -17 -17 -17 -17 -17 -17 -17 -17 -17 -17 -18 -18 -18 -19 -19 -19 -19 -19 -19 -19 -19 -19 -20 -19 -19 -19 -19 -19 -19 -19 -19 -20 -20
-19 -18 -18 -18 -18 -18 -18 -18 -18 -18 -18 -17 -17 -17 -17 -17 -18 -17 -17 -18 -18 -18 -19 -19 -19 -19 -19 -19 -19 -19 -19 -19 -19 -19 -19 -19 -19 -19 -19 -19 -20 -20 -20
-19 -19 -19 -19 -18 -18 -18 -18 -18 -18 -18 -18 -18 -18 -18 -18 -18 -18 -18 -18 -18 -18 -19 -19 -19 -19 -19 -19 -19 -19 -19 -20 -20 -19 -19 -20 -20 -20 -19 -19 -20 -20 -19
-20 -20 -19 -19 -19 -19 -18 -18 -18 -18 -18 -18 -18 -18 -18 -18 -19 -18 -18 -18 -19 -19 -19 -19 -19 -19 -19 -19 -19 -19 -19 -19 -19 -19 -19 -20 -20 -20 -20 -20 -20 -20 -20
-20 -19 -19 -19 -19 -19 -19 -19 -19 -19 -19 -19 -19 -19 -19 -19 -19 -19 -19 -19 -19 -19 -19 -19 -19 -19 -19 -19 -19 -20 -20 -20 -20 -20 -19 -20 -20 -20 -20 -20 -20 -20 -20
-20 -20 -20 -20 -20 -20 -20 -20 -20 -20 -20 -20 -20 -20 -20 -20 -20 -20 -19 -19 -19 -19 -19 -19 -19 -19 -19 -19 -19 -19 -19 -20 -20 -20 -20 -19 -19 -20 -20 -20 -20 -20 -20
-20 -20 -20 -20 -20 -20 -20 -20 -20 -20 -20 -20 -20 -20 -20 -20 -20 -20 -20 -20 -20 -20 -20 -19 -19 -19 -19 -19 -19 -19 -19 -20 -20 -20 -20 -19 -19 -20 -20 -20 -20 -20 -20
-21 -21 -21 -21 -21 -21 -21 -21 -21 -20 -20 -20 -20 -20 -20 -20 -20 -20 -20 -20 -20 -20 -20 -20 -20 -19 -19 -19 -19 -19 -19 -19 -20 -20 -19 -19 -20 -20 -20 -20 -20 -20 -20
-21 -21 -21 -21 -21 -21 -21 -21 -21 -21 -21 -21 -20 -20 -20 -21 -21 -20 -20 -20 -20 -20 -20 -20 -20 -20 -19 -19 -19 -19 -19 -20 -20 -20 -20 -20 -20 -20 -20 -20 -20 -21 -21
-22 -21 -21 -21 -21 -21 -21 -21 -21 -21 -21 -21 -21 -21 -21 -21 -20 -20 -20 -20 -20 -20 -20 -20 -20 -20 -20 -20 -20 -20 -20 -20 -20 -20 -20 -20 -21 -21 -20 -20 -21 -21 -21
-22 -22 -22 -22 -22 -22 -22 -22 -21 -21 -22 -22 -21 -21 -21 -21 -21 -21 -20 -20 -20 -20 -20 -20 -20 -20 -20 -20 -20 -20 -20 -20 -20 -20 -20 -21 -21 -21 -21 -20 -20 -21 -21
-22 -22 -22 -22 -22 -22 -22 -22 -21 -21 -22 -22 -22 -21 -21 -21 -21 -21 -21 -21 -21 -21 -21 -20 -20 -20 -21 -20 -20 -20 -20 -20 -20 -20 -21 -21 -21 -20 -20 -20 -20 -21 -21
-23 -22 -22 -22 -22 -22 -22 -22 -22 -22 -22 -22 -22 -21 -21 -21 -21 -21 -21 -21 -21 -21 -21 -21 -21 -21 -21 -21 -21 -21 -21 -21 -20 -20 -20 -20 -20 -21 -21 -21 -21 -21 -21
-23 -23 -23 -23 -23 -23 -23 -23 -22 -22 -22 -22 -22 -22 -21 -21 -21 -21 -21 -21 -21 -21 -21 -21 -21 -21 -21 -21 -21 -21 -21 -21 -21 -21 -21 -21 -20 -21 -21 -21 -21 -21 -21
-24 -24 -24 -23 -23 -23 -23 -23 -23 -23 -23 -23 -22 -22 -22 -22 -22 -21 -21 -21 -21 -21 -21 -21 -21 -21 -22 -22 -21 -21 -21 -21 -21 -21 -21 -21 -21 -21 -21 -21 -21 -22 -22
-24 -24 -24 -24 -24 -24 -24 -24 -23 -23 -23 -23 -23 -23 -23 -22 -22 -23 -23 -22 -22 -22 -22 -22 -22 -22 -22 -22 -22 -22 -22 -22 -22 -22 -22 -22 -22 -22 -22 -22 -22 -22 -22
-25 -25 -24 -24 -24 -24 -24 -24 -24 -24 -24 -24 -24 -24 -23 -23 -23 -23 -23 -23 -23 -23 -23 -23 -23 -23 -23 -23 -23 -23 -22 -22 -22 -22 -22 -22 -22 -22 -22 -22 -22 -22 -22

GFSGL_500_temp_108.txt.gz
Temp
-14 -14 -14 -14 -14 -14 -14 -14 -14 -14 -14 -14 -14 -14 -14 -14 -14 -14 -13 -13 -14 -15 -15 -15 -16 -16 -16 -16 -16 -16 -15 -15 -15 -15 -15 -15 -15 -15 -15 -15 -16 -15 -15
-15 -15 -15 -14 -14 -14 -14 -15 -14 -15 -14 -14 -14 -14 -14 -14 -14 -13 -14 -15 -16 -16 -16 -16 -17 -16 -17 -17 -17 -16 -16 -16 -16 -15 -16 -15 -15 -15 -16 -16 -16 -16 -16
-15 -15 -14 -14 -14 -14 -14 -15 -14 -14 -14 -15 -15 -14 -14 -14 -14 -15 -15 -16 -16 -16 -17 -16 -17 -17 -17 -17 -17 -17 -17 -16 -16 -16 -16 -16 -16 -16 -16 -16 -16 -16 -16
-15 -15 -14 -14 -15 -15 -15 -15 -15 -15 -15 -15 -14 -14 -14 -14 -15 -16 -16 -16 -16 -16 -16 -17 -17 -17 -17 -17 -17 -17 -17 -17 -17 -17 -17 -17 -17 -17 -17 -17 -16 -16 -16
-15 -15 -15 -15 -15 -15 -15 -15 -15 -15 -15 -15 -14 -14 -15 -15 -16 -16 -16 -16 -16 -16 -17 -16 -16 -17 -17 -17 -17 -17 -17 -18 -18 -17 -17 -17 -17 -17 -17 -17 -17 -16 -17
-15 -14 -14 -15 -15 -15 -15 -15 -15 -15 -15 -15 -15 -15 -15 -15 -16 -16 -16 -16 -16 -16 -16 -16 -17 -17 -17 -17 -17 -18 -18 -18 -18 -18 -18 -18 -18 -18 -18 -18 -18 -18 -18
-17 -16 -16 -16 -16 -16 -15 -15 -15 -15 -15 -15 -15 -15 -15 -15 -16 -16 -16 -16 -16 -16 -16 -16 -17 -17 -17 -18 -18 -18 -18 -18 -18 -19 -19 -19 -19 -19 -19 -18 -18 -19 -19
-17 -17 -17 -16 -16 -16 -16 -16 -16 -16 -16 -15 -15 -16 -16 -16 -16 -16 -16 -16 -16 -16 -16 -16 -17 -17 -17 -18 -18 -18 -18 -18 -19 -19 -19 -20 -19 -19 -19 -19 -19 -19 -20
-18 -17 -17 -17 -17 -17 -17 -16 -16 -16 -16 -16 -16 -16 -17 -17 -17 -17 -17 -17 -17 -17 -17 -17 -17 -17 -17 -18 -18 -19 -19 -19 -19 -19 -20 -20 -20 -19 -19 -19 -19 -20 -20
-18 -18 -18 -18 -18 -18 -18 -18 -17 -17 -17 -17 -17 -17 -17 -17 -17 -17 -17 -17 -17 -17 -17 -17 -18 -18 -18 -18 -19 -19 -19 -19 -19 -19 -20 -20 -20 -20 -19 -19 -19 -20 -20
-19 -19 -19 -19 -19 -18 -18 -18 -17 -18 -17 -18 -18 -18 -17 -18 -18 -17 -17 -17 -18 -18 -17 -17 -18 -18 -18 -18 -19 -19 -19 -19 -19 -19 -20 -20 -20 -20 -20 -19 -19 -20 -20
-19 -19 -19 -19 -19 -19 -18 -18 -18 -18 -18 -18 -18 -18 -18 -18 -18 -18 -18 -18 -18 -18 -18 -18 -18 -18 -18 -18 -19 -19 -19 -19 -19 -19 -19 -19 -19 -20 -19 -20 -20 -20 -20
-20 -20 -20 -20 -19 -19 -19 -19 -19 -19 -19 -19 -19 -18 -18 -18 -18 -18 -18 -18 -18 -18 -19 -19 -19 -19 -19 -19 -19 -19 -19 -19 -19 -20 -20 -20 -20 -20 -20 -20 -20 -20 -20
-20 -20 -20 -20 -20 -20 -20 -20 -20 -19 -19 -19 -19 -19 -19 -19 -19 -19 -19 -19 -19 -19 -20 -19 -19 -19 -19 -19 -19 -19 -19 -19 -19 -19 -20 -20 -20 -20 -20 -20 -20 -20 -20
-21 -21 -20 -21 -20 -20 -20 -20 -20 -19 -19 -19 -19 -19 -19 -19 -19 -19 -20 -20 -20 -20 -20 -20 -20 -20 -20 -19 -19 -19 -19 -19 -19 -20 -20 -20 -20 -20 -20 -20 -20 -20 -20
-21 -21 -21 -21 -21 -21 -20 -20 -20 -20 -20 -20 -20 -20 -20 -20 -20 -20 -20 -20 -20 -20 -20 -20 -20 -20 -20 -20 -20 -20 -19 -19 -19 -20 -20 -20 -20 -20 -20 -20 -20 -20 -20
-21 -21 -21 -21 -21 -21 -21 -21 -21 -21 -21 -21 -20 -20 -20 -20 -20 -20 -20 -20 -20 -20 -20 -20 -20 -20 -20 -20 -20 -20 -20 -20 -20 -20 -19 -20 -20 -20 -20 -20 -20 -20 -20
-21 -21 -21 -21 -21 -21 -21 -21 -21 -21 -21 -21 -21 -21 -21 -21 -21 -21 -21 -21 -21 -20 -20 -20 -20 -21 -21 -21 -20 -20 -20 -20 -20 -20 -20 -20 -20 -20 -20 -20 -20 -21 -21
-22 -22 -22 -22 -22 -22 -22 -21 -21 -21 -21 -21 -21 -21 -21 -21 -21 -21 -21 -21 -21 -20 -20 -20 -20 -20 -20 -21 -20 -20 -20 -20 -20 -20 -20 -20 -20 -20 -20 -20 -21 -21 -21
-22 -22 -22 -22 -22 -22 -22 -22 -22 -22 -22 -22 -22 -21 -21 -21 -21 -22 -21 -21 -21 -21 -21 -20 -20 -20 -20 -20 -20 -21 -21 -21 -20 -20 -20 -20 -20 -20 -20 -20 -21 -21 -21
-23 -23 -23 -23 -22 -22 -22 -22 -22 -22 -22 -22 -22 -22 -22 -22 -22 -22 -21 -21 -21 -21 -21 -21 -21 -21 -21 -21 -21 -21 -21 -21 -21 -21 -21 -21 -21 -21 -21 -21 -21 -21 -21
-24 -23 -23 -23 -23 -23 -23 -23 -22 -22 -22 -22 -22 -22 -22 -22 -22 -22 -22 -21 -21 -21 -21 -21 -21 -21 -21 -21 -21 -21 -21 -21 -21 -21 -21 -21 -21 -21 -21 -21 -21 -21 -21
-24 -24 -24 -24 -24 -23 -23 -23 -23 -23 -23 -23 -23 -23 -22 -22 -23 -23 -22 -22 -22 -22 -21 -21 -21 -21 -21 -21 -21 -21 -21 -21 -21 -21 -21 -21 -21 -21 -21 -21 -21 -21 -21
-24 -24 -24 -24 -24 -24 -24 -24 -24 -23 -23 -23 -23 -23 -23 -23 -23 -23 -23 -23 -22 -22 -22 -22 -22 -22 -22 -22 -22 -22 -22 -22 -22 -22 -22 -22 -22 -22 -22 -22 -22 -22 -22
-25 -25 -25 -25 -24 -24 -24 -24 -24 -24 -24 -24 -24 -24 -24 -24 -24 -24 -24 -23 -23 -23 -23 -23 -23 -23 -23 -23 -23 -23 -23 -23 -23 -23 -22 -22 -22 -22 -22 -22 -22 -22 -22
-25 -25 -25 -25 -25 -25 -25 -25 -24 -24 -24 -24 -24 -24 -24 -25 -24 -24 -24 -24 -24 -24 -24 -24 -24 -23 -23 -23 -23 -23 -23 -23 -23 -23 -23 -23 -23 -23 -23 -23 -23 -22 -23

GFSGL_500_temp_111.txt.gz
Temp
-14 -13 -13 -13 -14 -14 -13 -14 -14 -14 -14 -14 -14 -14 -14 -14 -14 -14 -14 -14 -14 -13 -13 -13 -14 -14 -15 -15 -16 -16 -16 -16 -16 -16 -16 -16 -16 -15 -16 -15 -16 -16 -15
-14 -14 -13 -13 -14 -14 -14 -14 -14 -14 -14 -14 -14 -14 -14 -14 -14 -14 -14 -14 -14 -13 -13 -14 -14 -15 -15 -16 -16 -16 -16 -16 -17 -17 -16 -16 -17 -16 -17 -16 -16 -16 -16
-15 -15 -15 -15 -14 -14 -14 -14 -14 -14 -14 -14 -14 -14 -14 -14 -14 -15 -14 -14 -14 -14 -14 -14 -15 -15 -16 -16 -16 -16 -16 -16 -16 -17 -17 -17 -17 -17 -17 -17 -17 -17 -17
-15 -15 -15 -15 -15 -14 -14 -14 -14 -14 -14 -15 -15 -15 -14 -14 -15 -15 -14 -14 -14 -14 -15 -15 -15 -15 -16 -16 -16 -16 -16 -16 -17 -17 -17 -17 -17 -17 -17 -18 -18 -17 -17
-15 -15 -15 -15 -15 -15 -15 -15 -15 -15 -15 -15 -15 -15 -15 -15 -15 -15 -15 -15 -15 -15 -15 -15 -15 -15 -16 -16 -16 -16 -16 -16 -17 -17 -17 -17 -18 -18 -18 -18 -18 -18 -18
-16 -15 -15 -15 -15 -15 -15 -15 -15 -15 -15 -15 -15 -15 -15 -15 -15 -15 -15 -15 -15 -15 -15 -15 -16 -16 -16 -16 -16 -16 -16 -16 -17 -17 -18 -18 -18 -18 -18 -19 -19 -19 -18
-16 -16 -15 -15 -15 -15 -15 -15 -16 -16 -16 -16 -16 -16 -16 -16 -15 -15 -15 -15 -15 -15 -15 -16 -16 -16 -16 -16 -16 -17 -17 -17 -17 -18 -18 -18 -19 -19 -19 -20 -20 -19 -19
-16 -16 -16 -16 -15 -16 -16 -16 -17 -17 -17 -17 -17 -16 -16 -16 -16 -16 -16 -16 -16 -16 -16 -16 -16 -16 -16 -17 -17 -17 -17 -17 -17 -18 -18 -19 -19 -19 -19 -20 -20 -19 -19
-16 -16 -16 -16 -16 -17 -17 -17 -17 -17 -17 -17 -17 -16 -16 -16 -16 -16 -16 -16 -16 -16 -16 -17 -17 -17 -17 -17 -17 -17 -17 -17 -18 -18 -18 -19 -19 -19 -19 -20 -20 -20 -20
-17 -17 -17 -17 -17 -17 -17 -17 -17 -17 -17 -17 -17 -17 -17 -17 -17 -17 -17 -17 -17 -17 -17 -17 -17 -17 -17 -17 -17 -17 -17 -18 -18 -18 -19 -19 -19 -19 -20 -19 -20 -20 -20
-19 -19 -18 -18 -18 -18 -18 -18 -18 -18 -18 -18 -18 -18 -18 -18 -18 -18 -17 -17 -17 -17 -17 -17 -17 -17 -17 -17 -17 -17 -18 -18 -19 -19 -19 -19 -19 -20 -20 -20 -20 -20 -20
-20 -20 -20 -19 -19 -19 -19 -19 -19 -19 -19 -19 -19 -19 -19 -18 -18 -18 -18 -18 -18 -18 -18 -18 -18 -18 -18 -18 -18 -18 -18 -19 -19 -19 -19 -19 -19 -19 -20 -20 -20 -20 -20
-20 -20 -20 -20 -20 -20 -20 -20 -19 -19 -20 -19 -19 -20 -19 -19 -19 -19 -19 -18 -18 -18 -18 -18 -18 -18 -18 -18 -18 -19 -19 -19 -19 -19 -19 -19 -20 -20 -20 -20 -20 -20 -20
-21 -21 -20 -20 -20 -20 -20 -20 -20 -20 -20 -20 -20 -20 -20 -19 -19 -19 -19 -19 -19 -19 -19 -19 -19 -19 -19 -19 -19 -20 -20 -19 -19 -19 -19 -19 -19 -20 -20 -20 -20 -20 -20
-21 -21 -21 -21 -21 -21 -21 -21 -21 -21 -21 -21 -20 -20 -20 -20 -20 -20 -19 -20 -19 -19 -19 -19 -19 -19 -19 -20 -20 -20 -20 -20 -20 -19 -19 -19 -20 -19 -20 -20 -20 -20 -20
-21 -21 -21 -21 -21 -21 -21 -21 -21 -21 -21 -21 -21 -21 -21 -21 -20 -20 -20 -20 -20 -20 -20 -20 -20 -20 -20 -20 -20 -20 -20 -20 -20 -20 -19 -20 -20 -20 -19 -20 -20 -20 -20
-21 -21 -21 -21 -21 -21 -21 -21 -21 -21 -21 -21 -21 -21 -21 -21 -21 -21 -21 -21 -20 -20 -20 -20 -20 -20 -20 -20 -20 -20 -20 -20 -20 -20 -20 -20 -20 -20 -20 -20 -20 -20 -20
-22 -22 -22 -22 -22 -22 -22 -22 -22 -21 -21 -21 -21 -21 -21 -21 -21 -21 -21 -21 -21 -20 -20 -20 -20 -20 -20 -20 -20 -20 -20 -21 -21 -20 -20 -20 -20 -20 -20 -20 -20 -20 -20
-23 -22 -22 -22 -22 -22 -22 -22 -22 -22 -22 -22 -22 -22 -21 -21 -21 -21 -21 -21 -21 -21 -21 -21 -21 -21 -20 -20 -20 -20 -20 -20 -21 -21 -20 -20 -20 -20 -20 -20 -20 -20 -20
-24 -23 -23 -23 -23 -23 -22 -22 -22 -22 -22 -22 -22 -22 -22 -22 -22 -22 -22 -22 -22 -22 -22 -21 -21 -21 -21 -21 -21 -21 -21 -21 -21 -21 -21 -21 -20 -20 -21 -21 -21 -21 -21
-24 -24 -24 -23 -23 -23 -23 -23 -23 -22 -22 -22 -22 -22 -22 -22 -22 -22 -22 -22 -22 -22 -22 -22 -22 -21 -21 -21 -21 -21 -21 -21 -21 -21 -21 -21 -21 -21 -21 -21 -21 -21 -21
-25 -24 -24 -24 -24 -24 -23 -23 -23 -23 -23 -23 -22 -22 -22 -22 -22 -22 -22 -22 -22 -22 -22 -22 -22 -22 -22 -21 -21 -21 -21 -21 -21 -21 -21 -21 -21 -21 -21 -21 -21 -21 -21
-25 -25 -25 -25 -24 -24 -24 -24 -24 -23 -23 -23 -23 -23 -23 -23 -23 -23 -23 -22 -22 -22 -23 -23 -23 -22 -22 -22 -22 -22 -22 -21 -21 -21 -21 -21 -21 -22 -22 -22 -22 -22 -22
-26 -26 -26 -25 -25 -25 -24 -24 -24 -24 -24 -24 -24 -24 -24 -24 -24 -23 -23 -23 -23 -23 -23 -23 -23 -23 -23 -22 -22 -22 -22 -22 -22 -22 -22 -22 -22 -22 -22 -22 -22 -22 -22
-27 -26 -26 -26 -25 -25 -25 -25 -25 -25 -25 -24 -24 -24 -24 -24 -24 -24 -24 -24 -24 -24 -24 -24 -24 -24 -23 -23 -23 -23 -23 -23 -23 -23 -23 -23 -23 -23 -23 -23 -23 -23 -23
-27 -27 -26 -26 -26 -26 -25 -25 -25 -25 -25 -25 -25 -25 -25 -24 -24 -24 -24 -25 -25 -25 -25 -25 -24 -24 -24 -24 -24 -24 -24 -24 -24 -24 -23 -23 -23 -23 -23 -23 -23 -23 -23

GFSGL_500_temp_114.txt.gz
Temp
-13 -14 -13 -13 -13 -13 -13 -13 -13 -13 -13 -13 -14 -14 -15 -15 -14 -14 -14 -14 -14 -14 -14 -14 -14 -13 -14 -14 -14 -14 -14 -14 -15 -15 -16 -16 -16 -16 -16 -17 -16 -16 -17
-14 -14 -14 -14 -14 -14 -13 -13 -13 -14 -14 -14 -15 -15 -15 -15 -14 -14 -14 -14 -14 -15 -14 -14 -14 -14 -14 -14 -14 -14 -15 -15 -15 -15 -15 -15 -16 -16 -16 -17 -17 -17 -17
-14 -14 -14 -15 -15 -14 -14 -14 -14 -14 -14 -14 -15 -15 -15 -15 -15 -15 -14 -14 -14 -14 -15 -14 -14 -14 -14 -15 -15 -15 -15 -15 -15 -15 -15 -15 -16 -16 -16 -17 -17 -17 -17
-14 -14 -15 -15 -14 -14 -15 -15 -15 -15 -15 -15 -15 -15 -15 -15 -15 -15 -15 -15 -14 -15 -15 -15 -15 -15 -15 -15 -15 -15 -15 -15 -15 -15 -16 -16 -16 -16 -16 -17 -17 -17 -17
-15 -15 -15 -15 -15 -15 -15 -15 -15 -15 -15 -15 -15 -15 -15 -15 -15 -15 -15 -15 -15 -15 -15 -15 -15 -15 -15 -15 -15 -15 -16 -16 -16 -16 -16 -16 -16 -16 -17 -17 -18 -17 -18
-15 -16 -15 -15 -15 -16 -16 -16 -15 -15 -15 -15 -15 -15 -15 -15 -15 -15 -15 -15 -15 -15 -15 -15 -15 -15 -15 -15 -15 -16 -16 -16 -16 -16 -17 -17 -17 -17 -17 -17 -18 -18 -18
-16 -16 -16 -16 -16 -16 -15 -15 -15 -15 -16 -16 -16 -16 -16 -16 -16 -16 -16 -16 -16 -16 -16 -16 -16 -16 -16 -16 -16 -16 -16 -16 -16 -17 -17 -17 -17 -17 -17 -18 -18 -19 -19
-16 -16 -16 -16 -16 -16 -16 -16 -16 -16 -16 -16 -16 -16 -16 -16 -16 -16 -16 -16 -16 -16 -16 -16 -16 -16 -16 -16 -16 -16 -16 -17 -17 -17 -17 -17 -17 -17 -18 -18 -19 -19 -19
-16 -16 -16 -16 -16 -16 -16 -16 -16 -17 -17 -17 -17 -17 -17 -17 -17 -17 -17 -17 -17 -17 -17 -17 -17 -17 -17 -16 -16 -16 -17 -17 -17 -17 -17 -17 -17 -18 -18 -18 -19 -19 -19
-17 -17 -17 -17 -17 -18 -17 -17 -17 -18 -18 -18 -17 -17 -17 -17 -18 -17 -17 -18 -17 -17 -17 -17 -17 -17 -17 -16 -17 -17 -17 -17 -17 -17 -17 -17 -18 -18 -18 -19 -19 -19 -19
-18 -17 -17 -17 -18 -18 -18 -18 -18 -18 -18 -18 -18 -18 -18 -18 -18 -18 -18 -18 -18 -18 -18 -18 -18 -17 -17 -18 -17 -17 -17 -17 -17 -17 -17 -18 -18 -18 -19 -19 -19 -19 -19
-18 -18 -19 -19 -19 -19 -19 -19 -19 -19 -19 -19 -19 -19 -19 -19 -19 -19 -18 -18 -19 -19 -18 -18 -18 -18 -18 -18 -18 -18 -18 -18 -18 -17 -18 -18 -18 -19 -19 -19 -19 -19 -19
-19 -19 -19 -19 -20 -20 -20 -20 -20 -20 -19 -19 -19 -19 -19 -19 -19 -19 -19 -19 -19 -19 -19 -18 -18 -18 -18 -18 -18 -18 -18 -18 -18 -19 -19 -19 -19 -19 -19 -19 -19 -19 -20
-20 -20 -20 -20 -20 -20 -20 -20 -20 -20 -20 -20 -20 -20 -20 -20 -20 -19 -19 -19 -20 -20 -19 -19 -19 -19 -19 -19 -19 -19 -19 -19 -19 -19 -20 -19 -19 -19 -19 -19 -19 -20 -20
-21 -21 -21 -20 -20 -21 -21 -21 -21 -21 -21 -20 -20 -20 -20 -20 -20 -20 -19 -20 -20 -20 -19 -19 -19 -19 -19 -19 -20 -20 -20 -19 -20 -20 -20 -20 -20 -20 -20 -20 -20 -20 -20
-21 -21 -21 -21 -21 -21 -20 -21 -21 -21 -21 -21 -21 -21 -21 -21 -21 -20 -21 -20 -20 -20 -20 -20 -20 -20 -20 -20 -20 -20 -20 -20 -20 -20 -20 -20 -20 -20 -20 -20 -20 -20 -20
-21 -21 -21 -21 -21 -21 -21 -21 -21 -21 -21 -21 -21 -21 -21 -21 -21 -21 -21 -21 -21 -21 -20 -20 -20 -20 -20 -20 -20 -20 -20 -20 -20 -20 -20 -20 -20 -20 -20 -20 -20 -20 -20
-22 -22 -22 -22 -22 -21 -21 -21 -22 -21 -22 -21 -21 -21 -21 -21 -21 -21 -21 -21 -21 -21 -21 -21 -21 -21 -21 -21 -21 -20 -20 -20 -20 -20 -20 -20 -20 -20 -20 -20 -20 -20 -20
-24 -23 -23 -23 -23 -22 -22 -22 -22 -22 -22 -22 -22 -22 -22 -22 -22 -22 -22 -21 -21 -21 -21 -21 -21 -21 -21 -21 -21 -21 -21 -21 -20 -20 -20 -20 -20 -20 -20 -20 -20 -20 -20
-24 -24 -24 -24 -24 -24 -23 -23 -22 -22 -22 -22 -22 -22 -22 -22 -22 -22 -22 -22 -22 -22 -22 -22 -22 -22 -22 -21 -21 -21 -21 -21 -21 -21 -21 -20 -21 -21 -21 -21 -21 -21 -21
-25 -24 -25 -24 -24 -24 -24 -24 -24 -23 -23 -23 -23 -23 -23 -22 -22 -22 -22 -22 -22 -22 -22 -22 -22 -22 -22 -22 -22 -22 -22 -21 -21 -21 -21 -21 -21 -21 -21 -21 -21 -21 -21
-25 -25 -25 -25 -25 -25 -25 -25 -24 -24 -24 -24 -23 -23 -23 -23 -23 -23 -23 -23 -23 -22 -22 -22 -22 -22 -22 -22 -22 -22 -22 -22 -22 -22 -21 -21 -21 -21 -21 -21 -21 -21 -21
-26 -26 -26 -26 -26 -26 -25 -25 -25 -25 -24 -24 -24 -24 -23 -23 -23 -23 -23 -23 -23 -23 -23 -23 -23 -23 -22 -22 -22 -22 -23 -23 -22 -22 -22 -22 -22 -22 -21 -22 -22 -22 -22
-26 -26 -27 -27 -26 -26 -26 -26 -26 -25 -25 -25 -24 -24 -24 -24 -24 -24 -24 -24 -24 -24 -23 -23 -23 -23 -23 -23 -23 -23 -23 -23 -23 -23 -22 -22 -22 -22 -22 -22 -22 -22 -22
-27 -27 -27 -28 -27 -27 -27 -26 -26 -26 -26 -25 -25 -25 -24 -24 -24 -24 -24 -24 -24 -24 -24 -24 -24 -24 -24 -24 -24 -24 -24 -24 -23 -23 -23 -23 -23 -23 -23 -23 -23 -23 -23
-28 -28 -28 -28 -28 -28 -27 -27 -26 -26 -26 -26 -25 -25 -25 -25 -25 -25 -25 -25 -24 -24 -24 -24 -24 -25 -25 -25 -25 -25 -25 -25 -24 -24 -24 -24 -24 -24 -24 -24 -24 -24 -24

GFSGL_500_temp_117.txt.gz
Temp
-12 -12 -11 -12 -12 -11 -12 -12 -12 -12 -12 -12 -12 -12 -12 -12 -13 -14 -14 -15 -15 -14 -14 -13 -14 -13 -13 -13 -14 -14 -14 -14 -14 -14 -15 -15 -14 -14 -15 -15 -15 -15 -16
-12 -12 -13 -12 -12 -12 -12 -12 -13 -12 -12 -13 -13 -13 -14 -14 -14 -14 -15 -15 -14 -14 -14 -14 -14 -14 -14 -14 -14 -14 -15 -14 -14 -14 -15 -15 -15 -15 -15 -15 -15 -16 -16
-13 -13 -13 -14 -14 -14 -13 -13 -13 -13 -13 -14 -14 -14 -14 -15 -16 -16 -15 -15 -15 -14 -14 -14 -14 -14 -15 -14 -14 -14 -15 -15 -15 -15 -15 -15 -15 -15 -15 -15 -16 -16 -16
-14 -14 -14 -14 -14 -14 -14 -14 -14 -14 -13 -14 -14 -14 -14 -15 -15 -15 -15 -15 -15 -15 -15 -15 -15 -15 -15 -15 -15 -15 -15 -15 -15 -15 -15 -15 -16 -16 -15 -16 -16 -16 -17
-15 -14 -14 -14 -14 -14 -14 -14 -14 -14 -14 -14 -14 -14 -14 -14 -15 -15 -15 -15 -15 -15 -15 -15 -15 -15 -15 -15 -15 -15 -15 -15 -15 -15 -15 -15 -16 -16 -16 -16 -16 -17 -17
-15 -15 -15 -15 -15 -14 -14 -15 -15 -14 -14 -14 -14 -14 -14 -15 -15 -15 -15 -15 -15 -15 -15 -15 -15 -15 -15 -15 -15 -15 -15 -16 -16 -16 -16 -16 -16 -17 -17 -17 -17 -17 -17
-15 -15 -15 -15 -15 -15 -15 -15 -15 -15 -15 -15 -15 -15 -15 -15 -15 -15 -15 -15 -15 -15 -15 -15 -15 -15 -16 -16 -16 -16 -16 -16 -16 -16 -16 -16 -17 -17 -17 -17 -17 -17 -17
-15 -15 -15 -15 -16 -16 -16 -16 -16 -16 -15 -15 -15 -15 -15 -15 -15 -15 -15 -15 -15 -15 -15 -16 -16 -16 -16 -16 -16 -16 -16 -17 -17 -16 -16 -17 -17 -17 -17 -17 -17 -17 -18
-16 -16 -16 -16 -16 -16 -17 -17 -17 -17 -16 -16 -16 -16 -15 -15 -15 -15 -15 -15 -16 -16 -16 -16 -16 -16 -16 -16 -17 -17 -17 -17 -17 -17 -17 -17 -17 -17 -17 -17 -17 -17 -18
-17 -16 -16 -16 -16 -16 -16 -16 -16 -16 -16 -16 -16 -16 -16 -16 -16 -16 -17 -17 -17 -17 -17 -17 -17 -17 -17 -17 -17 -17 -18 -17 -17 -17 -17 -17 -17 -17 -17 -17 -18 -18 -19
-18 -17 -17 -17 -17 -17 -17 -17 -16 -16 -17 -17 -17 -17 -17 -17 -17 -17 -17 -18 -18 -18 -18 -18 -18 -18 -18 -18 -18 -18 -18 -18 -18 -18 -18 -18 -18 -18 -18 -18 -18 -19 -19
-18 -18 -18 -18 -18 -18 -18 -18 -18 -18 -18 -18 -18 -18 -18 -18 -18 -18 -18 -19 -19 -19 -19 -19 -19 -19 -19 -19 -19 -19 -19 -19 -18 -18 -18 -18 -18 -18 -18 -19 -19 -19 -19
-20 -20 -20 -20 -19 -20 -20 -19 -20 -20 -19 -19 -19 -19 -19 -19 -19 -19 -19 -19 -19 -19 -19 -20 -20 -19 -19 -19 -20 -19 -19 -19 -19 -19 -19 -18 -18 -19 -19 -19 -20 -20 -20
-20 -20 -20 -20 -21 -21 -21 -21 -21 -21 -21 -20 -20 -20 -20 -20 -20 -20 -20 -20 -20 -20 -20 -20 -20 -20 -20 -20 -19 -20 -19 -19 -19 -20 -19 -19 -19 -19 -19 -20 -20 -20 -20
-21 -21 -21 -21 -21 -21 -21 -21 -21 -21 -21 -21 -21 -21 -21 -21 -21 -21 -21 -21 -21 -20 -20 -21 -21 -21 -20 -20 -20 -20 -20 -19 -19 -20 -20 -19 -19 -20 -20 -20 -20 -20 -20
-22 -22 -22 -22 -21 -21 -21 -22 -21 -21 -21 -21 -21 -21 -21 -21 -21 -21 -21 -21 -21 -21 -21 -21 -21 -20 -20 -20 -20 -20 -20 -20 -20 -20 -20 -20 -20 -20 -20 -20 -20 -20 -20
-22 -22 -23 -23 -22 -22 -22 -22 -21 -21 -21 -21 -21 -21 -21 -21 -21 -21 -22 -21 -21 -21 -21 -21 -21 -20 -21 -21 -21 -21 -21 -20 -20 -20 -20 -20 -20 -20 -20 -20 -20 -20 -20
-23 -23 -23 -23 -23 -23 -23 -23 -22 -22 -22 -22 -22 -22 -21 -21 -22 -22 -22 -22 -22 -22 -21 -21 -21 -21 -21 -21 -21 -21 -21 -21 -21 -20 -20 -20 -20 -20 -20 -20 -20 -20 -20
-23 -23 -24 -24 -24 -24 -24 -23 -23 -23 -23 -23 -23 -23 -22 -22 -22 -22 -22 -22 -22 -22 -21 -22 -22 -22 -21 -21 -21 -21 -21 -21 -21 -21 -21 -21 -21 -21 -20 -20 -20 -20 -21
-24 -24 -24 -24 -24 -24 -24 -24 -24 -24 -24 -23 -23 -23 -23 -23 -23 -23 -22 -22 -22 -22 -22 -22 -22 -22 -22 -22 -22 -22 -22 -22 -22 -22 -21 -21 -21 -21 -21 -21 -21 -21 -21
-25 -25 -25 -25 -25 -25 -25 -25 -25 -24 -24 -24 -24 -24 -24 -23 -23 -23 -23 -23 -23 -22 -22 -22 -22 -22 -22 -22 -22 -22 -22 -22 -22 -22 -22 -22 -21 -21 -21 -21 -21 -21 -21
-26 -26 -26 -26 -25 -25 -26 -26 -25 -25 -25 -25 -25 -25 -24 -24 -24 -24 -23 -23 -23 -23 -23 -23 -23 -22 -22 -22 -22 -22 -22 -22 -22 -22 -22 -22 -22 -22 -22 -22 -22 -22 -22
-26 -27 -27 -26 -26 -26 -26 -26 -27 -26 -26 -25 -25 -25 -25 -25 -24 -24 -24 -24 -23 -23 -23 -23 -23 -23 -23 -23 -23 -23 -23 -23 -23 -23 -23 -23 -23 -23 -22 -22 -22 -22 -22
-27 -27 -27 -27 -27 -27 -27 -27 -27 -27 -27 -26 -26 -26 -25 -25 -25 -25 -24 -24 -24 -24 -24 -23 -23 -23 -23 -23 -23 -23 -23 -23 -23 -23 -23 -23 -23 -23 -23 -23 -23 -23 -23
-28 -28 -28 -28 -28 -28 -28 -28 -28 -27 -27 -27 -27 -26 -26 -26 -26 -25 -25 -25 -25 -24 -24 -24 -24 -24 -24 -24 -24 -24 -24 -24 -24 -24 -24 -24 -24 -24 -24 -24 -24 -24 -24
-28 -29 -29 -29 -29 -29 -28 -28 -28 -28 -28 -28 -27 -27 -27 -26 -26 -26 -25 -25 -25 -25 -25 -25 -25 -25 -24 -24 -24 -24 -24 -24 -24 -24 -25 -25 -25 -25 -25 -25 -25 -24 -24